GFSGBSN_prec_cloud_003.txt.gz
Cloud_Cover
0 0 1 28 47 61 100 100 88 99 74 99 100 100 100 100 100 100 100 100 93 92 93 63 58 54 4 0 0 0 0 0 0 69 100 100 100 100 100 100 100 100 100 100 97 70 100
0 1 5 21 39 89 100 100 100 100 100 100 100 100 100 100 100 100 100 100 88 32 33 61 36 84 8 0 0 0 0 0 0 0 18 100 100 95 87 98 100 86 99 100 100 100 74
0 2 14 72 97 100 100 100 100 100 100 100 100 98 99 100 100 100 100 100 41 21 49 48 79 42 0 0 0 0 0 0 0 0 0 0 5 13 64 79 99 100 100 91 46 100 71
3 5 52 18 5 100 100 100 94 100 100 100 99 85 4 3 0 1 5 16 12 30 41 71 100 2 1 0 0 0 0 0 0 0 0 0 0 0 0 0 0 1 56 4 66 0 0
92 99 54 10 39 96 100 100 100 100 100 100 99 5 5 1 0 2 0 1 1 4 79 97 14 5 0 0 0 0 0 0 0 0 0 0 0 0 0 0 0 0 0 0 0 0 0
99 67 69 51 71 100 100 100 100 100 100 45 5 1 0 0 1 10 79 80 53 96 72 6 3 0 0 0 0 0 0 0 0 0 0 0 0 0 0 0 0 0 0 0 0 0 0
8 59 100 100 99 100 100 100 100 100 50 30 50 43 37 99 100 100 100 100 69 8 2 0 0 0 0 0 0 0 0 0 0 0 0 0 0 0 0 0 0 0 0 0 0 0 0
97 100 100 100 94 100 100 100 100 100 84 100 97 85 100 100 100 99 62 21 13 1 0 0 0 0 0 0 0 0 0 0 0 0 0 0 0 0 0 0 0 0 0 0 0 0 0
84 100 100 97 100 100 100 100 100 100 100 100 100 100 100 100 54 5 5 3 1 0 0 0 0 0 0 0 0 0 0 0 0 0 0 0 0 0 0 0 0 0 0 0 0 0 0
87 100 100 100 100 100 87 100 100 100 100 100 100 100 100 50 12 5 4 0 0 0 0 0 0 0 0 0 0 0 0 0 2 0 0 0 0 0 0 0 0 0 0 0 0 0 0
36 88 100 100 100 100 100 100 100 100 98 100 99 71 99 5 4 5 0 0 0 0 0 0 0 0 0 0 0 0 0 0 0 0 2 0 0 0 0 0 0 0 0 0 0 0 0
52 100 100 100 100 100 100 100 100 100 100 66 12 77 5 5 4 0 0 0 0 0 0 0 0 0 0 0 0 0 0 0 0 0 0 4 4 0 0 0 0 0 0 0 0 0 0
90 70 100 100 100 100 100 100 85 98 89 10 90 78 42 5 5 0 0 0 0 0 0 0 0 0 0 0 0 0 0 0 0 0 0 0 0 2 0 0 0 0 0 0 0 0 0
89 42 100 100 100 100 92 16 100 57 55 13 99 53 13 5 4 0 0 0 0 0 0 0 0 0 0 0 0 0 0 0 0 0 0 0 0 0 0 0 0 0 0 0 4 5 5
100 67 100 100 100 100 100 100 63 15 51 35 37 10 26 38 1 4 5 0 0 0 0 0 0 0 0 0 0 0 0 0 0 0 0 0 0 0 0 0 0 0 0 0 2 5 5
100 100 100 100 100 100 100 100 99 81 23 44 5 9 5 5 5 16 5 0 0 0 0 0 0 0 0 0 0 0 0 0 0 0 0 0 0 0 0 0 0 0 0 0 2 2 1
100 100 100 100 100 100 100 100 99 14 80 50 39 5 12 16 47 42 5 0 0 0 0 0 0 4 2 0 0 0 0 0 0 0 0 0 0 0 0 0 0 2 4 1 2 5 5
100 100 100 100 100 100 100 100 100 21 92 98 84 22 71 44 31 5 5 5 0 2 0 4 5 5 5 5 0 0 0 0 0 0 0 0 0 0 0 0 0 0 4 1 5 5 2
100 100 100 100 100 100 100 100 100 74 77 99 38 54 72 38 29 5 5 5 4 5 5 5 5 5 14 5 5 0 0 0 0 0 0 0 0 0 0 0 0 0 0 5 5 39 87
99 100 100 100 100 100 100 100 100 99 100 47 30 6 95 13 29 5 47 5 3 5 6 6 5 5 5 5 2 0 0 0 0 0 4 0 0 0 0 0 0 0 0 5 4 85 46
100 100 100 100 100 100 100 100 100 97 100 100 50 9 58 74 66 5 5 5 4 5 5 5 5 5 5 5 3 1 2 0 0 0 0 4 1 0 4 4 4 4 2 5 5 5 42
76 100 100 100 100 100 100 100 100 100 100 100 95 74 80 71 67 28 5 5 5 5 3 5 5 0 0 0 0 0 5 5 0 5 5 4 5 5 5 4 4 5 2 5 5 5 30
100 100 100 100 100 100 100 100 100 100 100 100 100 84 87 52 57 43 6 6 5 5 5 5 0 0 2 2 5 0 0 0 0 5 5 5 5 52 100 51 5 34 5 5 5 5 5
99 96 100 100 100 100 100 100 100 100 100 100 100 78 100 99 96 10 55 14 10 27 5 5 5 5 5 5 5 4 0 0 0 4 5 98 6 63 66 22 37 12 5 5 5 7 5
100 84 100 100 100 100 100 100 100 100 100 100 100 100 62 72 62 5 5 5 5 5 5 5 5 2 5 5 5 5 5 4 5 33 1 1 58 72 91 94 8 1 5 5 5 5 15
100 99 48 100 100 100 100 100 100 100 100 100 100 100 100 94 26 42 7 5 5 5 2 3 5 5 5 5 5 5 5 7 5 5 79 12 6 15 91 98 83 0 5 5 10 63 59
100 100 65 98 100 100 100 100 100 100 100 100 100 100 100 100 100 80 97 21 5 5 5 5 5 5 5 18 77 7 5 5 5 5 5 84 97 100 100 100 10 5 6 72 97 92 100
100 100 100 100 100 100 100 100 100 100 100 100 100 100 100 100 92 65 23 50 62 49 12 5 5 5 88 100 96 99 21 23 20 42 6 5 87 41 82 93 57 62 100 100 94 100 100
100 100 100 100 100 100 100 100 100 100 100 100 100 100 100 100 100 93 56 6 5 5 13 19 5 5 5 71 50 90 98 91 50 25 34 31 9 96 100 33 76 92 100 90 100 100 100

GFSGBSN_prec_cloud_006.txt.gz
Cloud_Cover
100 93 5 24 100 100 100 100 100 99 100 42 100 100 100 100 100 100 100 100 96 100 100 97 98 96 3 0 0 0 0 0 0 0 0 23 94 100 100 100 100 100 100 93 87 99 100
100 62 2 10 100 100 100 100 100 56 96 100 100 89 100 100 100 100 100 100 100 100 49 100 99 45 0 0 0 0 0 0 0 0 0 1 2 13 28 100 100 100 100 100 100 100 100
100 95 1 70 58 100 100 100 100 100 98 44 100 100 100 100 100 100 100 100 100 100 82 100 77 0 0 0 0 0 0 0 0 0 0 0 0 0 0 0 1 51 91 100 100 100 100
100 4 1 72 32 100 100 100 100 100 100 100 100 100 100 67 47 80 98 92 31 0 64 89 20 0 0 0 0 0 0 0 0 0 0 0 0 0 0 0 0 0 0 0 4 97 100
48 4 34 13 60 100 100 100 100 100 100 100 95 21 6 1 0 0 0 0 0 0 10 4 5 0 1 0 2 0 1 0 0 0 0 0 0 0 0 0 0 0 0 0 0 26 52
48 98 13 17 5 86 100 100 100 100 100 20 8 1 0 0 0 0 0 0 0 27 6 5 5 2 2 2 0 0 0 0 0 0 0 0 0 0 0 0 0 0 0 0 0 0 0
100 95 46 16 37 100 100 100 100 96 5 4 4 0 0 0 0 4 38 10 57 98 54 7 6 0 0 0 0 0 0 0 0 0 0 0 0 0 0 0 0 0 0 0 0 0 0
100 44 100 12 100 100 100 100 100 36 4 3 5 0 0 2 10 44 83 57 35 5 4 1 0 0 0 0 0 0 0 0 0 0 0 0 0 0 0 0 0 0 0 0 0 0 0
79 90 90 100 100 100 100 100 100 6 5 21 6 15 50 94 100 100 61 9 3 2 0 0 0 0 0 0 0 0 0 0 0 0 0 0 0 0 0 0 0 0 0 0 0 0 0
94 100 75 90 100 100 100 100 100 58 99 96 100 100 100 100 70 8 5 4 0 0 0 0 0 0 0 0 0 0 0 0 0 0 0 0 0 0 0 0 0 0 0 0 0 0 0
100 100 100 62 100 100 100 100 100 100 100 100 100 100 99 37 5 5 5 5 0 0 0 0 0 0 0 0 0 0 0 0 0 0 0 0 0 0 0 0 0 0 0 0 0 0 0
100 100 100 100 100 100 100 96 100 100 100 100 99 66 27 32 8 5 2 0 0 0 0 0 0 0 0 0 0 0 0 0 0 0 0 0 0 0 0 0 0 0 0 0 0 0 0
100 100 100 100 100 100 100 100 100 100 100 99 98 33 5 5 5 5 0 0 0 0 0 0 0 0 0 0 0 0 0 0 0 0 0 0 0 0 0 0 0 0 0 0 2 1 2
100 100 100 100 100 100 100 100 100 100 100 34 7 59 5 5 1 0 0 0 5 0 0 0 0 0 0 0 0 0 0 0 0 0 0 0 0 0 0 0 0 0 0 0 0 0 0
100 100 100 100 100 100 100 100 100 100 100 75 52 9 51 0 0 0 0 0 6 0 0 0 0 0 0 0 0 0 0 0 0 0 0 0 0 0 0 0 0 0 0 0 0 2 3
100 100 100 100 100 100 100 100 79 100 90 99 56 15 5 5 4 0 0 0 0 0 0 0 0 0 0 0 0 0 0 0 0 0 0 0 0 0 0 0 0 0 0 3 0 16 1
100 100 100 100 100 100 100 100 100 90 69 100 46 11 5 8 5 5 1 0 0 0 0 0 0 0 0 0 0 0 0 0 0 0 0 0 0 0 0 0 0 4 3 0 0 0 1
100 100 100 100 100 100 100 100 100 100 100 91 59 26 5 5 6 50 5 5 0 0 0 0 0 0 4 3 4 0 0 0 0 0 0 0 0 0 0 0 0 0 0 0 5 4 27
100 100 100 100 100 100 100 100 100 73 85 82 40 38 35 36 55 59 27 5 0 4 3 1 4 5 5 5 5 0 0 0 0 0 0 0 0 0 0 0 0 4 2 0 1 5 5
100 99 97 100 100 100 100 100 100 100 100 100 88 72 59 11 65 6 5 5 4 5 5 5 14 24 6 5 2 0 0 0 0 0 0 0 0 0 0 3 0 0 2 5 12 10 20
94 97 82 99 100 100 100 100 100 100 82 100 100 11 13 95 85 77 27 5 8 66 5 5 5 5 5 1 1 1 0 1 0 0 0 0 0 5 5 5 5 5 4 4 3 5 61
80 100 100 100 100 100 100 100 100 100 100 100 100 28 58 7 91 100 23 5 45 55 5 5 2 0 0 1 3 1 0 0 0 4 5 0 0 4 5 5 5 0 3 5 3 3 5
35 100 100 100 100 100 100 100 100 100 100 100 100 90 82 62 48 98 75 30 30 5 5 5 1 0 13 0 0 1 5 5 5 5 4 1 0 7 47 14 5 14 5 5 5 5 5
72 100 100 100 100 100 100 100 100 100 100 100 97 100 100 96 68 69 88 34 38 13 5 5 5 5 5 5 5 5 5 5 5 5 5 66 5 70 86 84 27 5 5 53 34 5 5
100 100 100 100 100 100 100 100 100 100 100 100 100 100 100 100 100 49 94 24 5 14 5 5 5 5 5 5 9 84 25 32 22 5 5 4 29 73 96 65 7 5 5 5 5 5 5
100 100 100 100 100 100 100 100 100 100 100 100 100 100 100 100 100 100 52 97 74 31 22 5 5 7 5 0 40 96 10 5 6 23 12 8 1 21 88 80 87 5 5 30 23 87 83
100 100 100 100 100 100 100 100 98 100 100 100 100 100 100 100 100 100 100 100 83 96 53 23 5 26 5 69 91 95 5 5 29 28 72 65 96 94 100 91 61 5 5 36 82 93 66
100 100 100 100 100 100 100 100 100 100 100 100 100 100 100 100 100 100 100 100 100 99 24 18 5 5 52 100 100 75 98 41 24 43 5 12 8 75 86 100 84 45 100 97 37 7 100
100 100 100 100 100 100 100 100 100 100 100 100 100 100 100 100 100 100 100 100 100 100 77 21 5 5 5 41 81 96 100 93 91 6 94 9 7 28 24 5 89 100 97 8 20 91 100

GFSGBSN_prec_cloud_009.txt.gz
Cloud_Cover
80 100 100 100 76 100 100 100 100 100 100 37 9 97 23 90 100 100 100 100 94 8 73 51 100 100 100 100 18 4 0 0 0 0 0 0 0 35 84 100 100 100 100 100 100 100 100
100 100 100 99 100 100 100 100 100 100 59 89 100 92 100 96 100 100 100 96 100 100 100 100 100 100 96 83 41 1 0 0 0 0 0 0 0 0 0 3 52 100 100 100 100 100 100
100 100 100 100 83 100 100 100 100 67 98 15 39 94 37 94 100 100 100 100 100 100 100 100 100 92 44 0 0 0 0 0 0 0 0 0 0 0 0 0 1 78 100 100 100 100 100
100 100 100 97 44 100 100 100 98 100 94 76 29 100 100 100 100 100 100 100 81 74 35 100 49 0 0 0 0 0 0 0 0 0 0 0 0 0 0 0 0 0 2 68 93 66 99
100 100 98 3 78 100 100 100 100 100 84 100 100 100 100 100 75 5 2 0 0 0 15 54 8 0 0 0 0 0 0 0 0 0 0 0 0 0 0 0 0 0 3 0 0 0 3
100 100 11 59 79 71 100 100 100 100 100 100 100 100 100 45 3 0 0 10 0 32 26 0 0 0 0 0 0 0 0 0 0 0 0 0 0 0 0 0 80 14 0 0 0 0 0
100 100 100 100 51 51 100 100 100 100 100 100 98 58 3 0 0 0 45 0 0 0 0 0 0 0 1 4 5 5 5 5 3 5 3 0 1 3 0 0 0 0 0 0 0 0 0
100 100 100 96 10 100 100 100 100 100 100 36 2 0 0 0 0 0 14 4 5 5 18 11 5 5 2 0 0 0 0 0 0 0 0 0 0 0 0 0 0 0 0 0 0 0 0
100 100 100 99 52 100 100 100 100 90 38 5 0 0 0 4 49 90 94 86 82 5 5 2 0 0 0 0 0 0 0 0 0 0 0 0 0 0 0 0 0 0 0 0 0 0 0
99 100 100 45 100 100 100 100 92 26 52 5 0 0 50 100 90 94 95 63 17 5 0 0 0 0 0 0 0 0 0 0 0 0 0 0 0 0 0 0 0 0 0 0 0 0 9
98 92 100 91 100 100 100 100 63 11 79 11 10 100 100 100 100 99 78 5 5 0 0 0 0 0 0 0 0 0 0 0 0 0 0 0 0 0 0 0 0 0 0 0 0 0 0
97 100 86 100 100 100 100 100 100 100 100 100 100 100 100 100 19 26 38 5 2 0 0 0 0 0 0 0 0 0 0 0 0 0 0 0 0 0 0 0 0 0 0 0 0 0 0
99 100 95 100 100 100 100 100 100 100 100 100 100 100 91 61 28 12 30 5 2 1 0 0 0 0 0 0 0 0 0 0 0 2 0 0 0 0 0 1 0 0 0 4 46 26 52
100 100 91 100 100 100 100 100 100 100 100 100 100 100 78 33 85 57 12 5 2 4 0 0 0 0 0 0 0 0 0 0 0 0 0 3 4 0 0 0 0 0 0 3 2 5 13
100 100 100 100 100 100 100 100 100 100 100 100 78 20 5 58 93 34 5 2 8 2 0 0 0 0 0 0 0 0 0 0 0 0 1 0 0 0 0 0 0 0 0 0 0 0 0
100 100 98 100 100 100 100 100 100 100 100 100 64 12 27 21 37 6 5 3 5 0 0 0 0 0 0 0 0 0 0 0 0 0 0 0 0 0 0 0 0 0 0 4 5 22 0
100 100 100 100 100 100 100 100 100 100 100 100 72 46 50 5 12 5 1 1 0 0 0 0 0 0 1 0 5 0 0 0 0 0 0 0 0 0 0 0 0 4 5 1 0 0 1
100 100 100 100 100 100 100 100 100 100 100 100 86 42 21 5 5 5 4 3 0 0 0 0 0 0 0 5 5 5 5 0 0 0 0 0 0 0 0 0 0 0 1 0 0 2 5
100 100 100 100 100 100 100 100 100 99 92 72 81 81 10 6 7 5 36 5 4 0 0 0 0 0 0 5 5 5 4 0 0 0 0 0 0 0 0 0 1 1 5 1 2 5 5
100 100 100 100 100 100 100 100 100 100 91 92 52 53 73 9 67 51 58 31 5 5 2 2 0 2 3 5 2 0 0 0 0 0 4 5 3 4 5 5 4 5 5 5 21 36 85
100 100 100 100 100 100 100 100 100 100 58 84 59 34 73 5 38 6 25 36 33 5 5 4 5 5 5 1 0 0 0 0 0 0 0 0 0 0 0 0 5 6 29 5 6 17 82
100 100 100 100 100 100 100 100 100 100 99 9 69 76 22 5 5 5 5 5 61 36 8 5 5 5 0 0 0 0 0 0 0 0 0 0 0 5 0 0 0 0 5 5 5 12 5
100 100 100 100 100 100 100 100 100 100 100 49 9 66 29 7 5 5 5 33 29 56 30 5 5 5 5 0 0 0 0 1 0 4 3 0 2 5 5 7 4 8 20 5 66 88 69
100 100 100 100 100 100 100 100 100 100 100 99 16 58 100 26 5 5 5 7 43 5 5 5 5 5 5 5 5 4 5 5 5 5 3 3 1 40 66 73 52 16 52 24 13 5 59
100 100 100 100 100 100 100 100 100 100 100 100 97 81 100 98 46 13 19 5 25 5 5 6 16 32 53 14 8 14 25 76 48 5 1 0 20 45 79 42 58 18 5 5 5 5 31
100 100 100 100 100 100 100 100 100 100 100 100 100 100 86 85 100 100 93 55 40 94 36 64 52 67 46 5 39 95 10 5 5 5 1 0 10 5 82 63 54 29 97 69 15 63 79
100 100 100 100 100 100 100 100 100 100 100 100 100 100 100 100 100 100 100 98 100 91 94 82 95 56 49 67 91 93 5 5 5 28 72 66 95 70 96 54 18 20 5 4 17 44 50
100 100 100 50 100 100 100 100 100 100 100 100 100 100 100 99 100 100 100 43 21 36 100 100 100 100 100 99 96 50 97 5 5 5 7 30 28 77 76 78 70 24 63 59 75 55 55
100 100 100 100 100 100 100 100 100 100 100 100 100 100 100 100 100 100 100 100 100 96 100 100 100 100 100 100 100 77 98 88 25 5 5 5 7 24 58 28 90 100 100 100 100 95 98

GFSGBSN_prec_cloud_012.txt.gz
Cloud_Cover
100 100 100 99 100 100 100 100 100 100 100 100 100 36 6 3 85 100 100 100 100 100 20 21 91 100 7 25 80 98 99 94 11 0 4 0 27 100 100 100 100 100 100 100 100 100 100
46 100 96 100 100 100 97 100 100 100 100 100 11 11 92 100 96 100 100 100 100 100 94 28 96 100 98 100 100 100 100 100 97 3 0 16 97 88 48 99 64 74 100 100 100 100 100
66 100 100 100 100 100 100 100 100 100 100 86 98 100 100 90 100 100 100 100 100 30 82 100 100 92 100 100 89 26 82 24 5 0 0 0 0 0 0 0 0 0 56 100 68 88 100
100 100 100 100 100 100 99 100 100 100 100 98 21 94 97 67 99 100 100 100 100 100 100 100 100 98 100 100 100 100 97 34 0 0 0 0 0 0 0 0 0 0 0 6 0 0 5
100 100 100 100 100 79 69 100 100 100 30 34 90 38 77 100 100 100 100 100 100 100 100 100 93 34 81 35 12 1 0 0 0 0 0 0 0 0 0 0 0 0 5 26 0 0 0
100 100 100 100 100 14 49 100 100 10 73 100 100 100 100 100 100 100 100 100 58 37 23 1 0 0 0 0 0 0 0 0 0 0 0 0 0 0 0 14 100 22 30 34 0 0 0
100 100 100 100 100 58 76 100 68 100 100 100 100 100 100 100 91 27 45 0 0 0 0 0 0 0 0 0 0 0 0 0 0 0 0 0 24 46 0 3 5 0 1 0 3 5 5
100 100 100 100 24 40 57 100 100 100 100 100 100 100 71 7 0 0 14 2 0 0 0 0 0 0 0 0 0 0 0 0 2 3 5 6 5 5 5 5 2 5 4 2 0 0 0
100 100 100 100 90 98 100 100 100 100 100 100 100 77 1 0 7 36 0 0 0 0 0 0 0 1 1 1 4 4 4 6 34 12 4 2 1 0 0 0 0 0 0 0 0 0 0
100 100 100 100 27 100 100 100 100 100 95 54 3 0 0 0 39 1 5 5 56 60 61 13 17 41 5 5 11 2 0 0 0 0 0 0 0 0 0 0 0 0 0 0 0 0 21
100 100 100 100 84 100 100 100 100 74 5 0 0 2 5 5 98 71 100 71 94 90 74 58 22 2 0 0 0 0 0 0 0 0 0 0 0 0 0 0 0 0 0 0 0 0 0
100 100 100 100 84 100 100 100 60 53 2 0 0 20 10 5 27 99 72 92 68 85 24 5 2 0 0 0 0 0 0 0 0 0 0 0 0 0 0 0 0 0 0 0 0 0 0
100 100 100 86 100 100 100 100 24 85 64 5 48 99 100 100 100 56 43 69 24 33 5 2 0 0 0 0 0 0 0 0 1 2 0 0 0 0 0 1 0 0 5 27 31 40 4
100 100 100 100 100 100 100 100 36 84 72 75 100 100 100 73 32 55 77 30 5 5 1 0 0 0 0 0 0 0 0 0 0 0 5 53 9 0 0 0 0 0 0 0 1 7 48
100 100 100 100 87 100 100 100 100 95 100 100 99 100 100 57 21 30 75 60 5 5 1 0 0 0 0 0 0 0 0 0 0 0 3 2 2 0 0 0 0 1 1 0 0 0 0
100 100 100 100 100 100 100 100 100 100 100 100 100 100 86 35 10 68 76 23 16 5 0 0 1 1 6 1 1 5 0 0 0 0 0 0 2 0 0 0 0 0 0 0 37 3 4
100 100 100 100 57 100 100 100 100 100 100 100 100 100 41 44 6 53 80 5 6 0 0 1 5 0 68 0 5 5 1 0 0 0 0 0 0 0 0 0 0 0 23 1 0 0 1
100 100 100 100 100 100 100 100 100 100 100 100 100 83 20 37 8 23 78 42 5 3 0 0 1 0 5 5 5 5 5 0 0 0 0 0 0 0 0 0 0 0 0 5 5 5 5
100 100 100 93 100 100 100 100 100 100 100 100 68 70 23 62 5 44 68 23 4 5 3 0 0 0 0 5 6 9 5 4 0 0 0 0 0 0 0 2 1 0 3 5 5 3 3
100 100 100 100 100 100 100 100 100 100 100 100 100 44 34 32 44 58 35 5 5 5 5 0 4 0 3 5 5 5 5 5 5 1 0 0 0 0 0 4 5 5 5 5 5 5 7
100 100 100 100 100 100 100 100 100 100 100 73 69 36 64 85 5 10 5 16 57 5 1 0 5 5 5 5 5 5 5 1 1 0 0 0 0 0 0 0 0 0 1 4 5 5 71
100 100 100 100 100 100 100 100 100 100 100 90 71 98 50 40 5 5 5 20 69 8 2 5 5 5 5 5 10 5 0 0 0 0 0 0 5 4 0 0 0 0 0 0 1 5 64
100 100 100 100 100 100 100 100 100 100 100 42 66 35 14 34 16 12 11 5 5 5 5 5 5 5 5 5 5 5 1 0 0 0 1 0 5 5 4 2 0 5 5 5 5 58 5
100 100 100 100 100 100 100 100 100 100 100 100 56 32 13 12 76 10 8 6 9 5 5 5 5 5 5 5 5 5 3 0 0 0 0 0 0 31 11 31 17 5 5 5 5 35 70
100 100 100 100 100 100 100 100 100 100 100 100 100 17 28 98 6 96 10 21 35 5 5 8 5 5 5 63 55 8 15 5 5 5 5 4 0 35 62 5 5 5 6 5 5 0 20
100 100 100 100 100 100 100 100 100 100 100 100 100 100 42 69 75 5 33 46 8 7 5 5 6 10 71 40 26 8 5 5 6 5 5 5 5 8 82 10 5 0 53 5 50 24 58
100 100 100 100 100 100 100 100 100 100 100 100 100 100 100 79 9 24 37 24 18 6 48 5 6 36 22 39 91 81 70 92 81 74 87 42 81 36 52 99 11 0 5 1 4 11 6
100 100 100 100 100 100 100 100 100 100 100 100 100 100 100 100 100 94 91 46 95 54 91 42 5 24 61 95 100 100 89 100 92 32 26 32 26 73 74 84 33 5 30 13 36 8 63
100 100 100 100 100 100 100 100 100 100 100 100 100 100 100 100 100 100 100 100 100 100 100 100 62 94 96 100 100 74 90 77 72 27 19 3 7 5 4 5 4 68 82 5 5 5 48

GFSGBSN_prec_cloud_015.txt.gz
Cloud_Cover
0 1 0 74 11 99 96 100 100 100 100 100 100 100 99 37 9 24 100 100 100 100 100 74 100 100 3 0 1 0 95 100 100 98 64 5 2 31 96 81 100 100 100 100 100 100 100
0 0 0 16 34 100 100 100 100 100 100 100 100 52 16 26 29 68 100 100 100 100 100 100 100 99 5 2 3 100 100 32 52 7 2 4 82 54 76 4 100 100 100 100 100 100 100
0 0 1 51 52 94 100 100 100 100 100 100 73 91 92 100 22 97 100 100 100 100 78 56 100 91 58 56 57 99 100 100 82 100 100 98 11 97 49 5 1 51 100 100 100 100 88
0 0 66 77 100 100 92 100 100 100 99 85 94 100 48 11 100 100 100 97 91 22 72 100 100 100 100 100 100 100 96 100 100 100 100 46 1 2 0 0 0 0 22 100 100 100 100
0 0 26 91 100 100 100 100 100 95 100 84 77 100 86 84 79 98 100 88 82 100 100 99 75 100 100 100 100 100 100 100 75 37 33 2 0 0 0 6 3 3 18 7 89 100 21
0 2 6 33 100 100 100 100 56 100 95 100 99 95 93 100 100 98 98 97 100 100 100 100 100 98 100 78 95 65 4 1 0 0 0 0 2 0 58 6 4 5 55 74 2 0 0
0 5 36 100 100 100 100 100 8 100 100 99 100 89 100 100 100 100 100 100 100 100 100 67 3 1 5 42 5 0 0 0 0 0 0 2 0 0 0 0 5 99 57 5 0 0 0
6 5 86 100 100 100 100 100 8 80 100 100 100 100 100 100 100 100 100 60 2 0 0 0 0 0 0 0 0 0 0 0 0 0 0 1 0 4 5 1 0 42 4 5 0 0 0
7 49 100 100 100 100 86 99 17 100 100 100 100 100 100 100 88 34 5 0 0 0 0 0 0 0 0 0 0 0 0 0 0 0 1 0 2 3 4 5 4 5 2 0 0 0 0
17 92 100 100 100 100 21 100 48 100 100 100 100 55 17 5 4 0 0 0 0 0 0 0 0 0 0 0 1 3 0 0 0 3 5 3 0 0 0 0 0 0 0 0 0 0 0
14 100 100 100 100 73 79 100 74 100 100 100 100 48 0 0 0 0 0 0 0 0 0 1 2 5 5 5 5 4 1 0 0 0 0 0 0 0 0 0 0 0 0 0 0 0 0
16 99 100 100 100 5 100 100 65 100 100 99 58 5 4 0 0 0 17 17 20 81 9 5 6 26 5 3 0 0 0 0 0 0 0 0 0 0 0 0 0 0 0 0 0 0 0
100 100 100 100 100 68 100 100 100 100 100 90 1 0 0 0 5 53 48 100 100 50 21 34 23 5 0 0 0 0 0 0 0 0 0 0 0 0 0 0 0 0 0 2 5 4 4
100 100 100 100 51 100 100 100 100 60 96 0 0 0 2 5 5 39 37 71 14 8 34 5 0 0 0 0 0 0 0 0 0 5 4 2 4 0 0 0 0 0 0 0 1 5 4
100 100 100 100 85 100 100 100 100 84 6 0 17 86 30 5 8 5 5 28 38 5 5 5 0 0 0 0 0 0 0 0 0 0 1 3 0 0 0 0 0 0 0 0 0 0 0
100 100 100 96 72 100 100 100 60 94 78 5 90 98 8 5 5 18 32 33 72 46 10 1 0 5 6 0 0 0 0 2 3 0 0 0 0 0 0 0 0 0 0 0 0 2 1
100 100 100 100 100 97 100 100 90 51 90 9 100 56 39 5 13 44 57 9 55 13 2 2 11 35 89 2 33 38 0 3 4 0 0 0 0 0 0 0 0 0 0 0 0 0 5
100 100 100 94 100 100 100 100 100 26 100 84 86 78 58 11 9 50 32 6 66 5 0 5 0 0 7 5 9 5 5 0 0 0 0 0 0 0 0 0 0 0 0 2 0 2 5
100 100 100 100 100 100 100 100 100 100 48 83 39 100 100 20 50 43 51 7 7 5 0 0 2 0 0 5 29 5 5 4 1 0 0 0 0 0 0 0 0 0 0 0 4 6 0
100 100 100 100 100 100 100 100 100 100 86 48 81 100 100 52 28 55 72 67 5 5 4 0 0 0 0 5 5 48 27 12 5 0 0 0 0 0 0 0 0 0 0 0 0 2 4
100 100 100 100 100 100 100 100 100 100 60 100 100 100 100 96 62 41 54 21 5 5 2 0 0 0 5 5 5 5 14 5 5 5 0 0 0 0 0 0 0 0 0 0 0 0 0
100 100 100 100 100 100 100 100 100 100 100 100 100 100 5 30 81 96 71 44 5 20 1 5 0 0 1 5 5 5 5 5 4 0 0 0 0 0 0 0 1 4 0 0 0 0 0
100 100 100 100 100 100 100 100 100 100 100 100 100 100 100 100 49 78 8 5 18 28 3 3 5 5 5 1 3 2 3 1 0 0 0 0 0 5 14 2 1 0 0 0 0 0 1
100 100 100 100 100 100 100 100 100 100 92 100 100 93 92 17 100 79 5 5 6 5 5 39 5 5 3 5 5 2 5 5 5 3 4 5 6 58 8 5 5 0 0 0 0 0 0
100 100 100 100 100 100 100 100 100 100 100 100 89 69 37 96 6 11 5 5 34 5 42 6 6 7 69 6 5 5 5 5 5 5 8 5 16 59 85 5 5 5 5 4 4 2 0
100 100 100 100 100 100 100 100 100 100 100 100 100 100 94 56 5 30 5 60 46 26 10 6 8 11 46 8 9 5 5 5 13 18 100 100 49 5 82 6 5 5 5 5 3 4 0
100 100 100 100 100 100 100 100 100 100 100 100 100 100 100 66 90 49 5 34 5 5 35 50 7 15 5 87 100 100 100 91 67 90 9 53 7 10 91 5 4 0 2 4 2 1 0
100 100 100 100 100 100 100 100 100 100 100 100 100 100 100 100 98 12 70 16 5 5 10 54 36 16 83 46 70 81 32 5 51 64 100 5 31 56 62 39 49 0 1 5 5 3 5
100 100 100 100 100 100 100 100 100 100 100 100 100 100 100 100 100 100 99 74 85 61 98 62 49 99 86 99 100 100 100 100 100 97 97 20 20 97 100 50 16 0 3 5 2 5 39

GFSGBSN_prec_cloud_018.txt.gz
Cloud_Cover
0 0 0 0 0 0 36 100 100 100 100 100 100 100 100 100 100 91 91 68 100 100 100 100 99 98 6 0 0 0 3 32 100 24 91 57 100 100 100 100 100 99 100 100 100 100 100
0 0 0 0 0 0 39 100 100 100 100 100 100 100 100 82 11 5 17 100 100 100 100 100 100 98 14 0 5 11 0 98 100 33 25 60 100 100 95 82 50 78 100 100 100 100 100
0 0 0 0 0 0 1 100 61 100 100 100 100 87 13 7 13 13 5 100 100 100 100 100 100 70 6 2 2 10 6 100 100 100 100 100 100 87 71 100 71 37 100 100 100 100 100
0 0 0 0 0 0 0 3 100 100 100 99 65 6 2 5 70 86 36 100 100 98 100 100 100 100 100 100 87 92 100 98 100 91 76 87 100 100 99 18 5 5 5 100 100 100 100
0 0 0 0 0 0 1 55 84 100 59 6 69 52 36 67 47 100 65 38 6 22 98 100 100 71 86 99 99 100 100 70 99 86 98 100 100 85 66 2 0 5 5 58 89 75 22
0 0 0 0 0 0 3 54 100 100 83 92 5 50 100 100 37 63 68 86 100 100 100 100 100 96 65 100 87 86 89 100 100 100 97 99 46 5 4 5 5 5 5 5 5 4 1
0 0 0 0 0 0 1 62 100 100 10 100 100 100 100 76 100 99 100 100 100 100 77 100 100 100 100 100 100 100 100 100 100 100 69 4 1 0 0 0 7 68 5 5 4 0 0
0 0 0 0 0 0 6 92 100 81 12 100 7 94 92 35 17 30 100 100 100 100 70 33 89 100 100 99 98 85 64 83 88 2 0 0 0 0 0 0 11 34 77 0 0 0 0
0 0 0 0 0 1 31 100 100 7 14 70 82 85 100 100 100 100 97 70 87 76 0 4 24 51 50 6 5 0 0 0 0 0 0 0 0 0 0 0 1 24 11 2 0 1 0
0 0 0 0 2 10 92 100 57 2 45 100 100 57 96 94 100 67 26 4 0 0 0 0 0 0 0 0 0 0 0 0 0 0 0 0 0 0 0 3 0 0 5 41 1 0 0
0 0 0 0 5 85 100 100 51 3 100 97 100 100 100 100 12 1 0 0 0 0 0 0 0 0 0 0 0 0 2 0 0 0 5 5 4 1 2 0 0 0 0 0 0 0 0
0 0 0 0 4 100 100 100 40 56 100 100 100 35 95 2 0 0 0 0 0 2 0 0 0 0 2 4 5 5 5 4 3 1 0 0 0 0 0 0 0 0 0 0 0 0 0
0 0 0 0 59 100 100 65 52 100 85 100 99 32 47 0 0 0 0 0 2 4 0 3 4 5 5 2 0 0 0 0 0 0 0 0 0 0 0 0 0 0 0 0 1 0 1
0 0 0 10 94 100 100 61 97 53 100 100 100 43 2 0 0 0 17 98 29 5 5 6 17 5 0 0 0 0 0 0 0 0 0 0 0 0 0 0 0 0 0 0 1 4 5
0 0 5 89 96 100 80 100 100 100 100 93 64 11 14 1 6 28 56 24 21 5 12 5 5 1 0 0 0 0 0 0 0 2 0 0 0 0 0 0 0 0 0 0 0 0 2
5 6 99 100 100 100 100 100 100 100 43 15 27 4 0 33 58 55 68 49 26 9 5 4 1 0 0 0 0 0 0 0 0 0 0 0 0 0 0 0 0 0 0 0 0 0 1
5 91 100 100 100 100 100 100 100 100 5 7 0 4 87 100 77 82 65 31 27 5 5 3 0 5 5 1 0 0 0 0 0 2 0 0 0 0 0 0 0 0 0 0 0 1 2
96 100 100 100 100 100 100 100 100 86 5 0 21 100 100 53 51 61 66 63 40 5 5 0 0 0 5 7 1 0 0 2 5 5 4 0 1 0 0 0 0 0 0 0 0 0 0
100 100 100 100 100 100 100 100 100 51 32 3 54 100 83 9 50 32 62 59 41 5 5 2 0 0 4 4 1 1 5 4 0 0 2 3 2 0 0 0 0 0 0 0 3 1 0
100 100 100 100 100 100 100 100 100 21 5 0 74 99 91 41 30 8 25 36 43 5 3 1 0 0 0 0 5 5 22 5 5 5 5 4 0 0 0 0 0 0 0 5 4 5 3
100 100 100 100 100 100 100 100 100 54 2 9 100 93 65 48 64 48 7 10 10 5 5 4 0 0 0 4 5 6 17 5 5 5 2 1 1 0 0 0 0 5 5 0 0 2 1
100 100 100 100 100 100 100 100 100 100 96 51 50 59 100 10 5 6 36 31 46 5 5 5 5 5 5 5 0 0 5 5 5 1 0 0 0 0 0 0 5 1 0 0 0 0 0
100 100 100 100 100 100 100 100 100 100 100 53 14 16 100 89 26 91 47 7 36 51 92 96 5 5 5 0 5 5 5 5 5 5 5 5 1 1 5 5 5 5 2 1 0 0 0
100 100 100 100 100 100 100 100 100 100 100 87 59 69 100 100 100 49 5 8 5 69 100 82 5 0 4 5 5 5 5 7 21 5 5 5 6 43 5 5 5 5 5 2 1 0 0
100 100 100 100 100 100 100 87 100 100 100 100 83 85 100 100 93 22 5 100 15 10 35 54 5 11 25 5 5 59 72 67 16 15 24 28 8 58 81 16 5 6 5 5 5 41 5
100 100 100 100 100 100 100 100 100 100 100 100 100 95 100 100 100 82 10 100 92 12 91 5 46 54 18 5 36 8 14 45 9 17 43 95 68 12 93 5 5 7 6 30 41 99 39
100 100 100 100 100 100 100 100 100 100 100 100 100 100 100 100 18 55 10 90 100 8 5 43 18 6 6 24 38 42 24 5 5 20 23 13 11 30 79 25 35 6 5 5 55 75 5
100 100 100 100 100 100 100 100 100 100 100 100 100 100 100 100 36 10 27 97 83 66 5 6 23 96 85 56 71 83 34 33 17 67 98 100 100 100 100 100 100 32 5 9 12 51 6
100 100 100 100 100 100 100 100 100 100 100 100 100 100 100 99 43 95 100 72 26 9 7 5 42 31 5 40 54 84 40 97 100 100 100 100 100 100 100 100 100 100 79 42 5 82 100

GFSGBSN_prec_cloud_021.txt.gz
Cloud_Cover
0 3 5 0 0 0 2 1 100 100 100 100 100 100 100 100 100 100 100 81 100 100 100 100 100 100 36 2 0 3 5 5 23 86 80 64 96 92 100 94 100 100 100 100 100 100 100
0 0 0 0 0 0 0 0 54 100 97 100 100 100 100 100 100 94 84 100 100 100 100 100 100 98 100 37 0 4 5 5 33 86 40 82 100 100 100 100 100 100 100 100 100 100 100
0 0 0 0 0 0 0 0 21 100 100 100 100 100 100 100 75 96 17 24 100 100 100 100 100 100 29 0 14 100 6 5 98 100 13 100 100 100 100 100 100 100 100 100 100 100 100
0 0 0 0 0 0 0 0 1 10 100 100 100 99 59 31 8 51 48 100 100 100 100 100 100 91 100 74 100 100 4 54 99 97 35 100 100 100 100 61 64 20 94 100 100 100 100
0 0 0 0 0 0 0 0 0 1 1 7 100 5 18 95 79 15 95 100 88 63 99 100 95 100 100 98 52 100 54 100 100 100 100 100 100 100 87 86 95 52 89 28 89 100 100
0 0 0 0 0 0 0 0 0 0 4 32 98 59 5 33 89 89 100 98 63 92 98 98 100 98 100 100 100 100 100 100 100 100 95 7 20 35 92 100 87 62 54 23 9 5 30
0 5 0 0 0 0 0 0 0 0 5 99 63 17 5 22 69 7 63 73 64 88 100 91 95 100 15 39 82 23 5 48 5 10 73 100 94 100 100 96 99 15 4 5 5 5 41
0 0 0 0 0 0 0 0 0 1 5 98 39 4 97 5 12 5 5 87 98 100 100 100 100 100 100 100 99 100 100 51 25 86 100 99 45 36 13 1 0 5 4 4 5 5 5
4 4 1 0 0 0 0 0 0 1 5 47 72 71 12 14 100 100 100 93 33 100 100 100 100 100 100 100 100 100 100 100 100 100 100 68 51 0 1 4 4 0 3 5 4 2 2
5 5 2 0 0 0 0 0 0 2 5 4 100 88 100 20 37 20 78 37 14 29 16 100 79 100 100 100 100 100 31 19 62 61 65 0 0 0 1 5 4 2 1 0 0 0 0
10 0 5 1 0 0 0 0 1 12 5 2 100 100 34 7 100 99 46 99 52 5 6 52 71 4 4 4 0 0 0 0 0 0 0 0 0 0 0 0 0 0 0 0 0 0 0
100 3 0 0 4 0 0 0 5 5 5 26 70 93 100 100 86 38 4 0 0 1 0 0 0 0 0 0 0 0 0 0 0 0 0 0 0 0 0 0 0 0 0 0 0 0 0
6 0 1 0 3 0 0 0 31 58 3 73 96 100 89 31 12 1 0 0 0 3 0 0 0 0 0 0 0 0 0 0 0 0 0 0 0 0 0 0 0 0 0 0 0 0 0
5 0 0 0 0 0 0 1 100 100 5 100 100 70 6 0 0 0 0 0 2 0 0 0 0 5 4 0 0 0 0 0 0 0 0 0 0 0 0 0 0 0 0 0 0 0 0
5 0 0 0 0 0 1 93 100 97 95 100 100 5 5 0 0 0 4 4 0 0 0 6 5 0 0 0 0 0 0 0 0 0 0 0 0 0 0 0 0 0 0 0 0 0 2
100 4 0 0 0 0 94 100 100 100 94 100 99 5 4 1 1 4 38 3 0 5 66 44 4 4 0 0 0 0 0 0 0 0 0 0 0 0 0 0 0 0 0 0 0 0 0
18 84 92 1 0 84 100 100 100 100 97 100 86 7 3 5 5 57 12 10 23 30 31 17 5 0 2 0 0 0 0 0 0 2 1 0 0 0 0 0 0 0 0 0 0 2 2
100 100 21 0 42 100 100 100 100 100 100 100 18 65 5 5 38 50 38 91 62 62 5 5 5 0 0 5 0 0 0 0 0 0 0 0 0 0 0 0 0 0 0 0 0 0 2
100 75 7 4 100 100 100 90 100 100 100 85 56 12 5 73 80 82 95 60 57 52 18 5 5 0 0 5 0 0 0 4 2 0 0 0 0 0 2 4 2 0 0 0 0 0 0
100 93 99 97 100 100 100 93 100 100 100 5 10 3 10 45 34 28 66 70 85 53 49 5 5 0 4 5 1 1 0 3 5 0 0 0 0 5 5 5 5 4 2 4 0 0 0
99 90 93 100 100 100 100 100 100 100 50 31 5 43 99 89 98 94 91 86 87 75 50 33 5 4 0 0 0 0 0 0 0 2 3 5 8 5 3 0 0 0 1 0 0 1 4
94 100 100 100 100 100 100 100 100 100 8 5 17 86 48 9 9 58 63 63 72 67 65 28 5 5 2 0 0 0 0 0 1 5 5 5 3 5 5 2 1 0 0 3 5 5 5
100 100 100 100 100 100 99 100 100 98 33 47 20 88 94 85 82 80 51 89 87 84 50 26 5 3 0 4 4 0 2 4 4 5 5 5 5 7 5 5 5 6 5 5 14 5 5
100 100 100 100 100 100 100 100 100 100 5 82 51 88 98 100 74 15 5 52 88 100 69 28 5 5 29 12 5 5 3 2 5 5 17 16 28 26 18 5 54 29 40 5 12 6 5
100 100 100 100 100 100 100 100 100 100 84 53 60 72 90 96 18 5 30 97 76 100 68 6 5 8 14 6 5 5 5 16 5 7 11 6 5 36 5 14 8 99 88 5 7 55 5
100 100 100 100 100 100 100 100 100 100 100 100 66 99 54 86 53 75 57 100 51 85 93 74 68 12 41 39 5 5 30 65 70 86 36 5 5 5 80 6 9 100 76 10 5 98 100
100 100 100 100 100 100 100 100 100 100 100 100 99 79 83 60 88 99 100 100 98 10 50 50 33 92 68 63 73 75 21 5 31 39 5 6 26 5 92 100 100 100 87 52 85 57 100
100 100 100 100 100 100 100 100 100 100 100 100 100 99 60 86 90 100 100 100 100 54 5 5 28 72 48 65 77 49 43 56 100 78 78 33 59 98 100 100 100 100 98 85 94 35 21
100 100 100 100 100 100 100 100 100 100 100 100 100 100 100 99 100 97 100 100 100 78 8 17 64 32 5 9 36 51 56 78 45 83 38 98 100 100 100 100 100 44 14 100 76 5 60

GFSGBSN_prec_cloud_024.txt.gz
Cloud_Cover
5 12 5 31 5 2 2 5 0 0 95 100 100 100 100 100 100 100 100 100 100 100 100 100 100 100 32 2 0 0 0 0 5 31 30 100 66 91 100 100 94 97 100 100 100 100 100
5 8 58 40 90 66 5 2 0 0 88 100 100 100 100 100 100 100 100 100 100 100 100 100 100 99 27 41 3 4 0 4 5 40 100 100 65 99 99 100 100 100 100 100 100 100 100
80 5 48 99 100 15 71 0 0 0 52 100 100 100 100 100 100 100 100 76 100 100 100 100 100 89 69 100 16 4 2 36 99 70 100 100 79 100 100 99 100 100 100 100 100 100 100
66 94 21 100 6 3 12 1 0 0 21 100 100 100 100 97 99 97 40 98 100 100 100 100 100 97 100 94 34 100 100 100 100 100 100 100 100 100 100 100 100 100 100 99 100 96 100
49 100 100 60 4 0 1 2 0 0 16 2 16 14 8 5 25 62 97 100 100 100 100 100 80 65 100 7 61 100 100 100 100 100 100 100 98 100 100 100 96 93 93 98 100 100 100
94 6 4 0 1 0 2 0 0 0 0 0 0 0 5 5 4 15 100 100 100 93 87 99 13 98 64 64 50 100 100 100 100 100 100 82 93 98 100 100 86 90 74 41 30 97 100
5 0 0 0 0 0 0 0 0 0 0 0 0 4 5 5 12 18 100 100 98 41 5 13 69 90 100 30 72 100 100 100 100 100 100 100 100 99 100 100 100 100 99 5 76 79 100
3 3 1 0 0 0 0 39 0 0 0 0 0 76 5 36 10 80 66 44 90 4 42 83 97 100 24 84 100 92 59 77 77 100 100 100 100 100 100 100 100 100 40 3 0 5 15
43 4 4 5 2 0 4 8 2 0 0 0 0 96 8 100 18 92 30 76 86 100 100 95 97 100 100 99 91 37 6 46 65 87 90 90 100 100 100 100 100 8 0 4 5 5 5
24 4 5 64 24 4 18 100 1 0 0 0 4 94 5 5 4 86 98 64 100 95 100 100 100 100 100 98 84 81 100 100 100 100 86 29 100 97 100 13 0 0 0 0 2 5 9
56 5 5 73 8 37 76 100 1 0 0 0 5 52 96 22 1 4 25 38 34 39 42 94 100 98 100 100 100 97 50 100 100 100 100 96 99 1 0 0 0 0 0 0 1 0 1
97 97 100 86 100 62 58 100 5 2 0 0 34 24 100 62 27 20 87 32 55 78 100 100 100 100 75 98 99 84 82 2 4 11 1 2 0 0 0 0 0 0 0 0 0 0 0
100 100 100 100 100 100 100 63 2 1 0 0 48 77 87 5 100 100 87 85 5 69 80 78 5 6 4 1 0 0 0 0 0 0 0 0 0 0 0 0 0 0 0 0 0 0 0
100 100 100 100 100 100 100 5 82 36 0 1 64 47 30 60 96 6 5 0 2 0 1 0 0 0 0 0 0 0 0 0 0 0 0 0 0 0 0 0 0 0 0 0 0 5 3
100 100 100 83 5 89 100 5 75 49 0 28 78 18 100 5 27 4 0 0 0 0 0 0 0 0 0 0 0 0 0 0 0 0 0 0 0 0 0 0 0 0 0 0 0 0 0
100 100 100 89 0 2 74 21 100 97 1 92 82 50 84 3 4 0 0 3 0 0 0 2 4 0 0 0 0 0 0 0 0 0 0 0 0 0 0 0 0 0 0 0 0 0 0
100 100 100 46 0 0 6 100 100 93 4 100 68 70 7 5 0 0 4 1 0 1 5 5 0 0 0 0 0 0 0 0 0 0 0 0 0 0 0 0 0 0 0 0 0 2 1
100 99 75 16 0 0 100 100 100 53 76 96 27 100 3 0 0 0 5 5 37 5 5 5 4 2 3 1 0 0 0 0 0 0 0 0 0 0 0 0 0 0 0 0 0 0 6
100 100 85 2 0 93 100 100 20 6 100 77 96 99 0 0 0 4 10 59 55 53 59 6 5 2 4 21 5 0 0 0 1 1 0 0 0 0 0 0 0 0 0 0 0 0 0
100 88 83 79 62 100 100 89 0 100 80 34 100 93 4 5 32 5 62 97 71 74 10 5 5 5 5 5 5 4 1 0 0 0 0 0 0 0 0 0 2 5 3 0 0 0 0
100 100 100 100 100 100 100 99 96 100 13 41 100 31 16 6 5 55 95 53 64 87 80 20 16 5 5 5 5 5 5 0 0 0 0 0 0 0 4 5 5 5 3 2 4 5 5
100 100 100 100 100 100 100 79 100 89 5 100 96 45 17 5 5 14 83 70 100 96 46 42 5 5 5 2 0 0 0 0 0 0 2 5 5 5 12 5 5 5 5 18 5 10 5
100 100 100 100 100 100 100 100 100 62 21 100 100 50 10 5 5 76 62 100 100 52 57 5 5 6 5 5 5 4 8 14 12 7 20 5 5 5 7 5 54 100 5 12 65 46 5
100 100 100 100 100 100 100 100 100 5 92 100 62 5 4 12 57 45 49 90 100 44 47 51 5 66 54 5 5 5 9 69 72 17 5 5 5 5 5 5 74 17 26 5 5 7 11
100 100 100 100 100 100 100 100 100 36 100 91 5 5 9 87 51 18 86 34 70 54 71 9 14 43 73 7 5 5 5 5 5 5 5 5 5 35 5 5 15 96 100 58 12 87 100
100 100 100 100 100 100 100 100 99 99 100 21 5 5 61 98 54 37 83 13 61 84 9 6 6 5 5 57 36 53 33 5 8 71 18 5 5 5 48 5 5 100 100 100 58 98 31
100 100 100 100 100 100 100 100 95 100 100 47 10 10 61 28 69 94 64 50 8 24 18 5 34 25 22 68 83 56 35 36 66 39 40 17 54 5 90 5 65 100 100 100 82 16 55
100 100 100 100 100 100 100 100 99 100 100 99 26 6 25 97 100 98 95 92 100 5 16 5 52 88 89 97 69 29 7 42 90 65 44 5 47 30 60 32 69 100 97 80 11 96 100
100 100 100 100 100 100 100 100 100 100 100 92 27 33 58 71 98 100 100 100 100 40 5 5 15 5 7 46 82 96 99 100 79 95 39 5 5 5 32 64 54 100 98 25 100 100 100

GFSGBSN_prec_cloud_027.txt.gz
Cloud_Cover
0 2 1 4 2 0 0 3 4 0 65 42 100 100 100 100 100 100 100 97 99 35 100 100 100 100 29 3 0 0 1 3 4 5 4 93 90 100 100 100 100 100 100 100 100 100 100
36 2 5 6 12 1 0 0 10 12 93 88 49 100 100 100 100 100 100 100 100 92 100 100 100 98 67 5 2 0 0 0 1 5 77 100 100 99 100 100 100 100 100 100 100 100 100
99 51 5 18 21 5 4 5 28 100 84 25 50 100 99 100 100 100 100 100 100 100 100 100 100 100 46 5 5 4 54 5 20 94 59 22 95 100 100 100 100 100 100 100 100 100 100
100 5 5 30 7 8 65 9 29 12 0 0 27 100 100 100 100 100 100 100 100 100 100 100 100 98 5 8 86 18 7 21 100 100 88 100 100 100 100 100 100 100 100 100 100 100 100
100 68 6 20 30 4 76 100 100 100 1 0 10 4 28 42 39 100 100 100 100 100 100 100 100 99 44 16 71 5 91 100 99 99 100 100 100 100 100 100 100 100 100 100 100 100 100
99 100 6 100 65 100 100 100 99 5 2 0 0 0 0 0 19 85 100 97 100 100 99 100 65 65 1 46 26 61 90 100 100 100 100 99 100 100 100 100 100 100 100 100 100 100 100
100 100 88 100 100 100 100 100 5 2 0 0 0 0 0 0 34 88 47 49 54 100 93 94 32 2 25 3 57 100 28 100 100 92 96 100 98 100 100 100 100 99 100 100 100 100 67
100 100 100 100 100 100 95 28 5 0 1 0 0 0 0 0 44 100 32 4 41 99 14 4 7 12 100 100 59 100 33 100 100 100 100 90 100 100 100 100 93 99 100 100 100 98 93
90 100 100 100 100 100 74 1 3 0 5 4 0 0 0 5 85 92 77 0 2 2 5 24 98 87 100 45 31 100 100 100 95 100 75 87 62 74 97 100 100 85 55 79 91 99 58
100 100 98 84 52 4 1 2 5 5 5 63 0 0 0 46 100 66 4 4 51 100 39 83 100 68 90 99 100 72 31 45 100 100 100 97 100 100 100 100 94 100 100 99 35 3 8
100 87 99 100 0 4 0 2 97 5 41 100 0 0 0 6 99 100 4 8 98 6 5 24 87 100 100 100 100 100 100 100 100 100 100 100 99 100 80 100 85 63 11 4 5 26 35
93 26 100 100 2 3 0 0 1 5 30 71 0 0 2 53 100 100 2 69 7 26 8 51 83 97 100 100 100 100 100 100 100 98 38 66 51 99 96 44 1 0 0 2 5 5 4
16 100 97 100 19 8 4 5 19 3 22 13 0 0 21 73 100 81 2 96 5 68 88 85 99 100 100 98 100 100 100 90 76 100 98 47 95 43 0 0 0 0 2 2 0 0 0
31 46 100 100 65 35 96 100 100 96 100 5 0 9 15 93 100 31 80 100 73 53 81 99 100 100 31 68 65 18 3 0 0 0 0 0 0 0 0 0 0 0 0 0 0 0 0
100 11 100 100 100 90 100 100 100 100 84 1 4 78 12 86 100 24 24 10 22 60 19 39 7 5 1 0 0 0 0 0 0 0 0 0 0 0 0 0 0 0 0 0 0 0 0
100 96 100 100 100 95 100 100 100 100 100 10 5 8 41 96 100 18 5 5 5 3 4 0 0 0 0 0 0 0 0 0 0 0 0 0 0 0 0 0 0 0 0 0 0 0 0
100 100 100 100 100 100 100 100 100 100 100 7 3 2 85 100 100 71 5 0 0 0 0 0 0 0 0 0 0 0 0 0 0 0 0 0 0 0 0 0 0 0 0 0 0 0 0
91 100 100 100 100 100 100 26 100 100 75 68 3 5 85 100 100 46 0 5 0 0 0 0 0 3 0 0 0 0 0 0 0 0 0 0 0 0 0 0 0 0 0 0 0 0 1
41 100 100 100 100 100 100 63 100 99 9 34 2 5 100 100 100 6 0 5 0 0 0 1 3 0 0 2 1 0 0 0 0 0 0 0 0 0 0 0 0 0 0 0 0 0 0
100 100 100 100 100 100 99 100 100 87 59 0 4 4 100 100 70 0 4 5 4 5 5 5 4 0 3 5 3 2 0 0 0 0 0 0 0 0 0 0 0 3 5 5 0 0 0
100 100 100 100 100 100 100 100 100 53 1 0 0 21 100 100 10 1 59 5 5 9 66 50 5 2 0 0 5 5 5 4 2 4 0 0 0 0 0 0 4 41 24 2 5 0 5
100 100 100 100 100 100 100 100 97 40 1 0 0 100 100 91 8 2 64 5 11 69 52 66 31 5 5 5 4 5 5 5 5 5 5 5 5 0 5 5 70 97 22 3 5 2 5
100 100 100 100 100 100 100 100 85 24 5 2 46 100 100 5 4 5 5 20 55 72 82 56 13 5 5 5 5 4 5 5 5 5 5 5 5 6 82 17 98 100 30 5 5 5 5
100 100 100 100 100 100 100 100 43 25 96 93 100 100 92 4 5 35 21 5 23 49 37 5 5 5 5 20 5 5 5 34 50 60 73 20 36 86 89 5 63 99 93 12 4 5 5
100 100 100 100 100 100 100 100 100 100 100 100 100 100 16 7 21 5 5 5 63 50 45 6 5 5 5 5 5 5 4 5 5 36 51 6 5 6 5 5 54 100 99 71 4 6 4
100 100 100 100 100 100 100 100 100 100 100 100 100 100 5 6 24 5 7 57 59 17 100 65 10 10 32 5 22 10 23 10 18 5 5 5 5 5 5 5 82 100 100 16 5 38 64
100 100 100 100 100 100 100 100 100 100 100 100 100 100 7 24 5 5 63 48 54 14 78 42 54 5 19 58 31 6 47 34 91 68 12 27 68 8 6 5 28 40 5 6 7 42 100
100 100 100 100 100 100 60 100 100 100 100 100 100 100 7 25 5 8 86 79 70 30 41 7 15 37 38 31 19 15 77 97 100 40 5 5 29 17 24 20 5 5 5 81 93 85 54
100 100 100 100 100 100 100 100 100 100 100 100 100 82 6 5 5 34 66 53 35 20 44 5 9 64 6 5 5 5 95 64 61 96 36 62 24 5 21 7 4 4 5 13 72 99 48

GFSGBSN_prec_cloud_030.txt.gz
Cloud_Cover
100 100 7 0 5 18 9 1 2 5 7 15 12 8 2 100 100 100 100 100 99 100 100 100 100 100 14 4 0 0 0 0 50 100 68 21 4 6 100 100 95 100 100 100 100 100 100
100 100 86 5 37 84 6 3 38 29 30 3 5 3 100 100 100 100 92 100 81 100 100 100 100 100 95 3 0 0 0 0 3 5 10 54 5 56 100 99 100 100 100 100 100 100 100
100 100 100 29 5 5 3 4 10 29 4 5 6 5 90 100 100 100 100 100 100 100 100 100 100 100 38 11 0 2 0 0 2 4 50 28 5 93 100 100 100 100 100 100 100 100 95
89 100 100 100 81 28 5 5 5 10 4 38 34 18 23 98 100 100 76 100 100 100 100 100 100 100 91 28 6 5 70 5 10 77 22 100 100 100 100 88 100 100 100 100 100 100 100
77 100 100 100 81 19 7 62 28 44 70 26 95 76 90 8 21 99 21 72 100 98 100 97 82 100 100 100 50 96 5 4 100 84 52 88 100 100 100 100 100 100 100 100 100 100 100
56 87 100 100 18 5 48 84 96 5 39 5 100 100 99 1 0 95 38 92 100 69 38 83 77 100 100 97 6 22 92 37 100 99 5 100 100 100 100 100 100 100 100 100 100 100 100
5 7 15 100 100 5 51 5 27 33 7 100 100 100 100 1 1 100 36 30 20 10 39 65 69 84 5 4 77 5 100 100 65 66 100 100 100 100 100 100 100 100 100 100 100 100 100
88 100 100 100 100 78 26 5 5 50 99 100 100 100 100 8 29 100 17 0 4 2 79 75 48 18 5 54 6 68 100 100 100 100 100 100 100 100 100 100 100 100 100 100 100 100 98
4 5 48 100 100 98 8 18 5 84 100 100 100 100 100 22 99 81 0 0 79 0 19 4 2 5 5 99 80 88 74 97 100 100 100 100 100 100 100 100 100 100 100 100 100 100 100
6 5 5 44 100 100 90 73 100 100 100 100 100 100 99 97 33 0 0 1 100 3 8 24 8 36 100 96 82 5 50 98 100 96 100 100 100 100 100 100 100 100 100 100 100 92 80
5 77 6 0 100 100 87 13 100 100 100 100 100 100 26 1 0 0 0 5 99 3 20 0 0 35 5 7 5 5 100 96 100 100 100 100 87 71 50 100 100 100 100 100 45 40 26
14 35 5 0 73 100 100 100 100 100 100 100 100 100 51 49 0 0 0 5 28 2 4 18 19 36 51 100 55 35 37 68 93 99 100 100 100 69 9 100 100 100 94 91 28 2 0
23 100 91 5 43 97 100 100 100 100 100 100 100 98 53 0 0 2 4 17 5 2 22 99 91 16 48 58 100 92 100 100 100 100 100 100 46 79 83 83 94 89 12 4 0 0 3
5 87 100 100 100 100 100 100 100 100 100 100 100 100 24 0 0 0 5 32 62 49 61 39 6 5 55 82 31 88 67 100 94 92 93 98 97 100 100 89 3 0 2 0 0 0 0
7 100 96 100 100 100 100 100 100 100 97 17 32 96 36 0 0 3 5 24 86 97 5 65 98 40 81 98 84 27 31 86 40 84 89 88 24 7 0 0 0 0 0 1 4 5 1
90 99 50 30 100 100 100 100 100 100 100 72 32 7 0 0 2 5 36 7 51 27 9 93 70 54 6 5 0 0 0 0 0 0 0 0 0 0 0 0 0 0 3 4 1 0 0
100 100 100 100 53 90 100 100 100 100 100 100 100 2 7 3 11 6 64 55 40 21 8 9 24 4 0 0 0 0 0 0 0 0 0 0 0 3 2 0 0 0 0 0 0 0 0
96 100 100 100 96 64 100 100 100 100 100 100 100 5 18 40 24 76 50 100 5 5 5 5 0 0 0 0 0 1 0 0 0 0 0 0 0 0 0 0 0 0 0 0 0 0 0
100 100 98 100 100 100 100 100 100 100 64 100 99 16 48 29 48 100 94 100 5 0 0 0 0 0 0 2 5 0 0 0 0 0 0 0 0 0 0 0 0 0 0 0 0 5 5
82 55 100 100 100 100 100 100 100 100 84 100 64 95 83 6 100 96 100 100 12 0 0 0 0 3 5 1 0 1 0 0 0 0 0 0 0 0 0 4 2 0 5 5 5 5 5
100 100 55 100 100 100 100 99 100 100 77 7 7 5 79 58 100 100 100 100 5 0 0 0 0 5 4 0 3 5 3 0 0 0 0 0 0 4 5 5 5 5 41 24 9 5 5
100 97 5 61 100 100 100 100 100 100 66 3 5 9 5 93 100 100 100 93 5 0 0 2 5 5 2 0 4 0 5 5 1 2 3 2 5 7 23 5 5 90 92 5 5 5 5
78 70 95 100 100 100 100 100 100 100 31 0 5 5 6 100 100 100 100 8 33 5 6 5 40 5 5 5 2 3 5 5 6 8 23 25 6 5 5 5 61 100 13 6 5 5 4
100 100 100 100 100 100 100 100 100 99 17 0 0 5 26 100 93 100 100 5 86 32 5 57 49 14 15 5 4 0 0 5 25 31 58 38 43 5 5 49 100 100 11 3 0 0 0
100 100 100 100 100 100 100 100 100 84 0 0 0 2 56 98 100 100 67 14 97 54 5 34 71 49 5 5 4 4 10 10 6 62 58 41 8 5 68 5 93 100 57 8 4 5 0
100 100 100 100 100 100 100 100 100 38 2 1 5 2 30 98 100 100 6 5 40 56 24 45 14 22 5 5 5 5 5 5 5 5 5 5 5 5 6 67 41 74 7 5 5 5 98
100 100 100 100 100 100 100 100 100 62 7 26 23 4 11 100 100 96 8 27 16 68 44 17 35 22 5 20 91 5 5 5 5 5 71 27 44 40 7 35 87 30 5 15 33 57 72
100 100 100 100 100 100 100 100 100 100 100 80 48 5 95 100 100 7 68 45 38 46 99 52 31 69 31 47 69 14 44 12 5 5 5 12 8 50 6 64 52 5 40 75 54 19 58
100 100 100 100 100 100 100 100 100 100 100 100 100 100 100 100 91 5 100 49 18 19 57 46 92 66 100 100 50 63 96 68 7 14 6 6 7 5 5 5 5 5 5 5 5 5 96

GFSGBSN_prec_cloud_033.txt.gz
Cloud_Cover
100 100 100 100 62 33 14 2 0 2 4 5 5 4 5 4 57 27 77 63 95 100 100 48 46 52 5 100 89 20 0 0 0 3 62 79 79 80 39 100 100 100 100 100 100 100 100
100 96 95 100 100 58 15 5 5 6 9 5 18 5 6 5 62 43 99 8 89 100 30 22 29 21 82 100 78 0 0 0 0 0 85 100 61 84 42 100 100 100 100 100 100 100 100
99 12 11 100 100 73 92 28 5 6 5 5 34 5 5 2 5 24 19 18 99 37 21 4 96 8 51 100 5 0 0 0 0 29 5 88 79 95 92 100 100 100 100 100 100 98 43
14 5 37 43 100 100 70 54 42 6 62 7 8 5 7 5 5 35 86 85 16 8 0 0 16 5 4 3 5 7 0 1 0 2 8 94 56 40 94 100 100 100 100 100 100 100 100
5 5 3 5 62 100 99 39 7 40 54 8 5 15 18 5 5 46 98 91 10 7 0 1 30 0 5 5 47 53 1 3 4 4 76 100 94 29 100 100 100 100 100 100 100 100 100
5 17 7 54 28 96 100 94 59 98 100 63 5 5 6 5 8 42 70 22 5 33 16 0 0 2 29 100 100 98 20 0 32 65 40 92 99 73 100 100 100 100 100 100 100 96 100
5 5 23 65 100 100 100 100 50 100 91 23 5 30 14 5 90 62 26 6 32 4 0 0 0 0 1 5 0 0 0 96 32 42 71 84 100 100 100 100 100 100 100 100 100 100 95
5 5 5 67 91 71 94 100 100 100 100 92 100 96 35 100 20 60 31 5 15 5 0 0 0 0 12 2 2 3 35 100 82 94 64 77 100 100 100 100 100 100 100 100 100 100 100
5 5 6 99 100 100 90 100 100 100 100 100 98 84 90 13 99 85 97 73 44 34 0 0 0 0 5 9 63 4 11 95 97 100 100 100 100 100 100 100 100 100 100 100 100 100 100
10 5 5 69 94 100 100 100 100 100 100 100 44 19 21 86 98 80 100 93 86 41 2 1 0 0 3 30 86 8 72 97 100 100 100 100 100 100 100 100 100 100 100 100 100 100 100
55 71 26 5 5 30 100 100 100 100 100 100 96 64 100 100 100 87 100 100 100 33 29 5 2 0 0 2 24 35 56 100 100 100 100 100 100 100 100 100 100 100 100 100 100 100 100
75 8 15 12 0 13 100 98 100 100 100 100 100 100 100 100 77 16 100 100 100 56 61 0 0 0 7 0 3 4 0 65 100 90 100 99 86 100 100 100 95 100 90 61 91 100 100
100 98 16 57 4 11 39 40 100 100 100 100 100 100 100 100 100 100 100 100 100 22 25 1 0 57 100 100 5 0 0 7 82 100 100 100 100 100 90 89 100 99 90 100 100 100 32
100 88 69 26 51 5 15 78 70 100 100 100 100 100 100 100 100 100 100 100 25 3 41 4 0 5 29 42 27 4 7 62 94 100 100 100 100 100 100 84 85 100 100 100 90 100 46
100 100 92 33 5 6 3 22 12 100 100 100 100 100 100 100 100 100 100 100 98 5 5 18 5 3 5 5 5 5 5 75 78 94 100 100 100 90 19 100 100 100 86 3 0 5 5
100 100 98 43 4 5 14 8 5 100 100 100 100 100 100 100 100 100 100 100 97 5 4 1 1 34 43 61 33 36 5 40 53 90 100 97 100 100 100 100 95 20 3 5 5 4 0
100 100 100 99 53 42 100 100 28 100 100 100 100 100 100 100 100 100 100 100 97 3 2 5 12 100 93 12 94 85 20 8 13 29 30 17 43 91 66 5 16 5 0 0 1 1 0
96 100 100 100 100 100 100 100 100 100 100 100 100 100 100 100 100 100 100 100 10 5 5 28 0 96 10 2 3 4 25 5 0 0 0 2 4 5 2 2 5 5 4 5 0 0 0
100 100 100 100 100 100 100 100 100 100 100 100 100 100 100 100 100 90 100 63 43 5 34 5 5 5 5 2 0 0 2 1 0 0 0 0 0 4 6 0 0 0 0 0 0 0 0
69 100 100 100 100 100 100 64 100 100 100 100 100 100 100 100 72 99 99 5 5 9 57 5 4 11 0 1 0 4 0 0 0 0 0 0 0 5 5 70 10 0 0 0 1 0 0
100 100 100 100 100 98 100 95 100 100 100 100 100 100 100 100 20 100 69 5 6 57 89 2 4 0 5 5 5 5 5 0 0 0 0 0 0 1 0 0 0 0 2 5 5 1 5
100 99 100 100 100 100 48 100 100 100 100 100 100 100 100 99 7 83 65 13 66 100 100 1 2 0 5 36 5 67 3 5 1 0 0 0 0 0 0 0 0 5 5 5 0 5 5
100 100 100 99 67 94 81 100 100 100 88 55 66 100 100 72 17 78 14 79 99 100 100 5 1 5 35 7 4 2 18 5 6 5 1 0 0 0 0 3 5 5 5 0 3 5 2
100 97 100 100 6 58 100 100 100 100 38 54 48 100 100 38 86 99 67 100 100 100 100 0 4 5 5 5 4 0 0 5 5 2 0 0 0 3 7 5 54 5 2 3 5 5 4
56 56 86 100 42 89 100 100 100 100 61 99 100 91 99 67 74 77 100 100 100 100 87 2 0 5 19 5 2 0 5 8 0 2 5 4 2 5 20 5 44 5 5 5 5 4 2
40 21 53 7 96 100 100 100 100 100 99 75 100 79 100 5 51 37 100 100 100 100 62 4 0 19 55 5 2 5 5 5 5 5 5 5 5 8 5 66 65 38 5 5 5 0 19
39 36 15 90 100 100 100 100 100 100 80 99 98 91 97 5 5 84 100 55 100 100 12 5 5 5 25 11 91 5 5 5 5 5 67 5 43 38 5 35 5 12 5 5 5 22 5
100 100 100 100 100 100 100 100 100 88 99 100 100 100 51 8 5 74 20 100 100 100 66 2 9 83 64 29 28 5 35 22 6 5 5 5 6 41 6 63 63 22 47 55 23 9 19
100 97 100 100 100 100 100 100 100 100 85 100 100 79 7 2 5 5 41 100 100 42 7 5 13 8 54 58 46 14 93 69 10 5 5 5 6 5 5 5 6 5 5 5 19 9 5

GFSGBSN_prec_cloud_036.txt.gz
Cloud_Cover
100 100 100 100 100 100 100 100 42 24 5 32 70 5 5 2 5 11 26 95 55 31 5 5 0 0 0 0 4 5 74 42 0 0 19 89 99 100 100 89 94 58 86 66 50 100 80
100 100 100 100 100 100 100 100 5 5 5 35 37 5 5 5 5 5 5 5 3 0 5 5 0 0 0 1 1 5 3 0 0 0 12 6 100 100 91 100 100 100 100 98 100 100 99
100 100 100 100 100 100 100 99 55 5 30 47 100 62 34 5 5 52 9 3 0 47 2 5 0 0 0 0 0 0 0 0 0 0 5 8 100 74 89 45 73 99 100 100 100 100 100
100 100 100 100 100 100 100 100 92 5 4 19 99 96 57 94 100 58 6 48 0 2 0 5 0 5 0 0 0 0 0 2 0 0 53 34 100 73 5 87 99 100 100 100 100 100 100
100 100 99 98 100 100 84 31 93 44 5 36 49 72 29 96 20 95 31 20 5 0 2 5 4 0 0 0 3 16 100 8 0 0 2 56 100 51 43 87 100 100 100 100 100 100 100
100 76 8 15 72 67 18 25 85 86 24 96 98 86 13 60 100 100 83 5 5 5 21 5 0 2 0 2 8 35 100 43 0 0 1 52 96 56 49 100 100 100 100 100 100 100 100
87 99 14 100 100 100 100 97 100 100 100 100 100 99 19 100 100 100 83 14 19 5 5 5 2 0 3 4 0 0 0 0 88 45 4 96 85 99 99 100 100 100 100 100 100 98 100
72 92 42 57 100 100 83 50 92 100 100 100 100 100 100 100 100 100 80 63 20 5 7 5 0 5 0 0 0 0 0 4 38 60 95 100 100 92 100 100 100 100 100 100 100 100 100
83 42 41 42 9 100 100 100 98 96 100 100 100 100 100 100 100 100 100 87 96 5 5 5 1 5 0 0 0 1 0 13 62 95 93 100 97 100 100 100 100 100 100 100 100 98 100
4 93 98 55 47 87 100 100 70 42 100 100 100 100 100 100 100 100 36 65 51 5 5 65 5 5 0 0 0 57 25 22 95 100 100 78 98 100 100 100 100 100 64 100 95 95 100
1 96 60 53 78 100 100 100 100 100 74 100 100 100 100 100 100 45 100 13 22 8 23 51 5 5 0 0 4 0 0 2 66 80 66 100 100 100 100 100 100 65 100 30 100 100 100
45 8 100 40 72 38 97 100 100 100 100 100 100 100 100 100 100 14 56 45 12 49 93 5 0 2 12 1 51 45 0 1 29 52 62 100 99 77 72 100 64 64 88 100 100 100 100
100 19 33 100 100 83 73 100 100 100 100 100 100 100 100 100 100 97 100 72 75 87 19 52 5 21 4 5 32 4 1 3 36 64 98 73 97 100 98 100 100 100 100 100 100 100 100
100 100 26 77 97 98 67 100 100 100 100 100 100 100 100 100 100 100 97 100 36 74 82 19 5 14 5 10 9 2 0 1 5 60 100 94 100 100 100 100 100 83 100 100 100 100 97
80 100 99 100 100 100 96 16 2 59 100 100 100 100 100 100 100 100 100 82 99 8 99 56 5 20 5 25 7 5 0 5 5 5 94 100 100 100 100 100 98 77 95 100 96 100 100
100 82 100 100 100 100 98 59 0 0 83 100 100 100 100 100 100 100 93 23 100 100 99 83 59 5 5 5 4 5 2 8 86 94 100 96 100 100 100 100 86 100 100 100 96 54 10
100 100 100 100 100 100 100 47 0 0 80 100 100 100 100 100 100 99 55 97 100 100 99 100 48 18 37 76 5 5 20 46 11 10 87 100 100 100 76 93 70 100 100 98 64 59 48
100 100 100 100 100 100 100 55 3 0 86 100 100 100 100 100 100 100 100 100 100 100 100 100 62 92 2 89 74 93 89 28 8 8 100 99 97 32 85 100 100 100 98 26 6 5 0
100 100 100 100 100 100 100 99 5 11 74 100 100 97 100 100 100 100 100 100 100 100 100 29 80 6 18 8 96 81 100 74 5 20 16 63 100 99 100 100 85 21 2 0 5 4 0
100 100 100 83 96 100 100 100 100 10 50 100 100 93 100 100 96 100 100 100 100 100 100 100 96 5 8 0 5 5 7 2 1 0 1 4 10 2 3 27 56 62 5 4 2 1 0
82 99 88 87 100 100 100 100 98 28 66 100 100 70 100 100 100 100 100 100 100 100 100 42 26 5 5 4 4 4 5 0 0 0 0 0 0 0 1 27 64 8 47 56 5 2 0
58 5 53 99 99 99 100 100 99 62 100 100 100 74 100 100 100 100 100 100 100 100 100 98 47 5 11 13 4 5 20 2 0 0 5 0 0 0 0 0 0 0 0 0 0 0 0
74 91 100 98 100 81 100 97 100 100 100 100 100 100 100 100 100 100 100 100 100 100 68 5 5 33 44 84 34 7 55 82 84 2 0 2 0 0 0 0 0 2 0 0 0 0 1
100 56 70 100 100 87 22 100 100 100 100 100 100 92 100 100 66 93 100 100 100 100 100 69 36 89 32 5 5 8 2 32 35 5 5 5 0 1 0 0 3 0 0 0 0 0 0
100 100 100 100 100 98 36 95 100 100 100 93 100 93 98 100 88 100 100 92 62 98 100 97 73 58 55 0 0 0 5 5 2 5 5 5 0 0 23 0 0 0 0 0 5 0 2
100 100 100 92 100 99 16 5 7 100 100 100 100 100 64 100 86 100 100 80 20 66 100 10 99 62 5 0 0 0 5 5 5 0 0 0 0 0 0 0 4 0 0 0 0 0 5
100 92 93 100 100 99 43 6 72 100 100 100 99 94 100 100 100 100 100 30 100 92 100 100 100 82 13 11 85 0 2 7 5 4 35 3 5 38 1 31 2 5 5 5 5 5 4
100 100 100 74 70 100 8 5 100 100 100 100 98 98 99 77 100 100 100 35 98 97 100 100 100 85 47 26 28 4 31 4 4 4 5 5 7 49 26 70 62 5 7 32 5 23 11
14 47 18 5 58 15 5 91 100 100 100 100 98 12 56 100 71 32 91 88 93 99 100 100 100 100 83 8 37 16 92 66 5 5 5 5 7 5 6 5 5 7 14 5 81 52 5

GFSGBSN_prec_cloud_039.txt.gz
Cloud_Cover
100 100 100 100 100 100 100 100 100 100 100 100 100 94 6 5 5 5 2 5 0 10 5 5 2 0 2 0 0 0 0 0 0 0 0 0 50 100 100 100 100 100 98 100 98 93 100
100 100 100 100 100 100 100 100 100 100 100 100 100 100 17 5 5 4 4 5 5 0 5 5 4 0 0 0 0 0 0 0 0 0 0 0 70 100 94 100 100 83 100 52 98 90 100
100 100 100 100 100 100 100 100 100 100 100 100 100 100 19 6 5 5 5 5 5 0 67 5 5 0 0 0 0 0 0 2 3 0 2 0 5 100 100 100 100 100 100 100 65 25 100
100 100 100 100 100 100 100 100 100 100 100 100 100 28 5 8 20 5 13 5 5 5 100 5 5 0 0 0 0 0 2 67 48 4 2 32 67 100 93 59 97 29 100 100 100 86 100
100 100 100 100 100 100 100 100 100 100 100 100 99 61 78 100 100 97 100 62 8 88 97 5 5 4 0 0 0 1 5 39 58 2 0 5 9 100 57 96 62 78 98 100 100 57 100
100 100 99 100 100 100 100 100 100 100 100 100 100 100 100 100 94 100 100 27 51 98 13 5 5 0 0 0 0 0 0 6 0 0 3 57 34 100 97 13 81 100 100 100 100 95 100
100 100 95 89 100 100 100 100 100 100 100 100 100 100 100 100 100 100 100 60 77 100 71 5 3 0 0 0 0 0 0 0 4 2 43 92 99 100 100 94 100 99 100 100 100 100 100
100 100 100 100 99 90 100 100 100 100 100 100 100 100 100 100 100 100 100 55 100 100 49 27 5 1 0 0 0 0 0 0 5 33 92 97 94 100 100 95 74 100 69 83 100 100 100
100 100 100 100 100 99 100 100 100 100 100 100 100 100 100 100 100 100 100 32 100 77 12 5 5 0 0 0 0 0 0 1 6 83 99 22 99 100 100 100 100 72 87 100 100 100 69
100 99 95 100 100 100 100 100 100 100 91 83 100 100 100 100 100 100 100 100 97 5 5 5 5 1 0 0 0 0 2 1 13 57 100 100 100 100 100 90 100 60 70 97 100 100 98
100 93 8 30 94 100 100 100 100 100 96 34 100 100 100 100 100 100 100 100 56 49 6 5 5 0 0 0 0 0 4 100 50 5 47 100 100 96 100 96 73 100 92 100 99 100 99
100 100 94 2 4 100 100 100 100 100 100 96 97 100 100 100 100 100 100 100 100 71 97 5 5 0 0 0 0 1 60 59 18 50 41 89 32 98 100 100 100 100 97 95 100 100 100
100 100 100 99 30 19 88 69 67 100 100 100 84 100 100 100 100 100 100 100 18 63 99 8 4 2 0 0 0 3 3 1 1 5 44 98 63 100 100 94 99 97 100 94 100 100 100
100 100 100 100 100 98 80 99 100 5 99 100 100 100 99 100 100 100 100 54 98 78 100 5 5 5 0 0 0 0 29 5 0 0 97 100 100 96 86 64 100 77 67 89 100 100 100
100 100 100 99 100 100 65 96 100 36 5 100 100 100 100 100 100 100 94 100 100 100 56 12 66 6 2 0 43 9 1 0 2 0 4 6 44 100 88 100 100 92 74 100 100 100 100
100 100 100 100 100 100 100 19 100 99 85 93 100 100 100 100 100 100 100 100 94 100 100 100 53 21 3 2 14 96 5 0 64 0 5 74 100 100 100 94 100 100 63 19 75 100 100
100 100 100 100 100 100 100 100 100 88 29 94 100 100 100 100 100 100 95 86 100 100 96 100 100 74 5 5 5 7 2 2 2 52 86 100 100 100 92 100 78 100 90 9 66 91 100
100 100 100 100 100 100 100 100 100 86 0 99 100 100 97 100 100 95 100 100 100 100 25 100 100 100 6 5 99 5 0 39 70 13 58 94 99 100 100 100 70 58 29 99 70 73 100
100 98 98 68 100 100 100 100 100 98 53 96 100 100 96 87 84 6 94 100 100 100 100 100 100 99 5 37 100 30 4 53 96 98 5 80 91 65 88 83 81 93 81 100 100 98 74
100 100 17 97 100 100 100 100 100 100 56 100 100 100 100 84 41 46 74 100 100 100 78 100 100 100 100 11 100 99 4 28 24 24 100 75 94 100 77 77 11 67 71 36 7 44 1
89 25 13 94 100 100 93 100 100 100 97 100 100 78 7 100 85 4 67 95 100 100 100 100 100 100 100 17 98 96 6 5 3 0 4 11 22 34 42 5 38 46 36 5 72 2 3
100 5 8 100 100 100 10 100 100 100 97 100 100 100 92 100 100 5 5 99 100 100 100 100 100 100 43 50 4 5 1 4 0 0 0 0 0 0 0 0 0 5 2 5 5 0 0
100 82 70 66 96 100 97 17 100 100 100 100 100 100 98 100 100 5 2 80 100 100 100 100 100 100 57 15 3 5 41 3 0 2 0 0 0 0 0 0 0 0 0 0 0 0 0
100 60 5 38 19 5 67 22 100 100 67 100 100 100 93 25 43 73 100 100 100 100 100 100 100 100 81 40 42 84 12 5 15 69 4 0 0 5 0 0 0 0 0 0 0 0 0
100 93 5 5 5 9 67 99 100 100 20 98 100 100 83 98 5 85 100 100 100 100 100 100 100 100 91 70 11 16 31 29 1 57 50 2 23 5 1 0 0 0 0 0 0 0 0
100 98 6 100 99 41 100 100 96 37 5 100 100 100 100 100 4 16 100 100 100 100 100 100 100 100 8 82 91 10 20 4 0 0 0 5 2 5 0 0 1 0 0 0 0 0 5
98 67 94 100 100 89 100 100 34 38 62 100 100 100 100 100 55 78 68 14 100 100 100 100 96 100 63 80 90 6 58 1 0 0 5 9 1 0 8 12 0 5 1 0 0 1 5
100 100 100 100 100 100 100 87 56 78 71 87 100 100 100 100 65 85 100 100 43 80 91 83 100 100 98 83 53 30 24 1 5 4 5 5 39 6 67 58 12 22 5 1 4 6 5
100 100 100 98 100 100 100 65 89 98 3 96 100 98 100 100 91 100 100 100 69 99 100 100 100 100 100 99 92 99 85 86 0 0 2 5 2 0 0 0 0 5 5 55 94 5 5

GFSGBSN_prec_cloud_042.txt.gz
Cloud_Cover
100 100 100 100 100 100 100 100 100 100 100 100 100 100 100 100 100 100 100 5 5 0 4 5 21 1 0 4 0 0 0 0 0 0 0 0 90 63 100 35 86 100 100 100 100 100 100
100 100 100 100 100 100 100 100 100 100 100 100 100 100 100 100 100 100 100 5 5 5 5 5 14 5 0 5 0 0 0 0 0 2 0 0 5 88 100 100 100 100 100 62 98 100 100
100 100 100 100 100 100 100 100 100 100 100 100 100 100 100 100 100 100 100 5 5 5 89 5 5 5 0 5 0 0 0 0 0 4 0 0 2 100 100 100 100 100 100 100 100 100 100
100 100 100 100 100 100 100 100 100 100 100 100 100 100 100 100 100 100 95 5 7 73 46 5 5 5 0 0 0 0 0 0 5 5 0 77 90 81 99 87 100 100 96 100 100 76 100
100 100 100 100 100 100 100 100 100 100 100 100 100 100 100 100 100 100 99 73 99 100 32 5 10 5 4 0 0 0 0 0 5 2 0 5 38 51 100 100 92 100 100 94 100 100 100
100 100 100 100 100 100 100 100 100 100 100 100 100 100 100 100 100 100 100 75 83 100 7 6 61 12 5 0 0 0 0 0 0 0 0 1 0 62 100 69 100 100 92 100 100 100 100
100 100 100 100 100 100 100 100 100 100 100 100 100 100 100 100 100 100 96 100 21 100 56 13 30 38 5 0 0 0 0 0 0 0 2 5 6 76 100 100 100 100 100 100 100 100 100
100 100 100 100 100 100 100 100 100 100 100 100 100 100 100 100 100 100 100 47 13 100 82 62 78 38 5 0 0 0 0 0 0 0 5 62 5 16 100 100 93 80 48 100 100 91 93
100 100 100 100 100 100 100 100 100 100 100 100 100 100 100 100 100 100 95 5 92 90 84 26 98 10 3 0 0 0 0 0 0 2 20 7 11 97 100 100 74 64 92 90 97 100 100
100 100 100 100 100 100 100 100 100 100 100 100 100 100 100 100 100 100 85 8 73 8 5 68 95 21 4 0 0 0 0 0 0 0 6 5 50 86 100 90 94 100 71 73 100 100 100
100 100 100 100 100 100 100 100 100 100 100 100 100 100 100 100 100 94 23 15 7 65 100 65 100 30 5 0 0 0 0 0 0 0 23 56 46 100 100 100 98 97 93 97 99 99 100
100 100 100 100 100 100 100 100 100 100 100 100 100 100 100 100 100 12 45 100 41 85 38 80 100 7 5 0 0 0 2 0 0 5 4 5 100 100 77 90 96 62 100 100 100 100 100
100 100 100 100 100 100 98 100 100 100 100 100 100 100 100 100 99 94 94 98 27 96 96 72 99 34 5 5 2 0 0 0 4 4 24 10 97 96 88 100 97 99 100 96 84 99 25
6 100 100 100 100 100 100 100 74 100 98 100 100 91 100 100 81 39 100 78 97 75 100 100 27 5 12 5 0 0 0 0 0 1 13 80 83 55 74 74 86 92 95 96 100 89 5
2 96 89 100 100 100 100 100 100 100 100 5 39 100 100 100 92 54 86 100 13 100 100 17 4 41 22 5 2 0 1 0 0 0 2 58 52 95 100 65 100 92 52 50 72 100 37
4 22 100 100 100 96 100 100 100 100 100 60 32 100 100 100 94 40 99 9 99 100 76 4 27 35 5 4 5 0 5 0 0 0 0 30 52 5 51 77 99 95 100 98 80 80 71
7 40 100 100 100 100 59 100 100 100 100 100 66 100 100 99 100 74 100 72 97 100 31 5 15 5 5 5 5 1 5 4 2 0 2 96 80 5 66 90 98 60 96 100 98 92 59
98 5 72 100 100 100 94 52 100 100 100 100 100 100 91 45 100 88 99 97 99 100 29 14 5 78 71 5 5 1 5 7 3 0 0 73 44 5 96 92 100 100 62 69 100 77 50
88 5 40 81 100 100 100 89 100 100 100 100 100 100 71 100 100 5 60 100 100 100 100 100 100 100 53 5 5 5 52 10 46 1 0 5 3 5 19 9 5 66 99 85 61 71 100
100 35 23 97 100 100 100 14 100 100 100 47 100 100 100 100 60 49 5 91 100 100 100 100 100 100 49 10 91 99 100 25 92 20 66 72 89 17 8 82 5 8 100 51 72 100 90
100 94 89 100 98 100 100 14 100 100 100 52 100 96 24 100 99 100 93 78 100 63 45 89 59 97 98 100 100 83 4 28 5 23 100 97 99 100 100 100 100 98 100 100 78 29 17
100 100 100 100 14 97 59 42 100 100 100 100 100 80 5 8 84 82 88 5 100 100 100 97 100 100 100 100 96 6 100 37 5 3 5 92 5 3 5 3 5 18 65 34 15 5 2
100 100 100 59 52 24 22 98 100 100 100 100 100 100 90 4 56 88 12 50 99 100 100 93 100 100 56 100 100 100 100 64 5 3 4 4 1 0 0 0 0 0 0 0 0 5 37
100 100 100 34 5 6 100 100 100 100 100 88 100 100 100 14 68 37 88 100 100 38 100 100 100 100 100 100 100 90 100 4 0 1 2 5 0 0 0 0 0 0 0 0 0 0 0
100 100 100 24 29 67 85 100 100 100 100 100 100 100 100 43 5 50 52 97 15 100 67 100 100 100 100 100 94 100 100 18 5 45 5 75 84 4 0 1 0 0 0 0 0 0 0
100 100 100 10 5 5 86 33 80 96 100 98 100 100 100 95 24 3 62 5 2 4 26 95 100 98 66 100 100 100 100 56 44 33 24 19 93 5 19 5 5 0 0 0 0 0 5
100 100 36 100 100 8 5 5 5 5 89 95 93 100 100 100 5 5 0 0 5 87 36 100 100 100 100 100 100 100 100 22 5 1 5 8 28 2 17 5 5 1 0 0 2 36 11
100 100 86 83 87 5 5 5 2 100 100 100 100 100 100 100 80 42 2 0 5 30 29 100 100 100 96 100 100 100 100 5 5 5 1 7 20 3 15 6 25 2 0 4 34 50 5
100 100 100 100 95 55 5 16 5 100 100 99 100 100 100 100 100 70 13 1 0 5 96 100 98 100 100 100 100 100 66 56 5 5 5 5 5 5 2 5 8 5 5 5 5 5 5

GFSGBSN_prec_cloud_045.txt.gz
Cloud_Cover
68 80 79 100 100 100 100 100 100 100 100 100 100 100 100 100 100 100 100 100 100 100 100 95 23 2 2 0 0 0 0 0 0 0 0 0 0 0 5 67 97 100 93 80 88 100 100
100 88 100 100 100 100 100 100 100 100 100 100 100 100 100 100 100 100 100 100 100 100 100 100 24 5 4 0 0 0 0 0 0 0 0 0 0 13 3 100 69 98 53 96 100 100 100
100 100 39 82 100 100 100 100 100 100 100 100 100 100 100 100 100 100 100 100 100 100 100 100 14 5 5 0 0 0 0 0 0 0 0 0 0 8 81 100 79 100 100 100 100 100 100
100 30 100 66 100 99 100 100 100 100 100 100 100 100 100 100 100 100 100 100 100 100 100 100 5 5 2 0 0 2 0 0 0 0 0 0 0 3 100 100 94 82 100 100 100 100 100
100 100 100 100 96 99 22 100 100 100 100 100 100 100 100 100 100 100 100 100 100 100 100 38 40 5 2 0 0 0 0 0 0 0 0 0 0 5 27 100 100 100 99 94 100 100 100
100 100 100 100 100 100 91 96 100 100 100 100 100 100 100 100 100 100 100 100 100 100 100 27 94 5 2 0 0 0 0 0 0 0 0 0 0 5 23 82 100 99 100 100 99 85 100
100 100 100 100 93 100 100 73 81 100 100 100 100 100 100 100 100 100 100 100 100 100 100 43 47 5 5 0 0 0 0 0 0 0 0 0 0 1 56 62 90 100 100 100 100 100 100
100 100 100 100 100 100 100 100 90 96 100 100 100 100 100 100 100 100 100 88 100 100 69 91 44 5 5 2 0 0 0 0 0 0 0 0 0 0 20 98 21 100 100 100 100 98 72
100 100 100 100 100 100 100 100 100 61 100 100 100 100 100 100 100 100 100 100 100 94 100 80 36 5 44 0 0 0 0 0 0 0 0 0 0 0 5 49 80 100 97 100 100 100 100
100 100 100 100 100 100 100 100 100 100 79 100 100 100 100 100 100 100 100 100 100 100 100 99 29 67 20 5 0 0 0 0 0 0 0 0 0 21 84 82 23 10 100 84 98 100 99
5 100 100 100 100 100 100 100 100 100 100 100 100 100 100 100 100 100 100 100 100 100 100 84 7 100 5 5 0 0 0 0 0 0 0 3 3 7 35 82 100 75 100 100 95 100 100
5 2 100 100 100 100 100 100 100 100 100 100 100 100 100 100 100 100 100 100 100 100 100 100 100 100 9 2 2 0 0 0 0 0 0 0 2 5 6 20 99 100 100 99 12 87 93
44 5 4 100 100 100 100 100 100 100 100 100 100 100 100 100 98 100 100 100 100 100 100 100 100 84 3 0 5 0 0 0 0 0 0 5 58 3 5 26 55 58 100 100 100 71 69
100 5 4 7 100 100 100 100 100 100 100 100 100 100 100 100 98 73 100 100 100 100 100 100 93 6 5 3 5 0 0 0 0 0 0 8 39 9 48 8 42 21 96 96 100 91 28
100 74 5 2 32 100 100 100 100 100 100 100 100 100 100 100 100 13 99 100 92 100 100 100 82 5 4 5 5 5 0 0 0 0 0 5 25 36 22 100 99 78 39 99 13 5 51
100 100 37 4 2 100 100 100 100 100 100 100 63 100 100 100 100 96 89 100 77 100 100 96 100 16 6 6 2 5 0 0 0 0 0 2 14 14 5 67 50 22 53 39 8 32 9
100 100 100 10 2 18 100 100 100 100 100 100 90 96 100 100 100 100 70 100 100 100 100 100 100 100 75 6 5 5 2 0 0 0 0 1 20 36 5 4 100 49 91 45 10 31 59
100 100 100 80 36 5 36 100 100 100 100 100 83 72 90 100 100 100 73 100 100 100 97 98 100 100 73 82 5 66 2 0 5 0 0 0 0 5 5 13 5 10 7 99 92 100 18
100 100 100 100 89 32 17 100 100 100 100 100 100 74 95 13 89 100 100 100 100 100 100 100 100 100 70 24 82 73 4 3 5 0 0 0 1 3 5 4 4 5 83 100 100 93 54
100 100 100 100 100 92 98 100 100 100 100 100 100 78 100 100 2 6 83 100 100 100 100 100 100 100 56 8 8 68 12 14 12 3 3 0 5 5 5 3 4 6 6 16 24 86 13
100 100 100 100 100 100 100 100 98 100 100 100 98 87 41 100 89 44 27 100 100 100 100 100 96 63 100 94 99 100 76 69 5 5 5 2 0 2 38 5 11 5 9 5 5 5 13
100 100 100 100 99 100 100 100 100 100 100 100 100 66 59 89 51 96 21 57 100 100 100 100 100 100 100 100 100 100 96 5 5 19 5 4 5 5 48 5 16 58 75 51 14 15 50
100 100 100 100 100 100 99 94 100 100 100 100 99 89 45 23 59 100 33 29 100 100 100 100 100 100 100 100 100 100 81 48 81 38 4 86 20 3 4 3 22 41 22 0 0 0 0
100 100 100 100 100 100 99 99 100 98 27 100 98 23 100 25 90 10 5 100 100 100 100 100 100 100 100 100 100 100 77 91 33 39 71 5 5 5 3 4 0 0 0 0 0 0 0
100 100 100 100 100 100 100 100 54 18 63 100 99 63 100 96 8 34 47 6 100 100 100 100 99 100 100 100 99 100 42 41 98 96 5 3 0 0 2 4 0 0 0 0 0 0 0
100 100 100 100 100 100 100 47 51 4 43 100 100 24 100 100 32 4 62 7 99 100 100 30 73 100 100 89 93 21 88 100 100 100 5 3 1 2 20 17 5 0 0 3 4 5 5
100 100 100 100 100 100 100 18 4 5 77 100 100 100 100 100 95 44 4 5 20 100 100 100 100 100 100 96 93 74 98 100 100 100 8 6 20 1 22 75 48 0 0 14 5 1 0
100 100 100 100 100 100 58 16 33 88 100 100 100 100 100 100 67 52 24 5 4 2 2 27 100 97 100 31 96 98 100 100 100 99 85 2 14 0 0 3 17 0 1 3 0 0 0
100 100 100 100 100 100 65 21 5 100 100 100 100 100 100 100 100 81 0 0 4 1 0 5 61 71 100 100 100 100 100 100 100 100 54 5 0 2 3 5 20 5 0 0 5 5 2

GFSGBSN_prec_cloud_048.txt.gz
Cloud_Cover
100 100 100 75 61 100 100 100 100 100 100 100 100 100 99 100 100 100 100 100 100 100 100 100 100 100 100 100 100 5 0 0 0 0 0 0 0 0 0 4 1 6 100 100 100 100 80
100 100 100 100 100 100 85 5 7 10 71 100 100 100 100 100 100 100 100 100 100 100 100 100 100 100 100 100 100 10 5 0 0 0 0 0 0 2 6 5 32 100 49 45 100 100 100
100 100 100 100 100 100 58 44 5 5 41 100 100 100 100 100 100 100 100 100 100 100 100 100 100 100 100 99 100 7 5 2 0 0 0 0 0 0 38 26 92 81 76 100 100 100 100
100 100 100 100 100 77 100 93 82 6 5 86 100 100 100 100 100 100 99 100 100 100 100 100 100 100 100 9 40 5 5 5 0 0 0 0 0 0 8 62 92 84 84 96 96 91 91
100 100 100 100 100 100 100 100 93 35 12 24 70 100 100 100 100 100 100 100 100 100 100 100 100 100 7 5 56 5 1 6 0 0 0 0 0 0 2 8 100 47 40 50 100 100 100
100 100 100 100 100 100 100 99 100 43 18 96 33 95 100 100 100 100 100 100 100 100 100 100 100 95 5 10 83 5 0 5 0 0 0 0 0 0 0 4 100 100 100 94 100 89 100
100 100 100 100 100 100 100 100 100 100 34 5 100 14 49 100 100 100 100 100 100 100 100 100 100 76 22 51 97 16 0 5 0 0 0 0 0 0 0 4 89 95 100 100 100 100 99
10 100 100 100 99 72 100 100 100 100 100 8 36 92 37 100 100 100 100 100 100 100 100 100 100 75 96 100 100 5 5 5 0 0 0 0 0 0 0 5 55 44 55 100 100 100 94
14 26 74 100 100 100 100 100 100 100 100 65 50 100 93 100 100 100 100 100 100 100 100 97 98 98 99 100 91 27 27 5 0 0 0 0 0 0 0 29 37 17 70 94 90 92 100
5 5 2 29 100 100 100 100 100 100 100 100 78 73 100 100 86 100 100 100 100 100 100 100 45 58 100 100 98 8 5 1 0 0 0 0 0 0 0 0 6 97 82 87 52 100 100
6 15 5 0 48 100 100 100 100 100 100 100 100 99 99 100 98 55 100 100 100 100 92 98 12 100 100 100 83 5 6 2 0 0 0 0 0 12 5 67 6 100 93 98 84 75 100
90 21 5 5 2 12 100 100 100 100 100 100 100 100 50 81 100 59 100 100 100 100 100 100 100 100 100 100 100 10 56 1 0 0 0 0 0 1 5 4 4 94 100 100 100 96 100
29 34 95 72 5 0 83 100 100 100 100 100 100 100 83 100 100 46 100 99 100 100 100 100 100 100 100 100 100 97 53 5 0 0 0 0 0 2 0 0 3 5 94 99 55 100 100
66 77 97 95 90 5 2 100 100 100 100 100 100 100 100 100 100 100 100 99 100 100 100 100 100 100 100 100 100 99 50 40 2 0 0 0 0 5 0 0 3 96 46 63 99 100 98
100 100 100 99 100 72 1 94 100 100 100 100 100 100 100 100 100 100 100 100 100 100 100 100 100 100 100 100 100 100 96 90 6 0 0 0 0 7 12 9 5 5 6 32 10 81 98
100 100 100 100 100 100 4 4 100 100 100 100 100 100 63 100 100 100 100 100 100 100 100 100 100 100 100 100 99 56 88 71 53 5 0 0 3 10 82 28 71 12 5 5 5 30 75
100 100 100 100 100 100 28 2 83 100 100 100 100 100 5 100 100 100 100 100 100 100 100 92 100 100 100 100 96 77 98 77 35 5 0 0 0 5 5 15 84 49 5 5 5 61 78
100 100 100 100 100 100 95 5 5 81 100 100 100 94 4 12 100 100 100 100 100 100 100 100 49 100 100 100 35 16 100 76 5 5 5 0 0 1 5 5 5 5 5 5 27 48 45
100 100 100 100 100 100 100 9 7 100 100 100 100 94 98 6 87 87 53 100 100 100 100 100 100 99 88 100 86 80 100 47 5 5 5 0 0 0 1 4 4 5 4 5 5 11 38
77 100 100 100 100 100 100 100 74 100 100 100 100 99 100 100 0 3 10 87 100 100 100 100 100 100 96 100 100 98 100 8 5 5 3 42 19 0 0 0 1 3 0 4 4 22 52
88 100 100 100 100 100 100 100 100 75 100 100 100 100 31 100 58 2 4 26 100 100 100 100 100 100 100 100 100 100 100 78 62 5 11 78 39 4 0 1 5 5 4 50 40 4 6
85 100 100 100 100 100 100 100 100 100 100 100 100 89 71 11 4 53 6 30 100 100 100 100 100 100 100 100 100 100 100 100 51 5 49 66 57 3 0 0 4 1 2 6 5 5 5
100 100 100 100 100 100 100 100 100 100 100 100 99 95 6 69 46 60 5 5 100 100 100 100 100 100 100 100 100 100 100 99 6 7 5 5 37 6 4 55 92 3 53 60 5 5 5
100 100 100 100 100 100 100 100 100 47 53 69 100 85 49 62 88 16 2 5 100 100 100 100 100 100 100 100 100 100 100 100 81 79 23 20 98 30 76 99 5 0 0 0 0 0 0
98 100 100 100 100 100 100 100 100 99 89 81 57 96 41 54 47 8 59 5 6 100 100 100 100 100 100 100 100 100 93 66 64 32 63 99 100 49 96 5 5 5 0 0 0 0 0
99 100 100 100 100 100 100 100 100 100 96 94 75 100 89 100 14 10 74 91 5 100 97 100 100 100 100 100 98 80 100 100 100 100 99 100 100 57 10 4 5 5 0 0 0 0 0
100 100 100 100 100 100 100 100 100 100 100 79 97 100 100 100 19 17 12 5 28 100 100 100 100 100 100 100 100 100 100 100 100 99 100 100 71 78 18 3 5 5 97 20 2 1 0
100 100 100 100 100 100 100 100 100 100 95 64 7 100 100 100 100 78 23 5 5 5 64 87 100 84 96 91 100 100 100 100 100 100 100 100 65 6 5 2 9 6 3 1 0 0 0
100 100 100 100 100 100 100 100 100 100 70 35 54 100 100 100 100 100 66 25 3 0 6 14 93 73 86 100 100 100 100 100 100 100 100 100 89 78 5 5 13 5 0 0 1 4 4

GFSGBSN_prec_cloud_051.txt.gz
Cloud_Cover
100 100 100 100 100 100 92 89 74 90 100 100 99 100 100 100 100 93 100 100 100 100 100 100 100 100 90 100 99 100 24 60 57 18 3 0 0 0 0 0 0 0 10 73 100 70 93
100 100 100 100 100 100 100 92 33 22 76 96 98 100 99 88 100 100 100 86 91 100 100 100 100 100 100 100 100 79 6 54 37 5 0 0 0 0 0 0 1 5 63 93 99 98 100
100 100 100 100 100 100 100 100 100 71 100 100 100 100 100 84 88 100 100 87 92 100 100 100 100 100 100 100 92 5 5 5 6 5 2 0 0 0 0 0 1 5 5 17 18 67 100
100 100 100 100 100 100 100 100 100 100 100 100 100 100 100 72 100 100 97 95 100 65 100 100 100 100 100 100 95 54 6 5 8 5 0 0 0 0 0 0 0 2 9 76 6 95 100
100 100 100 100 100 100 100 100 100 100 100 100 100 100 100 100 100 100 100 99 100 92 100 100 100 100 100 99 59 100 25 22 67 2 0 2 0 0 0 0 0 0 5 45 77 100 100
100 100 100 100 100 100 100 100 100 100 100 100 100 100 96 61 100 99 88 68 99 100 100 100 100 100 100 82 100 100 8 82 96 0 2 1 0 0 0 0 4 5 71 60 65 90 100
80 100 100 100 100 100 100 100 100 100 100 100 100 90 95 95 89 100 78 95 84 100 98 87 100 100 100 47 85 100 77 100 63 2 1 0 0 0 0 0 1 5 7 100 99 100 100
79 37 6 41 100 100 100 100 100 100 100 100 100 100 100 100 86 100 100 36 100 100 100 88 100 100 100 99 100 100 100 100 57 5 0 0 0 0 0 0 0 5 24 100 100 100 100
83 67 51 48 68 100 100 100 100 100 100 100 100 94 100 100 97 73 62 11 83 38 92 100 100 100 81 84 86 100 100 100 56 5 0 0 0 0 0 0 1 5 46 100 21 77 100
38 16 6 5 14 4 58 100 100 100 100 100 100 100 5 60 70 37 6 5 45 44 73 100 100 100 80 96 88 85 100 100 98 5 1 0 0 0 0 0 0 1 41 83 84 74 97
72 94 91 96 94 57 4 30 100 100 100 100 100 100 38 51 37 64 5 77 5 12 54 100 100 100 100 100 81 100 100 100 98 7 5 3 0 0 0 1 1 6 51 25 95 68 67
72 5 3 1 5 5 5 2 98 100 100 100 100 100 36 43 97 69 10 100 21 68 78 100 100 100 100 100 71 100 100 100 99 17 19 5 0 0 0 1 1 4 17 35 47 47 98
100 100 79 64 83 79 30 5 1 100 100 100 100 100 96 5 84 19 50 63 84 99 88 100 100 94 79 47 95 100 100 100 100 51 42 5 0 0 0 1 5 5 71 26 12 38 100
100 100 100 87 99 90 100 98 5 1 100 100 100 100 100 0 100 22 25 96 99 0 98 100 100 100 98 100 100 100 100 100 100 82 60 5 4 0 0 2 1 5 21 72 65 5 39
100 100 100 100 100 91 100 100 99 5 25 100 100 100 100 5 86 83 89 99 5 3 96 100 100 100 100 100 100 100 100 100 100 26 74 5 5 0 5 5 2 5 5 51 51 79 100
99 99 94 100 100 100 100 100 100 56 1 100 100 100 100 65 100 100 100 74 5 57 88 100 100 100 100 100 100 100 100 100 99 9 20 5 5 1 5 28 32 5 21 95 33 85 100
75 98 99 100 100 100 100 100 100 74 34 100 100 100 100 100 100 100 100 68 8 67 6 100 100 100 100 100 94 100 100 100 100 12 21 5 4 5 5 5 25 50 59 100 29 24 65
67 3 20 99 100 100 100 100 100 92 57 100 100 100 98 5 100 100 61 9 50 94 72 100 100 100 100 100 100 100 100 100 80 45 42 5 5 0 5 49 31 5 38 81 10 5 18
95 88 4 2 91 100 100 100 100 100 34 100 100 98 100 1 89 74 9 5 100 100 100 100 100 100 100 100 100 100 100 100 100 96 95 42 15 0 0 4 5 5 43 90 13 5 37
100 100 75 68 20 100 100 100 100 100 97 100 100 100 100 81 5 0 48 5 100 100 100 100 100 100 100 100 100 100 100 100 100 75 27 83 43 0 0 1 1 38 100 44 4 0 64
100 100 100 100 56 100 100 100 100 100 100 98 100 94 28 100 100 1 2 0 41 100 97 100 100 100 100 100 100 100 100 100 100 6 6 51 50 0 0 4 4 0 0 0 0 5 5
100 100 100 100 51 100 100 100 100 100 100 100 100 86 5 84 91 80 5 3 5 100 45 100 100 100 100 100 100 100 100 100 81 91 100 90 69 2 5 5 1 0 0 0 3 5 34
100 100 100 100 32 100 100 100 100 100 100 100 95 4 2 6 100 97 5 5 5 100 70 100 100 100 100 100 100 100 100 100 100 100 100 6 11 5 1 3 5 8 0 0 0 5 5
34 100 100 100 15 100 100 100 100 100 82 100 96 5 5 45 96 24 3 55 5 95 100 100 100 100 100 100 100 100 100 100 100 100 99 96 16 5 17 39 50 0 0 0 2 0 0
100 100 100 100 63 100 100 100 100 100 100 100 18 36 5 95 23 5 15 0 35 70 100 100 100 100 100 100 100 100 100 100 100 100 100 80 52 41 5 12 8 6 0 0 3 5 0
100 100 95 97 100 100 100 100 100 100 100 100 100 91 51 78 15 5 58 24 5 89 98 100 100 100 100 100 100 100 100 100 100 100 100 100 100 68 5 44 68 20 1 0 0 4 0
100 100 100 100 100 100 100 100 100 100 100 100 98 100 98 97 98 82 32 5 29 100 100 94 100 100 100 100 100 95 100 100 100 100 93 100 100 94 99 83 87 100 10 0 0 5 2
100 100 100 100 100 100 100 100 100 100 100 100 100 100 100 94 53 85 32 35 42 96 99 100 100 100 54 99 100 100 100 91 100 100 100 100 100 100 99 74 94 100 5 0 0 0 33
100 100 100 100 100 100 100 100 100 100 100 100 100 100 100 84 81 100 97 84 13 42 97 100 100 100 99 100 100 100 100 100 100 100 100 100 100 100 86 97 100 18 55 2 0 5 5

GFSGBSN_prec_cloud_054.txt.gz
Cloud_Cover
100 100 100 100 100 100 100 100 96 40 97 89 93 100 100 100 100 100 97 28 24 55 92 100 79 100 100 95 73 97 93 98 27 5 3 2 3 0 0 0 1 0 1 18 91 100 41
100 100 100 100 100 100 100 100 100 100 70 100 74 5 20 100 100 100 100 100 94 34 43 99 56 94 100 46 17 100 100 97 5 5 5 5 0 0 0 0 0 0 0 100 5 95 90
100 69 100 100 100 100 100 100 100 100 100 17 46 64 13 41 100 100 100 100 100 63 100 100 5 7 40 6 92 100 100 72 19 69 6 5 0 0 0 0 0 0 1 7 28 54 86
100 99 32 100 100 100 100 100 100 100 100 100 99 89 54 90 100 92 100 100 95 5 94 100 40 10 97 5 72 100 100 15 56 70 73 20 4 0 0 0 0 3 4 100 6 42 92
100 100 80 50 100 100 100 100 100 100 100 100 100 98 53 28 95 100 100 100 100 90 95 99 42 5 5 6 48 100 100 5 16 85 100 5 3 0 0 0 0 0 100 88 54 100 96
100 92 100 100 94 100 100 100 100 100 100 100 100 100 78 77 100 100 100 100 100 100 100 98 93 41 5 10 49 78 84 73 5 99 100 16 4 0 0 0 1 18 83 96 100 100 100
100 100 98 79 91 100 100 100 100 100 100 100 100 100 100 100 100 100 100 100 100 100 8 7 50 86 16 5 19 24 84 61 71 100 100 52 5 0 0 0 0 0 2 100 54 71 76
68 74 100 100 84 5 84 100 100 100 100 100 100 100 100 100 100 100 100 100 100 96 30 11 92 92 100 97 92 100 92 97 86 96 100 99 9 0 0 0 0 0 2 8 78 94 95
31 24 17 58 76 22 32 7 76 100 100 100 100 100 100 100 100 100 100 100 58 97 77 8 29 78 92 61 95 100 100 100 18 98 100 100 9 3 1 0 0 2 2 13 89 92 100
69 75 5 5 8 53 90 96 98 26 100 100 100 100 100 100 100 100 66 92 28 61 49 97 5 83 5 93 100 93 100 38 98 100 100 100 54 5 5 1 0 5 1 5 6 5 100
44 100 100 21 5 5 91 30 19 14 95 100 100 100 100 100 88 27 9 63 100 92 61 50 5 5 5 100 100 91 84 75 100 98 100 100 93 5 5 1 0 5 0 0 5 92 95
85 93 80 88 99 23 50 5 52 16 3 46 100 100 100 100 100 52 5 56 6 48 5 5 2 5 5 100 100 100 61 64 100 100 100 100 77 5 5 1 0 0 0 4 9 21 100
5 5 11 86 66 87 84 5 19 70 81 41 88 100 100 100 14 24 39 59 5 1 0 0 2 5 5 100 100 100 100 100 98 99 100 100 38 5 5 4 0 0 8 95 100 95 100
98 99 18 6 16 94 27 99 31 22 10 3 99 100 100 100 100 98 98 72 2 0 0 0 4 3 5 85 100 100 100 100 100 100 99 100 76 5 5 5 5 5 51 100 100 97 99
5 96 100 90 58 64 100 100 72 100 100 14 29 89 40 100 87 100 100 66 0 1 3 2 8 81 3 39 100 100 100 100 100 100 100 100 60 5 5 5 5 12 4 70 83 14 10
97 100 100 100 100 73 84 100 98 91 100 100 22 100 65 84 71 100 100 3 0 0 0 0 5 38 5 89 100 100 99 100 100 100 95 100 72 6 5 5 5 5 66 49 89 96 99
100 100 100 100 95 95 98 94 99 93 100 100 38 100 100 4 97 100 100 3 0 3 5 3 5 36 52 95 100 100 100 100 100 100 100 100 93 27 5 5 30 8 5 8 96 97 100
100 100 100 100 100 100 94 94 100 100 100 100 97 100 100 59 100 100 100 0 0 0 5 4 5 100 99 100 100 100 100 100 100 100 100 100 99 48 6 5 6 96 98 32 100 100 28
39 90 100 100 100 100 100 100 100 100 100 100 100 100 100 100 87 77 82 50 16 5 3 5 10 74 54 100 100 100 100 100 100 100 100 100 100 6 16 5 5 19 5 5 20 79 6
81 65 100 97 98 100 100 100 100 100 100 100 100 100 100 100 4 0 23 100 73 5 1 5 57 100 100 100 100 100 100 100 100 100 100 99 59 78 45 5 11 5 5 9 96 80 5
100 100 100 90 10 46 100 100 100 100 100 100 100 99 86 100 68 0 4 9 100 86 3 6 70 54 90 100 100 100 100 100 100 100 100 84 100 26 5 5 5 5 1 16 58 2 5
100 100 100 100 95 76 90 100 100 100 100 100 100 90 88 12 5 5 0 5 90 100 2 6 80 100 100 100 100 100 100 100 100 100 100 100 100 18 14 6 5 5 0 5 10 5 0
100 100 100 93 100 97 100 100 100 100 100 100 18 72 85 42 59 79 12 1 9 100 21 6 100 100 100 100 100 100 100 100 100 100 100 100 83 100 91 5 5 61 3 5 5 5 5
94 100 9 95 100 100 100 100 81 100 100 100 88 69 96 99 95 34 5 3 4 24 95 28 100 46 100 100 100 100 100 100 100 100 100 100 100 100 94 6 42 74 1 3 1 0 2
100 100 5 100 100 100 100 100 100 100 100 100 100 100 100 100 58 69 92 59 5 21 100 98 87 100 100 100 100 100 100 100 100 100 100 100 100 100 55 55 48 99 28 0 3 1 4
37 44 52 100 100 100 100 100 100 100 100 100 100 100 100 97 36 96 97 100 8 5 81 99 100 100 100 100 100 100 100 100 100 100 100 100 100 100 100 84 52 100 3 0 2 15 5
100 32 92 100 100 100 100 44 100 100 100 100 100 100 97 92 84 81 99 56 70 51 41 98 100 100 100 100 100 100 100 100 100 100 100 100 100 100 100 36 98 100 29 4 3 69 4
100 99 100 100 100 100 100 100 100 100 100 100 100 100 72 90 93 34 82 100 100 100 22 28 100 100 100 100 86 96 100 100 100 100 100 100 100 100 89 39 100 100 8 4 36 4 4
100 100 100 100 100 20 100 100 100 100 100 100 100 91 99 100 100 96 82 100 100 81 7 29 40 99 100 94 5 79 36 100 100 100 100 100 100 100 99 100 100 100 100 84 51 5 5

GFSGBSN_prec_cloud_057.txt.gz
Cloud_Cover
100 100 100 100 100 100 100 100 100 100 100 57 0 0 18 96 100 100 100 100 100 100 41 18 70 5 5 5 22 87 24 5 87 100 95 3 5 4 1 2 0 3 7 7 13 7 100
100 100 100 100 100 100 100 100 100 100 100 100 55 4 7 86 100 100 100 100 100 100 100 73 26 51 5 4 5 5 5 5 100 100 100 3 5 6 4 0 0 27 0 47 11 4 44
99 100 100 100 100 100 100 100 100 100 100 100 100 68 5 10 100 100 75 52 81 99 73 56 71 5 47 39 5 5 5 5 100 100 100 4 60 100 0 0 0 0 0 99 100 23 87
100 100 100 100 100 100 100 100 100 100 100 100 100 100 91 54 35 100 100 91 94 100 100 100 80 97 77 5 4 5 5 5 100 100 36 5 64 100 0 0 0 0 68 100 100 81 98
100 100 100 100 100 100 100 100 100 100 99 100 100 100 100 69 72 25 98 82 100 96 94 89 100 100 100 47 5 4 5 5 11 5 77 8 97 94 5 1 7 14 77 90 87 79 35
100 100 100 100 95 100 100 100 100 100 100 100 100 100 100 100 100 86 52 32 57 94 100 100 100 100 100 99 36 12 5 5 5 5 21 100 100 86 33 2 17 100 100 69 44 100 52
75 5 90 92 100 100 100 100 100 100 100 100 100 100 100 100 100 100 72 76 53 92 100 100 100 100 100 100 97 5 5 35 63 82 100 100 99 100 97 64 3 0 54 98 6 100 36
100 100 100 100 100 84 63 54 93 84 99 100 100 100 100 100 100 100 100 100 100 100 100 100 100 100 100 100 99 69 15 31 100 100 100 88 82 100 100 7 4 0 16 72 98 12 5
16 100 93 100 76 91 55 77 69 26 100 94 100 100 100 100 100 100 100 100 100 100 100 100 100 100 100 100 99 5 58 98 82 68 100 100 100 100 100 11 4 2 7 100 82 100 5
50 31 66 53 80 41 50 100 89 28 68 99 100 100 100 100 100 100 100 100 100 100 100 100 100 100 100 100 100 1 5 91 100 100 100 100 100 100 100 6 5 92 50 19 13 69 100
5 5 30 32 62 76 68 97 100 100 85 5 9 100 100 97 85 100 53 100 100 100 100 100 100 100 93 78 65 5 5 12 100 100 97 100 100 100 100 16 5 8 42 5 5 99 100
5 5 5 40 98 82 87 100 8 83 60 5 5 100 90 57 21 92 100 98 92 70 90 100 100 100 93 82 26 5 14 7 100 89 98 99 100 100 100 77 5 5 2 7 5 31 87
100 35 5 6 97 55 98 87 100 46 25 10 6 73 100 75 96 100 100 100 100 50 98 100 100 79 97 73 43 5 52 5 100 98 100 100 100 100 100 78 5 5 11 90 97 100 75
9 100 91 5 5 8 100 100 99 100 8 5 5 5 90 85 18 14 100 100 22 0 7 13 89 28 96 71 26 74 15 11 100 100 100 100 90 100 100 99 23 42 76 94 82 100 99
100 100 100 86 5 5 5 61 100 100 100 13 5 4 13 28 12 90 100 100 0 5 4 5 25 99 98 58 37 78 4 16 100 100 100 100 66 99 100 100 5 51 97 67 100 11 25
100 100 100 100 68 5 56 79 89 100 100 100 30 82 8 16 97 100 100 100 0 2 4 5 14 4 7 5 5 5 5 47 100 100 100 13 53 94 100 100 7 65 99 92 69 23 39
99 100 99 100 100 48 20 94 86 100 100 100 74 100 17 71 98 100 100 7 3 3 50 86 92 78 5 91 91 5 5 37 100 100 100 99 16 97 100 100 27 78 68 98 100 89 49
100 100 100 100 100 100 100 96 100 100 100 100 100 100 100 7 100 100 87 0 0 2 0 99 100 100 100 51 41 20 47 95 100 100 100 97 99 96 100 100 98 100 74 80 100 99 99
100 100 100 30 100 100 100 100 100 100 100 100 100 100 82 45 100 100 5 0 0 2 3 100 100 30 100 100 46 11 42 100 100 100 100 100 43 100 100 100 100 52 79 81 86 96 98
5 5 32 8 9 100 100 100 100 100 100 100 100 100 100 100 31 45 5 0 0 2 1 50 100 100 100 39 58 100 100 98 100 100 100 100 100 5 100 100 100 100 41 100 90 99 85
5 54 19 40 57 24 94 100 100 100 100 100 100 100 48 100 93 11 81 1 0 4 0 0 67 100 100 80 100 98 100 93 100 100 100 100 100 51 100 100 100 100 77 85 100 96 99
58 43 22 75 80 98 30 97 100 100 100 100 100 100 76 6 49 89 100 5 5 5 0 0 1 100 100 100 100 100 100 100 100 100 100 100 100 100 100 100 98 98 58 77 100 100 80
87 84 100 100 100 100 100 100 93 93 100 100 100 100 100 15 88 92 60 5 4 6 5 2 0 37 100 100 100 57 100 100 100 99 100 100 100 100 100 100 100 80 100 5 5 5 16
45 25 85 100 100 100 100 100 100 100 100 100 100 100 100 98 90 8 40 70 30 5 5 21 64 54 100 100 98 100 100 100 100 100 100 100 100 100 100 87 98 100 100 5 4 4 5
5 5 31 100 100 100 100 100 100 100 100 100 100 100 100 100 44 90 84 100 99 30 100 100 100 66 100 100 100 100 100 100 100 100 100 100 100 100 100 100 100 38 90 88 5 2 5
22 84 100 100 100 100 100 100 100 100 100 100 100 100 100 100 94 63 100 100 100 100 100 100 100 100 100 100 100 96 37 92 100 100 100 100 100 100 100 100 100 100 100 92 4 25 2
61 65 100 100 100 100 100 100 100 100 100 100 100 100 100 53 100 100 100 90 62 100 100 85 100 100 59 100 99 99 74 56 100 100 100 100 100 100 100 100 100 100 100 100 22 97 76
100 100 71 5 68 55 100 100 100 100 100 100 100 87 77 100 100 100 100 100 99 100 86 27 100 100 100 100 100 97 100 96 100 100 100 100 100 100 100 100 100 100 100 100 35 37 8
5 2 14 100 97 80 100 58 100 100 100 100 100 100 100 100 100 100 100 70 74 90 75 18 54 77 100 78 66 100 97 71 100 100 100 100 100 100 100 100 100 100 100 100 92 14 23

GFSGBSN_prec_cloud_060.txt.gz
Cloud_Cover
100 100 100 100 100 100 100 100 100 100 100 100 100 100 100 66 4 3 0 0 100 100 100 100 99 77 64 63 46 13 4 0 4 5 5 85 100 100 0 35 59 6 62 3 9 69 0
100 100 100 100 100 100 100 100 100 100 100 100 100 100 100 8 5 4 4 0 77 100 100 100 96 64 98 69 65 44 6 0 2 34 21 97 100 42 1 9 37 18 13 2 38 58 34
100 100 100 100 100 100 100 100 100 100 100 100 100 100 100 75 84 1 5 5 6 100 100 100 90 87 78 23 8 5 5 0 0 5 63 75 20 5 52 99 8 5 0 3 41 57 100
100 100 100 100 100 100 100 100 100 100 100 100 100 100 100 100 18 14 3 54 97 43 33 100 100 95 100 4 9 5 4 0 0 3 35 5 5 30 100 99 6 32 0 53 50 7 5
100 100 100 100 100 100 100 100 100 100 100 100 100 100 100 100 83 74 8 40 35 88 36 100 98 60 100 90 100 5 91 16 5 5 65 13 5 50 100 63 43 100 23 91 54 44 57
100 100 100 100 100 100 100 100 100 100 100 100 100 100 100 100 100 73 100 59 99 80 83 12 36 99 89 100 100 100 90 96 47 33 10 90 94 90 45 68 100 100 100 43 100 6 6
100 100 100 100 100 100 100 100 100 100 100 100 100 100 100 100 100 100 92 100 100 100 85 33 8 100 96 84 100 100 100 100 100 94 49 78 100 72 100 100 100 100 8 46 3 93 4
100 100 100 100 100 100 100 100 100 100 100 100 100 100 100 100 100 100 100 97 78 90 99 96 81 76 56 100 100 100 100 100 100 57 99 99 100 97 74 100 100 100 17 0 79 29 1
98 98 100 97 94 100 72 100 97 100 72 100 100 100 100 100 100 100 65 99 58 93 82 100 100 93 100 100 100 100 100 100 100 100 15 100 98 100 100 100 100 100 30 8 98 77 61
100 100 68 94 100 100 100 55 100 98 100 84 99 58 52 100 100 100 100 100 94 47 5 100 100 100 100 100 100 100 100 100 100 100 59 71 99 97 100 86 100 100 99 13 83 53 50
90 100 100 100 100 94 100 100 100 85 88 100 100 100 100 100 74 100 88 6 100 100 44 100 100 100 100 100 100 100 100 100 100 92 41 95 76 90 58 57 100 100 100 5 5 1 0
72 66 64 89 100 81 100 79 97 71 38 3 37 80 7 76 100 100 94 74 100 90 62 58 99 100 100 100 100 100 100 100 100 100 19 62 98 99 100 100 100 100 100 5 2 0 2
100 100 100 99 19 94 100 100 100 100 100 29 88 65 64 88 100 100 100 84 75 2 57 95 100 100 100 100 100 100 100 100 100 90 14 71 84 100 100 100 100 100 100 60 56 78 3
100 100 100 100 12 7 58 100 100 100 100 100 5 9 90 5 100 100 100 100 21 16 10 8 58 100 100 100 100 100 100 100 100 58 99 35 41 100 100 100 100 100 100 100 19 99 97
40 99 100 100 100 99 59 76 100 100 100 100 83 5 40 78 27 93 100 100 92 38 5 20 4 6 88 100 100 100 63 100 100 77 29 64 77 79 100 100 100 100 100 100 99 16 94
100 100 100 100 100 98 100 51 100 100 100 100 96 51 97 14 45 95 100 100 2 75 5 5 0 3 89 90 100 100 70 100 100 90 100 57 100 100 100 100 85 94 100 100 45 54 97
100 100 100 100 100 98 46 100 100 100 100 100 100 100 69 18 36 100 100 5 6 100 94 5 1 13 3 100 100 100 91 100 100 34 100 100 100 100 100 97 100 99 100 100 78 41 58
100 95 100 100 100 100 100 100 100 100 100 100 100 100 100 100 99 100 26 5 2 0 5 2 0 89 93 91 100 98 72 77 100 90 17 96 100 99 100 100 78 66 100 100 100 52 49
100 100 100 100 100 100 100 100 100 100 100 100 100 100 100 100 89 100 60 4 5 5 0 0 0 0 29 99 100 100 100 100 100 100 41 100 64 100 98 97 74 97 100 100 100 59 50
100 100 98 63 100 100 97 100 100 100 100 100 100 100 100 100 4 31 8 5 5 5 4 6 5 0 0 18 95 99 100 100 94 73 100 100 55 5 5 98 100 68 28 100 100 100 5
83 100 100 15 8 100 99 35 100 100 100 100 100 100 36 100 88 5 64 8 7 51 0 3 5 98 11 5 52 15 93 100 100 100 100 70 7 12 96 100 100 100 71 100 100 92 26
5 5 10 27 81 59 6 5 100 100 100 100 100 91 71 80 32 100 19 38 14 30 5 0 4 3 1 38 100 100 100 100 100 100 100 100 58 70 100 100 100 100 95 100 100 85 96
61 95 100 99 98 69 73 32 78 100 100 100 100 23 99 14 93 99 56 1 5 54 48 0 10 37 76 1 100 100 99 100 92 100 95 100 90 98 100 100 100 100 98 100 100 100 80
100 100 100 100 100 95 77 96 44 45 100 100 100 96 100 100 84 69 5 31 88 100 8 6 57 2 0 67 100 100 100 100 100 96 100 100 100 91 100 100 100 100 100 100 100 100 48
100 83 22 29 96 100 100 100 100 100 80 100 100 100 100 100 84 97 96 59 57 55 95 9 5 0 0 69 63 100 100 100 100 96 98 100 100 97 100 100 100 100 100 100 100 100 100
47 11 37 90 96 91 100 100 100 100 100 100 100 100 100 100 100 100 95 92 90 87 26 5 5 63 100 94 79 99 100 100 100 100 100 100 100 100 100 100 100 100 100 100 100 100 100
95 58 5 24 44 99 8 94 100 100 100 100 100 100 100 100 100 100 100 100 100 90 13 10 94 100 54 86 0 65 100 100 100 100 69 100 100 100 100 100 100 100 100 100 100 100 100
93 100 88 65 57 84 59 100 100 100 100 100 100 100 100 88 100 100 100 100 100 48 6 32 100 100 100 100 65 94 96 69 100 100 93 100 100 100 100 100 75 100 100 100 100 100 100
78 98 65 100 99 100 100 100 100 100 100 100 100 100 100 100 100 100 100 100 100 98 99 100 80 48 57 100 50 98 6 57 66 100 100 100 53 97 100 100 100 100 100 100 100 100 100

GFSGBSN_prec_cloud_063.txt.gz
Cloud_Cover
100 100 100 100 100 100 100 100 100 100 100 100 100 100 100 100 100 58 57 100 100 18 0 0 40 100 100 100 13 100 79 46 5 6 3 0 0 4 7 1 18 94 5 5 92 1 8
100 100 100 100 100 100 100 100 100 100 100 100 100 100 100 100 100 100 100 100 94 18 5 0 2 100 100 100 11 39 5 67 100 6 0 0 0 0 1 5 80 5 5 5 1 0 5
100 100 100 100 100 100 100 100 100 100 100 100 100 100 100 100 100 100 100 100 87 95 8 0 46 96 100 100 100 100 47 16 5 1 0 0 0 0 0 4 49 1 9 93 2 3 5
100 100 100 100 100 100 100 100 100 100 100 100 100 100 100 100 100 100 100 100 72 91 76 3 64 64 100 100 100 100 100 26 66 55 26 0 4 3 4 11 8 5 45 100 19 5 4
100 100 100 100 100 100 100 100 100 100 100 100 100 100 100 100 100 100 100 100 100 92 10 6 88 16 100 85 100 97 85 66 100 89 5 76 65 5 32 92 52 5 99 100 100 89 74
100 100 100 100 100 100 100 100 100 100 100 100 100 100 100 100 100 100 100 100 100 100 47 51 73 11 77 100 23 75 5 5 7 97 100 100 88 100 49 86 100 32 92 100 100 97 21
100 100 100 100 100 100 100 100 100 100 100 100 100 100 100 100 100 100 100 100 100 100 100 100 54 69 89 100 100 77 5 36 87 100 100 100 80 40 60 70 100 66 100 100 100 6 2
100 100 100 100 100 100 100 100 100 100 100 100 100 100 100 100 100 100 100 100 100 100 30 100 5 100 100 76 81 99 17 11 5 99 100 100 98 97 17 52 100 97 81 100 100 78 9
100 100 100 100 100 100 100 100 100 100 100 100 100 100 100 100 100 100 100 100 100 100 100 100 98 56 98 5 95 100 100 100 93 100 100 100 100 100 10 92 100 97 4 100 100 100 36
100 100 100 100 100 100 100 100 100 100 100 100 100 100 100 100 100 100 100 100 100 100 100 100 100 6 90 66 96 100 100 100 100 100 100 100 100 100 9 88 100 87 8 100 100 100 22
98 100 100 100 100 100 100 100 100 100 100 100 100 100 100 100 100 100 100 100 100 100 10 96 100 81 56 29 57 100 100 100 100 100 100 100 100 100 100 68 100 97 73 100 100 100 71
93 83 100 100 100 100 100 100 100 100 100 100 47 100 100 100 100 100 100 100 100 100 44 4 6 99 100 100 100 100 100 100 100 100 100 100 100 100 100 90 99 100 50 100 100 100 100
84 100 100 100 100 100 100 100 100 100 100 100 100 99 16 50 95 32 100 100 99 69 84 86 59 85 26 100 90 94 100 100 100 100 100 100 100 100 93 66 100 100 91 100 100 100 100
100 100 100 100 100 100 100 100 100 100 100 100 100 100 56 74 4 51 97 100 80 100 100 100 98 56 10 99 100 100 100 100 100 100 100 100 100 100 29 27 98 100 89 100 100 99 100
100 100 100 100 100 100 100 100 100 100 100 100 100 100 100 5 5 58 100 100 3 95 97 100 100 99 68 91 98 100 100 100 100 100 100 100 100 100 100 9 68 100 87 100 100 100 100
100 100 100 100 99 100 100 100 100 100 100 100 100 100 100 10 18 91 100 68 13 99 5 15 100 21 35 93 95 100 100 100 100 100 100 100 100 100 100 100 17 84 97 50 100 100 100
100 100 100 100 100 100 100 100 100 100 100 100 100 100 95 100 100 100 98 38 3 8 0 2 15 51 97 100 100 100 76 13 59 98 100 100 100 100 95 29 16 26 97 36 15 86 100
100 100 100 100 100 100 100 100 100 100 100 100 100 100 69 100 100 100 97 8 2 0 0 0 0 5 14 19 100 100 98 80 68 12 100 100 100 100 80 54 49 98 100 77 100 100 100
100 100 100 100 100 100 100 100 100 100 100 100 100 100 100 100 99 98 83 58 5 5 1 0 0 0 5 26 68 86 60 99 84 100 90 100 100 100 83 36 98 68 100 97 100 60 100
100 100 100 100 100 100 100 100 100 100 100 100 100 100 100 100 7 5 85 100 51 29 1 5 0 0 1 0 10 54 7 100 100 60 96 100 100 100 54 26 35 43 100 97 98 41 100
100 100 100 100 100 100 100 100 100 100 100 100 100 100 83 99 100 96 41 48 16 51 5 0 0 0 0 0 7 5 97 38 99 5 100 100 94 100 56 100 100 96 100 100 37 92 77
100 100 100 100 100 100 100 100 100 100 100 100 100 99 89 5 96 100 100 27 5 5 4 5 2 3 0 0 0 0 52 100 100 99 30 100 77 85 73 100 100 100 94 100 83 100 100
100 100 99 100 100 100 99 100 100 100 100 100 100 49 97 54 99 100 64 5 6 17 5 44 2 0 2 0 13 43 1 46 100 100 82 84 84 100 25 100 100 51 9 95 100 100 100
75 56 90 50 46 100 100 100 100 100 100 100 100 100 100 100 80 21 16 5 6 37 5 5 4 1 2 99 62 4 7 55 100 99 100 96 97 100 100 100 92 3 6 83 100 100 100
16 24 98 100 100 100 100 100 100 100 100 100 100 100 100 100 17 70 18 5 68 7 2 9 0 0 66 100 42 100 70 52 100 100 100 100 100 100 82 63 99 5 90 100 100 100 100
47 89 100 96 100 100 100 100 100 100 100 100 100 100 100 100 78 99 100 100 100 50 5 2 2 5 5 7 69 5 58 46 100 100 100 100 100 99 99 71 5 89 100 100 100 45 100
100 100 100 98 100 100 100 100 100 100 100 100 100 100 100 100 100 99 9 21 86 15 27 59 100 97 31 5 5 20 53 89 100 100 100 100 100 100 98 100 8 73 100 100 100 99 100
13 64 73 57 47 19 100 100 100 100 100 100 100 88 100 100 90 100 100 94 5 91 100 100 100 91 5 3 4 5 1 19 100 100 100 100 100 100 100 100 74 93 100 73 100 100 100
84 100 94 19 100 100 100 100 100 100 100 100 100 100 100 100 99 100 100 94 98 100 100 100 88 100 0 2 11 5 5 28 100 99 100 100 100 100 100 28 98 100 100 98 100 100 100

GFSGBSN_prec_cloud_066.txt.gz
Cloud_Cover
100 100 100 100 100 100 100 100 100 100 100 100 100 99 97 100 100 100 100 100 100 100 74 6 100 100 97 61 0 79 11 21 46 57 13 15 28 5 0 0 1 0 0 0 0 5 4
99 100 100 100 100 100 100 100 100 100 100 100 100 100 50 100 100 100 100 100 100 100 100 9 100 100 86 31 2 100 100 54 55 55 50 37 41 4 0 0 0 0 4 0 0 29 14
100 100 100 97 100 100 100 100 100 100 98 100 100 100 100 100 100 100 100 100 99 100 32 87 100 100 100 27 5 83 100 100 100 100 46 5 65 10 0 1 3 0 21 0 3 92 7
100 99 100 100 100 100 100 100 100 100 100 100 100 100 100 100 100 100 100 100 100 83 100 98 100 100 100 95 6 11 100 100 100 100 98 89 27 0 1 5 4 0 41 5 5 5 10
100 98 100 99 100 100 100 100 100 100 100 100 100 100 100 100 100 100 100 100 93 96 85 100 100 100 100 95 5 17 6 78 100 100 73 92 5 5 11 50 4 5 5 69 73 5 6
99 65 100 100 100 100 100 100 100 100 100 100 100 100 100 100 100 100 100 100 100 98 52 70 88 92 100 100 42 73 8 6 97 100 83 7 49 100 23 66 4 1 4 72 13 39 58
88 100 100 100 100 100 100 100 100 100 100 100 100 100 100 100 100 100 100 100 18 86 15 100 99 100 100 100 92 5 5 5 55 76 5 27 100 54 68 100 6 14 4 11 57 7 5
100 98 100 100 100 100 100 100 100 100 100 100 100 100 100 100 100 100 100 100 53 5 52 100 100 100 100 100 100 100 43 28 31 94 9 27 100 6 100 80 21 6 7 6 14 11 2
100 100 96 100 100 100 100 100 100 100 100 100 100 100 100 100 100 100 100 100 100 72 6 100 100 38 100 80 98 100 58 95 30 59 100 81 100 76 100 100 31 49 37 6 88 57 5
100 100 100 100 100 100 100 100 100 100 100 100 100 100 100 100 100 100 100 100 100 100 100 100 100 100 100 100 62 100 100 100 75 96 100 51 100 100 100 100 35 95 5 6 69 97 12
97 100 83 82 100 100 100 100 100 100 100 100 100 100 100 100 100 100 100 100 85 83 100 100 100 100 100 100 100 100 100 6 50 99 5 100 100 100 100 100 60 97 14 47 21 100 42
9 30 100 100 100 100 100 100 100 100 100 100 100 100 100 100 100 100 100 100 100 100 85 97 100 100 100 100 100 100 100 100 98 73 91 100 100 100 100 100 100 97 46 20 100 100 23
5 33 56 79 100 100 100 100 100 100 100 100 100 100 100 100 100 100 100 100 100 100 100 100 100 100 100 100 100 100 100 97 99 100 100 100 100 100 100 100 100 100 65 20 47 88 76
5 5 24 5 100 100 100 100 100 100 100 100 100 100 100 100 100 100 100 100 99 100 100 100 100 100 100 100 100 100 100 100 7 100 100 93 100 100 100 100 100 100 86 8 64 71 86
0 0 5 9 100 100 100 100 100 100 100 100 100 100 100 100 40 86 100 100 97 100 100 100 91 100 94 21 99 100 100 100 31 5 84 93 100 100 100 100 100 100 100 38 5 99 47
4 0 21 11 100 100 100 100 100 100 100 100 100 100 94 88 18 56 100 96 97 100 96 5 13 5 77 100 72 87 100 100 99 71 100 87 72 100 100 98 100 100 100 64 45 5 65
1 89 100 97 100 100 100 100 100 100 100 100 100 100 96 99 97 96 97 56 88 71 61 33 61 73 22 91 54 18 99 100 100 100 100 90 17 99 93 96 100 100 100 99 20 12 99
5 100 100 100 86 100 100 100 100 100 100 100 100 100 87 100 80 82 83 26 43 0 2 5 9 100 34 74 94 73 90 100 100 100 100 100 100 100 100 100 100 86 100 93 91 96 42
91 38 100 100 100 100 100 100 100 100 100 100 100 100 100 100 88 98 28 47 37 5 1 3 4 1 14 8 34 32 86 100 96 100 100 100 64 92 100 100 97 99 100 100 52 8 5
86 100 100 100 100 100 100 100 100 100 100 100 100 100 100 100 14 49 100 89 100 48 6 4 1 0 0 2 8 40 18 81 100 100 100 100 100 100 100 100 100 98 100 100 70 5 58
100 100 100 100 100 100 100 100 100 100 100 100 100 100 90 100 100 91 85 86 89 100 100 58 0 1 3 1 0 0 99 93 82 100 90 100 100 100 100 100 100 100 100 100 100 8 5
100 100 100 100 100 100 100 100 100 100 100 100 100 100 100 83 100 100 100 100 100 85 93 55 5 6 0 0 0 0 5 0 99 84 100 99 94 100 100 100 100 100 85 97 95 96 46
100 100 100 100 100 100 100 100 100 100 100 100 100 95 100 100 93 100 95 100 100 100 100 18 5 5 3 1 0 0 2 5 4 74 100 100 100 99 39 100 100 99 20 100 95 100 41
100 100 100 100 100 100 100 100 100 100 100 100 100 100 100 100 24 46 99 100 55 43 39 68 100 79 100 76 5 0 4 45 1 2 42 100 100 100 93 100 100 32 49 58 41 100 99
100 100 100 100 100 100 100 100 100 100 100 100 100 100 100 98 42 54 25 27 9 5 5 5 6 100 100 100 36 2 5 5 1 0 37 100 100 100 100 90 66 82 85 95 62 68 100
100 100 100 86 55 67 96 100 100 100 100 100 100 100 100 100 34 97 69 43 36 52 84 5 6 44 71 31 45 1 4 3 3 5 57 100 100 100 100 100 57 99 100 100 100 94 100
100 100 100 85 73 61 96 10 37 44 100 100 100 100 100 100 12 79 22 38 99 100 64 98 82 27 59 6 5 3 0 4 4 6 78 90 100 100 100 100 89 77 88 100 100 99 100
100 100 100 100 100 100 99 100 98 51 69 98 100 100 100 100 99 95 48 94 100 87 29 65 99 27 50 5 4 0 0 3 2 4 5 46 100 100 100 100 100 100 100 100 85 96 100
100 100 95 96 96 95 100 100 100 100 100 88 100 100 100 100 100 100 89 100 100 100 100 100 100 100 97 5 5 2 0 2 0 4 36 81 100 100 100 100 100 100 100 98 100 88 100

GFSGBSN_prec_cloud_069.txt.gz
Cloud_Cover
100 100 92 44 6 96 100 95 100 100 100 100 100 100 100 100 99 81 100 53 85 100 74 100 100 100 100 97 8 78 100 5 2 5 24 5 7 9 7 49 4 0 0 0 0 0 0
33 5 34 100 71 100 100 100 100 100 99 100 100 100 100 100 100 100 100 100 89 92 85 91 67 100 100 100 13 100 100 7 3 5 56 5 98 40 42 9 1 0 0 0 0 0 0
96 12 9 93 66 78 85 98 94 100 100 100 100 100 100 100 100 100 100 100 100 100 100 100 100 100 100 97 59 100 100 40 2 5 98 99 100 92 62 5 5 5 1 2 0 3 5
67 21 70 91 100 93 90 100 100 94 99 100 100 100 100 100 100 95 100 100 100 40 87 100 100 92 100 98 30 100 100 96 5 0 16 100 100 100 98 10 48 5 5 4 0 0 0
100 76 83 20 66 39 94 100 100 61 90 100 100 100 100 100 87 96 100 100 100 65 100 52 86 100 100 100 40 100 100 97 5 5 5 100 100 100 100 38 5 12 5 16 1 0 0
27 96 97 100 100 68 100 100 100 100 100 100 100 100 100 100 100 100 100 100 100 73 92 40 99 100 100 100 88 100 100 23 5 5 31 12 31 89 25 16 39 6 88 33 32 1 3
100 100 100 100 100 100 100 76 36 100 100 100 100 100 100 100 100 100 100 100 100 16 40 59 100 100 100 100 100 96 100 100 21 50 63 7 29 56 4 38 5 93 100 97 9 4 24
100 88 100 100 94 100 100 100 100 92 100 100 100 100 100 100 100 100 100 100 66 99 100 100 100 100 100 100 100 94 30 98 100 100 58 10 90 13 5 89 66 47 70 100 52 3 0
100 100 100 98 100 100 100 100 100 100 100 100 100 100 100 100 100 100 100 100 96 100 97 100 100 100 100 22 100 100 100 100 100 100 100 46 69 5 35 100 100 100 99 100 37 5 1
100 100 100 100 100 100 100 100 100 100 100 100 100 100 100 100 100 100 100 100 100 100 89 87 52 71 86 7 34 100 100 100 100 100 100 5 45 41 24 94 25 100 32 100 7 5 2
100 100 88 54 100 100 100 79 88 100 100 100 100 100 100 100 100 100 100 100 100 100 66 100 100 10 41 99 59 100 100 93 56 100 96 7 70 5 5 99 99 100 5 96 91 24 21
100 100 100 92 65 82 100 100 100 100 65 100 100 100 100 100 100 100 100 100 99 100 100 100 100 100 100 100 94 100 100 100 100 100 100 48 100 31 69 100 38 97 7 92 100 90 77
100 100 56 4 5 84 93 98 100 100 100 100 100 100 100 100 100 100 100 85 100 100 100 97 26 100 100 100 100 100 100 100 100 100 100 100 100 100 36 73 58 100 100 52 99 20 99
100 100 48 4 4 5 37 100 100 100 100 100 100 100 100 100 100 100 100 100 100 100 100 5 4 63 100 100 100 100 100 100 100 100 99 99 100 100 100 91 98 94 45 95 100 6 60
100 100 85 5 0 5 5 88 100 100 100 100 100 100 100 100 100 100 100 100 100 100 100 100 100 100 100 100 100 100 100 100 100 100 100 100 100 100 100 62 10 34 87 100 100 48 14
100 100 92 4 3 3 5 5 100 100 100 100 100 100 100 84 95 100 100 100 100 100 45 62 67 20 99 100 100 100 100 100 100 100 100 100 100 100 100 9 5 48 100 100 97 100 93
20 5 5 1 1 10 5 31 100 100 100 100 100 100 100 98 100 76 97 100 95 100 100 100 100 100 10 31 80 100 100 100 100 100 100 100 97 99 100 29 88 100 84 100 89 40 100
20 86 5 0 0 5 91 76 83 100 100 100 100 100 100 97 100 98 20 8 20 100 97 100 100 100 100 17 5 17 83 100 100 100 100 100 100 100 100 100 100 95 58 99 85 98 100
5 9 7 2 44 38 5 100 100 100 100 100 100 100 100 100 100 90 9 5 5 12 14 95 100 98 99 100 92 99 97 100 100 99 99 100 100 100 100 100 100 100 100 100 100 100 100
5 5 5 5 5 27 51 100 100 100 100 100 100 100 100 100 41 14 92 17 38 5 4 5 9 6 13 23 6 65 100 100 100 99 98 83 50 76 100 100 100 100 100 100 100 100 100
5 5 4 5 17 97 100 100 100 100 100 100 100 100 97 100 100 93 30 40 5 52 6 2 2 4 3 5 5 5 37 100 100 100 100 100 100 100 100 100 100 100 100 100 100 100 100
100 99 44 96 100 100 100 100 100 100 100 100 100 100 100 58 100 100 98 63 91 80 18 6 8 42 11 0 1 0 0 11 93 100 100 99 97 100 100 100 100 100 100 100 100 100 100
100 100 100 100 100 100 100 100 100 100 100 100 100 99 100 97 97 100 95 97 96 100 96 100 35 95 95 11 0 0 16 0 0 52 95 90 100 100 100 100 100 94 94 100 100 100 100
100 100 100 100 100 100 100 100 100 100 100 100 100 100 100 100 100 99 100 100 100 100 100 100 100 100 100 27 7 5 4 0 0 29 98 72 100 100 100 100 100 37 96 100 100 100 100
100 100 100 100 100 100 100 100 100 100 100 100 100 100 100 100 100 100 100 100 100 100 100 100 100 100 98 95 58 5 2 3 8 10 16 22 5 95 89 100 62 70 99 100 100 100 100
100 100 100 100 100 100 100 100 100 100 100 100 100 100 100 100 100 100 100 100 100 100 100 100 100 100 100 100 100 100 8 0 2 86 29 28 59 76 99 100 100 14 100 100 100 14 100
100 100 100 100 100 100 100 100 100 100 100 100 100 100 100 100 100 99 100 100 100 100 100 100 100 96 91 72 100 100 97 4 2 26 84 100 100 77 98 100 8 50 100 100 84 27 100
100 100 100 100 100 100 100 100 100 100 100 100 100 100 100 100 100 100 98 67 98 100 38 99 100 78 75 13 20 93 83 10 4 0 13 32 98 86 100 100 100 94 100 100 95 93 86
100 100 100 100 100 100 100 100 100 100 100 100 100 100 100 100 100 100 100 98 87 100 100 100 100 100 97 18 9 5 5 8 4 5 5 5 5 12 24 51 100 100 100 100 100 100 100

GFSGBSN_prec_cloud_072.txt.gz
Cloud_Cover
6 46 65 48 74 100 86 59 0 5 5 5 5 50 54 99 82 92 99 100 100 100 70 4 3 9 48 100 94 86 100 100 5 5 96 40 4 5 1 5 5 7 5 0 0 0 0
100 69 22 5 0 4 1 24 19 21 61 5 5 8 63 82 70 100 100 100 100 100 100 5 1 5 41 99 100 69 100 99 97 96 100 46 0 4 9 32 5 51 9 4 5 2 0
100 94 12 96 97 59 2 3 5 5 5 6 5 38 52 89 100 100 100 100 100 100 100 56 7 26 87 100 100 100 99 100 100 100 100 18 0 4 5 99 83 86 55 70 5 3 0
100 100 90 69 6 2 1 5 5 72 6 5 5 98 81 100 100 100 100 100 100 100 100 100 51 64 82 100 100 100 6 100 100 99 100 100 10 5 5 99 100 100 100 5 5 3 4
100 100 36 23 4 5 3 5 6 98 24 20 39 64 85 100 96 100 100 100 100 100 100 100 50 79 98 100 100 100 100 100 100 77 100 88 95 23 34 100 100 100 100 24 5 5 0
100 100 95 100 100 38 3 7 5 17 71 96 100 100 100 93 100 100 100 100 100 100 100 99 74 99 98 100 100 100 76 100 100 100 100 100 100 86 93 60 8 26 5 5 5 3 5
100 100 100 100 100 100 24 68 100 12 19 100 100 100 100 100 96 84 100 100 100 100 100 100 24 83 100 100 100 100 66 27 100 100 100 100 13 100 100 97 5 5 5 5 5 6 67
100 100 100 100 100 100 92 16 76 79 8 100 100 99 100 100 100 78 100 100 100 100 87 61 96 100 100 100 100 100 100 100 100 100 100 100 99 100 100 100 97 21 6 60 57 22 100
98 100 100 100 100 100 94 91 100 100 34 100 100 100 100 100 100 92 100 100 100 100 99 100 98 94 100 99 100 100 100 100 100 100 100 89 98 100 100 83 89 99 7 15 61 7 100
100 100 100 100 100 11 12 100 100 100 100 100 100 100 100 100 88 100 100 100 100 100 100 100 100 100 100 45 70 100 100 100 100 100 100 78 85 100 100 100 79 57 14 5 6 27 100
92 100 100 100 100 5 5 5 49 67 99 100 100 100 100 100 100 100 100 100 100 100 100 100 100 100 100 100 100 100 100 100 99 95 100 95 100 100 100 100 55 94 5 8 5 70 78
100 100 100 100 100 90 5 5 5 10 83 100 100 100 100 100 100 100 100 100 100 100 86 88 100 100 100 99 100 100 100 90 78 100 29 99 100 100 100 100 100 50 28 5 5 4 56
100 100 100 100 100 81 4 5 5 5 5 97 100 100 100 100 100 100 100 100 99 100 100 96 100 100 100 100 100 100 100 100 91 100 47 100 100 100 100 100 100 72 87 1 6 71 100
100 100 100 100 100 68 27 4 5 5 5 8 100 100 100 87 99 100 100 100 100 100 98 100 100 100 100 100 100 100 100 84 100 100 100 100 100 100 100 100 100 100 56 3 94 8 35
100 100 100 100 100 88 5 2 5 5 5 29 95 100 100 100 96 100 100 100 100 100 74 100 100 100 100 100 100 100 100 100 100 100 100 99 100 100 100 100 100 100 38 66 5 81 100
100 100 100 100 100 94 5 5 0 5 5 59 76 100 100 100 100 100 100 100 57 100 58 100 83 100 100 100 100 100 100 99 100 100 100 100 99 100 100 93 48 39 84 41 54 100 99
99 99 99 92 22 16 5 0 3 14 12 78 100 100 100 100 100 100 100 100 100 100 100 100 100 100 100 100 100 100 100 99 61 100 100 100 100 100 100 100 100 100 100 100 100 21 85
72 72 49 14 5 5 10 1 4 10 66 100 100 100 100 100 100 100 100 98 72 100 100 100 100 100 88 94 100 100 100 98 86 100 100 100 100 100 100 100 100 100 100 100 41 99 100
9 21 100 9 5 5 5 0 5 12 68 100 100 100 100 100 99 100 100 61 73 67 100 100 100 100 100 98 81 99 100 100 100 100 100 100 100 100 100 100 100 100 100 100 93 61 33
82 86 87 44 5 5 5 2 49 74 60 100 100 100 100 100 96 43 100 99 34 52 100 92 100 100 100 100 80 62 100 72 100 100 100 100 98 99 100 100 100 100 100 100 100 100 63
5 6 4 1 1 5 4 5 9 98 90 100 100 100 93 99 100 94 93 95 38 5 6 64 88 100 95 100 100 99 99 84 46 69 100 100 100 100 100 100 100 100 100 100 86 74 65
97 100 100 100 88 9 14 5 5 86 100 100 100 100 100 66 100 100 100 100 94 5 34 34 20 40 16 5 48 100 56 49 47 100 54 95 81 100 100 100 100 96 91 5 5 35 9
100 100 100 100 100 100 86 6 6 100 100 100 100 99 100 92 100 100 100 100 90 100 100 100 100 100 40 34 29 22 5 5 35 66 100 94 72 100 90 100 100 100 100 87 34 61 100
100 100 100 100 100 100 100 100 100 100 100 100 100 100 100 100 85 100 99 100 100 100 100 100 100 100 100 100 93 64 5 4 2 2 5 6 60 98 93 98 96 100 100 100 100 81 100
100 100 100 100 100 100 100 100 100 100 100 100 100 100 100 100 100 100 100 100 100 100 100 100 100 100 98 100 52 54 5 5 0 0 0 35 100 100 96 100 16 7 100 100 100 6 61
100 100 100 100 100 100 100 100 100 100 100 100 100 100 100 100 100 100 100 100 100 100 100 100 100 100 100 100 100 100 51 8 7 0 0 30 100 82 95 90 54 9 100 100 6 46 98
100 100 100 100 100 100 100 100 100 100 100 100 100 100 100 100 100 100 100 100 100 100 100 100 100 100 97 100 99 100 100 96 76 90 98 94 97 100 100 96 9 6 100 100 54 26 8
100 100 100 100 100 100 100 100 100 100 100 100 100 100 100 100 100 100 100 100 100 100 100 100 100 90 99 100 100 100 100 81 9 5 10 72 43 97 93 74 70 0 100 100 100 67 12
100 100 100 100 100 100 100 100 100 100 100 100 100 100 100 100 100 100 100 100 100 100 100 100 100 100 99 100 97 100 95 100 21 5 5 3 4 12 2 4 0 0 1 94 100 78 82

GFSGBSN_prec_cloud_075.txt.gz
Cloud_Cover
100 100 100 100 100 100 100 100 88 79 7 1 4 5 2 3 5 5 5 5 5 5 5 11 5 10 5 96 100 28 100 11 91 5 62 38 20 2 5 5 0 2 1 23 5 9 67
100 100 100 100 97 100 100 100 94 11 4 0 0 0 0 0 0 5 5 5 5 14 16 5 9 96 100 64 100 90 100 100 100 17 17 50 10 12 63 5 5 1 5 5 23 6 5
100 100 100 100 100 100 100 100 100 100 95 41 44 5 0 0 0 2 5 5 76 19 9 34 5 38 56 100 100 100 100 79 100 100 100 56 31 66 98 5 0 0 5 76 95 81 6
100 100 100 100 100 100 95 100 93 29 100 100 20 18 5 0 0 5 32 7 90 5 68 72 28 84 94 100 100 100 100 86 100 89 58 99 100 96 100 56 1 0 7 100 100 100 80
100 100 100 100 100 100 100 36 33 42 46 6 34 8 5 5 4 4 5 5 99 45 100 94 61 41 99 100 100 100 100 100 100 100 46 33 100 100 100 98 6 0 4 100 86 58 57
100 100 100 100 100 100 100 92 98 93 66 7 54 5 2 13 5 5 78 38 8 100 79 100 67 100 100 100 100 100 100 90 100 100 23 27 100 100 100 100 24 0 75 55 3 12 5
100 100 100 100 100 100 100 100 100 77 48 5 5 5 5 14 12 6 12 86 100 75 83 100 100 100 100 100 100 100 100 100 100 100 100 76 100 100 100 100 24 5 95 15 0 5 39
100 100 100 100 100 100 100 100 27 5 5 5 5 5 100 14 70 46 47 100 100 72 100 96 100 100 100 100 100 100 100 100 100 100 90 23 100 100 100 100 88 6 100 38 0 5 17
100 100 100 100 100 100 100 100 79 37 57 10 5 5 93 96 97 93 35 69 99 100 97 100 100 99 100 100 100 100 100 100 100 100 74 100 100 100 100 100 88 5 100 60 3 5 55
100 100 100 100 100 100 100 37 17 47 5 5 62 5 7 100 100 90 37 100 100 100 94 100 100 100 100 100 100 100 100 100 100 100 100 90 100 100 100 100 100 8 100 23 5 73 43
100 100 100 100 100 100 100 16 5 5 5 5 5 5 5 27 99 22 76 100 100 98 63 100 100 100 100 100 100 100 100 100 100 100 100 100 100 100 100 100 96 9 65 88 67 10 31
100 100 100 100 100 100 100 71 5 5 4 5 5 5 9 46 100 47 15 100 39 100 100 100 100 100 100 100 100 100 100 100 100 100 100 100 100 100 100 100 96 80 100 100 100 5 43
100 99 100 100 100 100 100 92 5 3 4 5 5 5 28 87 100 96 73 6 48 98 100 100 100 100 100 100 100 100 100 100 100 100 100 100 100 100 100 100 100 99 100 100 51 5 70
100 100 100 100 100 100 100 100 25 2 1 5 5 28 7 50 98 96 100 15 100 100 100 100 100 100 100 100 100 100 100 100 100 100 100 100 100 100 100 100 100 100 100 60 59 47 7
100 100 100 100 100 100 100 88 5 2 3 5 5 25 19 13 100 100 100 96 20 100 100 100 100 100 100 100 100 100 100 100 100 100 100 100 100 100 100 100 100 74 30 89 62 5 57
100 100 100 88 100 100 100 100 48 5 4 5 51 100 12 5 100 100 100 92 5 100 100 100 100 100 100 100 100 100 100 100 100 100 100 100 100 100 100 100 94 44 98 77 40 5 25
100 100 100 88 61 73 84 100 42 11 0 5 82 100 93 5 100 100 100 59 100 100 100 100 100 100 100 100 100 100 100 100 100 100 100 100 100 100 100 99 100 100 100 98 33 4 26
100 100 100 94 5 14 76 5 5 4 1 29 100 100 100 37 100 100 100 80 100 100 100 100 100 94 100 100 100 100 100 100 96 100 100 100 100 100 100 100 98 97 18 58 7 5 68
100 97 73 16 5 96 98 27 5 4 2 68 99 100 100 100 100 100 100 82 9 100 100 100 100 100 84 100 100 100 100 100 100 100 89 80 100 100 100 100 100 100 100 100 100 100 100
62 5 25 10 100 19 97 71 0 4 15 96 100 100 100 100 100 100 100 87 16 100 100 100 100 100 100 99 92 100 100 100 100 100 100 100 99 99 100 100 100 100 100 100 100 72 95
100 100 81 89 36 66 91 62 0 5 4 99 100 100 45 100 100 100 100 92 90 90 100 100 100 100 100 100 100 100 100 100 100 100 100 100 100 100 87 98 100 100 100 100 100 100 100
100 99 100 100 39 100 85 11 0 4 27 100 100 100 100 100 100 100 100 100 10 93 100 100 100 100 100 100 100 86 62 84 100 100 100 100 100 100 100 100 100 100 95 98 100 100 99
99 100 100 100 100 100 100 100 94 5 27 100 100 100 100 100 95 100 100 53 79 100 100 100 100 100 100 100 72 70 29 10 66 95 100 100 100 100 100 100 100 84 100 100 57 6 5
100 100 100 100 100 100 100 100 100 100 10 16 100 100 100 98 100 92 81 91 100 100 100 100 100 100 100 98 10 5 34 5 5 5 5 98 98 97 79 100 84 100 100 100 100 87 42
100 100 100 100 100 100 100 100 100 100 87 66 95 100 100 100 99 99 79 100 100 100 100 100 100 100 100 100 98 100 42 5 5 5 4 3 11 90 94 55 27 88 100 100 100 100 100
100 100 100 100 100 100 100 100 100 100 100 99 100 100 100 100 87 100 100 100 100 100 100 100 100 100 100 100 100 85 80 36 42 0 2 2 5 76 100 100 57 100 100 100 100 100 100
99 100 91 100 100 100 100 100 100 100 100 100 100 100 100 100 100 100 100 100 100 100 100 100 100 100 100 100 92 79 41 33 5 16 100 92 99 100 67 85 10 4 3 13 44 9 6
90 100 100 100 93 100 100 100 100 100 100 100 100 100 100 100 100 100 100 100 100 100 100 100 100 100 100 100 98 66 26 93 34 38 62 52 42 31 67 96 57 10 5 27 20 3 4
100 92 95 88 100 100 100 100 100 100 100 100 100 100 100 100 100 100 100 100 100 100 100 100 100 100 100 100 78 77 100 100 100 98 77 79 30 37 9 11 12 91 42 3 0 0 0

GFSGBSN_prec_cloud_078.txt.gz
Cloud_Cover
100 100 100 69 90 84 100 100 100 100 100 100 100 100 100 90 75 81 4 1 11 5 4 5 52 5 5 0 23 80 100 32 5 20 74 4 5 5 5 44 89 86 3 5 5 52 12
100 100 100 100 100 100 100 98 100 100 100 93 100 100 100 100 100 78 2 0 0 0 0 5 4 5 5 5 51 100 79 100 87 37 100 36 11 5 21 30 99 75 5 5 5 4 37
100 96 96 90 100 100 100 100 91 96 97 100 100 13 41 34 63 94 93 31 66 5 1 5 5 5 1 9 100 100 100 99 97 89 92 60 75 42 5 12 100 100 87 5 2 0 6
83 81 100 99 14 100 100 100 96 100 92 26 15 74 9 66 97 39 24 8 3 0 2 0 16 7 0 67 100 100 100 24 100 100 100 22 49 100 100 100 79 100 100 5 3 3 6
100 100 95 100 100 100 100 100 100 100 88 100 26 4 4 0 5 2 1 0 0 0 0 3 39 7 59 100 100 100 99 100 99 100 100 61 100 100 100 100 99 100 98 5 5 0 4
100 100 100 100 100 98 100 100 100 100 35 18 5 5 0 5 22 1 0 0 0 1 13 18 38 6 83 98 100 100 100 100 100 100 100 100 100 100 100 100 100 87 40 75 5 5 20
100 100 100 100 100 100 100 100 100 100 87 50 5 5 6 98 24 3 0 0 0 2 0 2 18 98 100 100 100 100 100 100 100 100 56 100 100 88 100 100 100 5 90 100 34 5 6
100 100 100 100 100 100 100 100 100 100 98 99 33 4 5 5 4 0 0 2 80 64 70 15 100 100 57 25 100 100 100 100 100 100 100 100 92 100 100 100 100 6 100 100 34 5 22
86 100 100 100 100 86 100 100 100 80 34 85 8 25 94 12 5 1 31 0 75 82 12 100 100 38 89 100 100 100 100 100 100 100 100 100 100 100 100 100 100 98 85 100 91 5 5
100 100 100 100 97 100 100 100 99 8 92 100 43 15 20 5 38 5 60 43 68 5 60 100 100 10 100 100 100 100 100 100 100 100 100 100 93 100 100 100 100 94 64 100 100 5 43
100 100 100 100 100 100 100 100 100 100 95 92 100 89 5 5 91 72 17 3 5 50 22 100 100 36 100 100 100 100 100 100 100 100 100 87 100 100 100 100 100 100 5 100 100 99 71
100 100 100 100 100 100 100 100 100 100 100 52 37 23 59 47 82 45 6 4 5 46 98 100 100 100 99 100 100 100 100 100 100 100 100 100 100 100 100 100 100 100 8 99 100 100 100
100 100 100 100 100 100 100 100 100 92 82 41 8 8 28 100 69 23 5 5 18 2 96 100 100 100 100 100 100 100 100 100 100 100 100 100 100 100 100 100 100 100 79 42 100 100 100
100 100 100 100 100 100 100 100 100 100 100 100 99 5 27 93 40 99 13 40 24 0 74 100 100 100 100 100 100 100 100 100 100 100 100 100 100 100 100 100 100 100 100 42 30 64 100
85 100 90 100 100 100 100 100 100 100 100 100 98 7 61 34 24 85 75 90 1 18 24 100 100 100 100 100 100 100 100 100 100 100 100 100 100 100 100 100 100 100 100 89 48 6 21
100 8 100 93 100 100 100 100 100 100 100 100 93 99 9 54 53 100 100 20 8 13 50 100 100 100 100 100 100 100 100 100 100 100 100 100 100 100 100 100 100 100 100 97 37 99 100
9 33 93 100 99 100 100 100 100 100 100 44 95 75 71 6 78 100 100 66 92 2 4 100 100 100 100 100 100 100 100 100 100 100 100 100 100 100 100 100 100 100 100 79 66 87 98
98 95 90 20 100 50 100 100 100 100 100 69 46 94 11 91 100 100 100 96 11 0 5 37 100 100 100 100 100 100 100 100 100 100 100 100 100 100 100 100 100 100 100 73 91 100 37
31 96 100 23 39 77 40 52 97 100 94 42 97 96 29 100 99 100 98 86 44 4 5 6 100 100 100 100 100 100 100 100 100 100 100 100 100 100 100 100 100 100 98 99 83 31 97
25 51 5 24 5 98 93 76 46 98 4 30 84 92 53 98 98 99 99 53 98 4 5 5 55 100 100 100 100 100 100 100 100 100 100 100 100 100 100 100 100 99 82 100 92 80 94
72 79 94 86 36 5 5 86 6 100 3 21 100 94 85 99 37 100 95 81 91 97 18 36 8 100 100 100 100 100 100 100 100 100 100 100 100 100 100 100 100 100 100 100 100 92 77
100 100 100 93 100 93 27 9 3 100 28 41 91 99 98 59 51 73 100 94 72 93 90 61 59 100 100 98 100 100 100 100 100 100 100 100 100 100 100 100 100 100 100 100 100 100 100
100 100 100 100 89 100 100 64 10 92 37 90 43 72 87 13 70 90 100 38 26 100 99 100 100 100 88 100 98 100 100 100 100 100 100 100 100 100 98 100 100 36 99 100 80 69 97
100 100 100 100 100 100 100 100 100 100 34 27 96 44 100 63 87 57 84 38 100 93 100 100 100 100 82 95 74 79 66 100 100 100 100 100 100 100 100 100 95 100 100 100 92 83 5
100 100 100 100 100 100 100 100 100 100 100 98 86 29 98 100 68 72 91 99 67 100 100 100 100 100 100 81 68 99 79 61 14 100 100 100 100 100 100 100 100 100 100 100 100 100 87
100 100 100 100 100 100 100 100 100 100 100 100 100 100 85 89 22 63 67 19 98 100 100 100 100 100 100 100 97 100 100 100 94 59 47 98 11 82 84 85 99 98 100 100 100 100 100
100 85 100 100 97 100 100 100 100 100 100 100 70 100 93 100 10 86 49 72 100 100 100 100 100 100 100 100 100 100 100 68 80 100 88 100 100 97 85 98 94 95 42 35 84 92 100
100 97 100 92 100 100 100 100 100 100 100 100 100 100 82 99 32 75 79 100 100 100 100 100 100 100 100 100 100 100 100 92 61 67 85 58 92 85 96 74 95 5 9 23 33 59 10
87 73 30 84 79 96 100 100 100 100 100 100 100 100 100 100 86 31 100 100 100 100 100 100 100 100 94 98 100 100 95 29 89 94 15 99 80 100 82 92 45 100 28 5 10 15 18

GFSGBSN_prec_cloud_081.txt.gz
Cloud_Cover
100 100 100 62 100 29 66 21 25 6 11 90 97 100 100 100 100 100 92 100 100 100 100 100 100 100 89 5 1 4 0 0 0 4 5 5 3 3 0 5 5 6 8 0 8 100 68
100 100 100 100 100 100 100 100 98 100 92 18 100 100 100 100 100 100 100 100 99 100 100 86 100 58 15 4 1 4 5 5 2 5 5 5 44 9 1 0 3 84 5 2 60 100 73
100 100 100 100 100 100 100 78 100 73 16 46 10 97 66 100 100 100 100 100 100 100 12 100 18 4 7 14 3 1 5 14 5 61 5 58 6 3 20 4 5 100 100 5 93 100 98
96 100 100 100 100 100 100 100 100 100 46 6 5 44 98 100 100 100 100 100 100 100 68 8 15 4 0 0 0 1 5 9 75 100 8 95 55 99 55 21 26 100 68 84 68 86 100
100 100 98 100 100 100 100 100 100 100 99 100 85 48 97 88 100 100 100 91 100 100 100 81 8 0 0 0 0 0 5 8 100 100 100 88 72 83 69 45 18 92 100 100 100 58 100
100 100 30 70 100 100 100 100 100 100 100 100 97 96 76 18 60 100 100 72 98 34 42 5 0 0 0 0 0 0 0 6 97 100 100 100 81 51 98 56 65 100 100 100 50 85 100
13 100 54 100 100 100 100 100 100 100 100 100 100 88 66 41 96 92 100 100 100 4 5 5 2 0 0 0 0 0 3 87 100 100 100 100 100 13 93 100 100 100 100 100 100 100 100
49 67 98 99 98 100 100 100 100 100 100 100 100 100 98 98 99 8 37 47 67 93 58 4 0 0 0 0 0 1 9 43 97 100 100 100 42 93 100 100 100 100 100 100 100 100 100
66 100 100 100 97 100 100 100 87 90 100 100 100 100 100 88 25 12 22 8 30 78 7 2 0 0 0 0 8 34 100 100 100 100 100 100 36 100 100 100 100 100 100 100 100 100 100
17 15 100 84 100 100 70 100 100 100 100 94 96 100 100 100 80 66 88 42 37 98 39 0 2 2 0 0 61 22 51 61 100 100 100 99 95 100 100 100 100 100 100 100 100 100 100
97 100 100 100 100 89 100 100 100 100 100 100 100 100 98 98 100 92 100 30 57 98 4 0 0 5 4 6 3 64 91 100 100 100 100 100 100 100 100 100 100 100 100 100 100 100 100
100 100 97 95 77 100 100 100 100 98 100 100 100 98 63 30 38 77 100 15 45 94 3 0 0 0 88 28 9 90 100 100 100 100 100 100 100 100 100 100 100 100 100 100 100 100 100
91 80 84 47 54 42 100 100 100 100 100 100 100 100 100 100 94 75 86 96 42 4 0 0 0 3 82 100 7 35 100 100 100 100 100 100 100 100 100 100 100 100 100 100 100 100 100
39 87 100 100 78 100 87 100 100 100 100 100 100 100 100 65 72 56 93 78 18 5 0 0 0 0 98 77 100 100 100 100 100 100 100 100 100 100 100 100 100 100 100 100 100 100 100
99 91 61 57 43 74 100 95 100 100 100 100 100 100 100 100 100 89 60 76 4 5 0 0 0 0 99 100 100 100 100 100 100 100 100 100 100 100 100 100 100 100 100 100 100 100 100
73 88 97 97 5 100 33 51 100 100 100 100 100 100 100 100 100 99 65 15 5 0 7 1 0 2 90 100 100 100 100 100 100 100 100 100 99 100 100 100 99 100 100 100 100 100 100
99 47 28 36 16 97 100 94 59 100 100 100 100 100 100 100 100 100 77 63 5 4 5 2 3 5 5 100 100 100 100 100 100 100 100 100 100 100 100 96 100 100 100 100 100 100 100
100 98 83 99 94 13 91 68 98 67 100 100 100 100 100 100 98 100 100 100 96 29 5 5 5 5 5 100 98 100 100 100 100 100 100 100 100 100 100 100 100 100 100 100 100 100 100
100 100 100 100 88 59 95 100 45 87 100 100 100 100 100 99 94 83 72 91 100 77 7 5 5 19 79 58 100 100 100 100 100 100 100 100 100 100 100 100 100 100 100 100 100 100 100
100 100 100 100 44 8 15 87 44 32 100 95 85 96 100 100 95 69 95 100 100 52 51 75 100 87 97 100 100 100 100 100 100 100 100 100 100 100 100 100 100 100 100 100 100 100 100
88 86 34 55 84 88 23 5 4 7 96 97 98 51 99 91 86 77 94 68 100 100 95 97 100 100 100 100 100 100 100 100 100 100 100 100 100 100 100 100 99 100 100 100 99 100 100
100 100 100 100 100 100 95 11 5 5 27 100 94 79 96 98 89 75 68 47 79 100 100 69 100 100 100 100 100 100 100 100 100 100 100 100 100 100 100 100 100 100 100 100 100 100 100
100 100 100 100 100 100 98 75 53 2 19 100 65 70 25 92 100 100 76 22 36 99 100 100 100 100 100 100 100 100 96 100 100 100 100 100 100 100 100 100 100 100 100 100 100 100 100
100 100 100 100 100 100 100 100 97 12 4 82 66 88 100 34 100 75 94 42 31 100 100 100 100 94 82 79 74 76 99 91 100 100 100 100 100 100 100 100 100 100 100 100 100 100 100
100 100 100 100 100 100 100 100 100 100 94 54 98 98 93 100 100 100 100 97 99 78 76 52 98 100 80 68 98 100 97 100 98 100 100 100 100 100 100 100 100 100 92 100 100 100 100
55 100 100 100 100 100 100 100 100 100 100 78 100 100 100 100 82 100 100 100 100 100 78 100 100 100 100 100 99 98 100 100 100 100 100 100 100 99 100 100 100 100 100 100 100 100 85
100 100 100 98 95 100 100 100 100 100 100 93 100 100 100 100 100 100 100 100 100 95 93 88 100 100 100 100 89 96 100 97 88 100 100 100 100 100 100 100 100 100 100 100 100 100 100
92 100 80 16 47 91 100 100 100 100 100 100 100 100 100 87 100 70 77 12 98 98 100 100 100 100 100 100 100 100 88 94 100 95 100 100 100 100 100 100 100 100 98 85 100 100 100
83 100 100 100 100 100 96 96 100 100 100 100 100 100 100 100 100 51 16 29 94 100 100 100 100 100 79 99 78 100 94 51 95 100 83 96 97 100 100 100 100 100 100 99 96 45 45

GFSGBSN_prec_cloud_087.txt.gz
Cloud_Cover
100 98 58 50 100 71 96 100 67 100 100 100 100 100 100 100 14 85 84 100 100 100 100 100 100 100 100 100 100 100 100 100 100 100 100 94 96 100 53 38 6 0 33 4 0 0 0
100 100 100 100 100 100 100 100 100 71 100 100 100 100 100 100 100 100 100 100 90 76 100 100 100 100 100 100 100 100 100 100 100 100 100 100 100 100 99 90 100 100 30 2 0 4 4
100 100 100 100 100 100 100 100 100 100 100 100 100 100 100 100 100 100 100 100 100 99 56 97 97 100 100 100 100 100 100 100 100 100 100 100 100 100 100 62 27 5 1 1 11 15 3
100 100 100 100 100 100 100 100 100 100 100 100 100 100 100 100 100 100 100 100 100 53 97 39 25 76 62 5 18 10 6 99 100 100 90 81 99 93 20 50 6 4 0 5 90 1 13
100 93 100 100 90 100 100 77 79 60 28 60 100 100 100 100 100 100 100 100 100 100 63 44 45 64 90 94 74 5 52 100 100 100 71 100 100 100 100 86 4 5 4 0 0 3 41
100 100 100 100 100 70 71 19 56 100 100 100 94 97 100 100 100 100 100 100 100 100 97 91 14 83 88 100 44 16 70 10 17 99 100 100 100 100 74 79 4 2 12 4 53 100 100
100 100 100 100 100 100 100 100 100 100 100 100 80 100 100 100 100 100 100 100 99 38 72 91 98 54 97 44 47 57 29 8 18 86 82 79 74 38 5 74 100 100 99 50 51 60 100
100 100 100 97 100 100 100 84 100 64 95 100 100 100 77 99 100 100 100 100 97 66 44 99 96 100 100 74 91 99 51 90 5 26 33 5 9 5 100 100 100 67 65 23 100 100 100
22 5 7 14 32 2 37 65 100 100 100 77 100 100 99 69 100 86 100 100 90 100 90 61 97 100 100 100 95 82 38 68 93 93 18 10 25 5 4 51 20 5 10 92 100 100 100
5 5 5 5 0 5 5 84 100 100 75 92 89 100 100 100 51 63 94 100 100 100 87 14 57 100 100 100 100 100 100 100 99 100 42 85 5 0 4 3 6 5 99 100 100 100 100
90 24 5 5 3 5 39 10 64 84 100 98 100 78 94 100 100 100 93 100 100 100 61 5 72 97 100 100 100 100 100 92 39 12 5 3 2 41 26 6 41 93 100 100 100 100 100
5 5 5 5 5 5 5 5 47 24 82 99 100 98 48 40 99 100 100 100 100 99 100 21 99 97 100 100 100 100 83 75 49 5 5 4 0 4 11 92 100 88 100 100 100 100 97
5 5 5 5 5 5 5 37 52 14 5 65 100 100 100 100 100 100 100 89 98 100 100 100 50 98 100 100 95 22 9 16 5 4 3 0 2 4 12 100 100 100 100 100 100 100 38
5 5 5 5 5 5 5 26 49 81 82 93 100 100 91 100 100 100 100 100 99 100 100 100 100 100 100 100 100 100 39 5 4 2 2 0 4 22 100 100 100 100 100 100 89 99 40
6 47 5 5 5 5 23 98 73 17 96 100 50 24 68 100 100 100 100 100 100 100 100 86 97 100 100 100 30 58 5 15 60 5 3 1 18 96 95 100 100 100 100 100 100 100 96
5 5 5 5 5 63 5 5 84 7 56 82 6 69 8 100 100 100 100 46 100 100 35 69 100 100 93 100 73 10 89 40 48 97 8 5 44 39 91 100 100 100 100 100 100 100 100
5 5 5 34 13 4 3 31 97 16 64 52 79 100 1 100 100 98 100 96 100 100 100 100 100 88 88 100 95 45 98 74 68 14 63 56 88 75 57 100 100 100 100 100 100 100 98
5 5 79 62 43 5 4 9 37 100 74 26 100 91 8 100 100 100 100 100 100 100 100 100 100 94 99 79 5 12 84 85 8 54 100 100 100 99 100 100 100 100 100 100 100 100 100
22 89 38 67 40 30 5 37 100 66 82 86 100 5 68 99 85 100 99 100 100 100 100 100 100 100 100 100 50 100 67 63 5 60 100 100 100 100 100 100 100 100 100 100 100 100 100
100 40 9 34 89 33 5 31 100 100 77 77 100 72 4 100 100 100 100 100 100 100 100 100 100 100 100 100 100 100 89 90 71 2 100 100 100 100 100 100 100 100 100 100 100 100 100
74 97 100 13 91 99 5 5 51 96 75 52 100 98 68 97 100 100 100 100 100 100 100 100 100 100 100 100 86 100 100 100 72 94 30 100 100 100 100 100 100 100 100 100 100 100 100
64 85 75 65 8 100 100 8 13 3 5 70 100 99 99 15 99 100 100 100 100 100 100 100 100 100 100 100 98 83 5 3 5 5 80 100 100 100 100 100 100 100 100 100 100 100 100
68 30 53 32 45 68 94 100 74 24 4 97 25 40 95 5 65 99 100 100 100 100 100 100 100 100 100 96 98 100 83 5 31 66 100 100 100 100 100 100 100 100 100 100 100 100 100
94 71 6 24 97 93 90 90 100 100 23 3 6 12 84 38 5 45 6 80 100 100 100 100 100 100 100 30 56 24 57 81 5 4 48 100 100 100 100 100 100 100 100 100 100 100 100
100 24 5 65 99 96 92 100 82 100 81 10 5 5 38 16 5 0 5 88 81 71 100 100 95 94 86 100 55 9 0 5 46 1 2 100 100 100 100 100 100 100 100 100 100 100 100
92 28 57 38 96 100 100 92 100 100 100 89 100 19 44 36 11 0 9 98 82 69 49 5 5 5 52 100 100 5 5 2 4 4 0 53 100 100 100 100 100 100 100 100 100 100 18
100 100 100 100 100 73 76 100 100 100 99 100 100 100 78 71 5 5 5 78 42 46 98 58 88 76 100 100 96 11 5 0 5 68 100 32 91 100 100 100 100 100 100 100 100 100 98
100 100 100 66 86 98 100 100 100 100 99 100 100 98 97 100 98 30 70 24 99 100 87 50 100 100 100 100 84 8 5 9 9 100 100 100 92 100 100 100 100 100 100 100 100 100 100
100 100 100 100 97 87 79 100 100 100 100 100 100 100 100 97 100 93 44 59 100 99 96 100 100 100 100 74 5 22 17 94 99 94 100 100 59 85 100 100 100 100 100 100 100 100 100

GFSGBSN_prec_cloud_090.txt.gz
Cloud_Cover
5 5 6 5 5 10 94 85 84 21 73 100 73 100 100 100 100 67 99 90 86 98 76 28 76 100 100 100 100 100 100 100 100 100 100 100 100 100 100 100 45 7 100 3 7 83 67
5 26 5 5 92 8 5 61 100 100 100 98 98 100 98 100 100 100 95 100 27 98 100 100 94 30 100 100 100 92 100 100 100 100 100 100 100 100 99 100 89 100 36 14 5 97 98
6 5 14 7 19 95 76 88 99 100 100 100 100 100 100 100 100 100 100 100 100 95 94 100 100 100 100 100 98 100 100 100 97 89 100 98 72 98 100 50 76 100 43 5 44 91 41
29 77 27 85 84 69 53 32 100 100 100 100 100 100 100 100 100 100 100 94 100 100 100 100 100 100 100 100 100 100 100 83 93 100 100 100 100 100 90 100 100 100 96 31 100 100 36
100 62 98 59 79 92 95 81 5 17 96 62 100 100 100 100 100 100 100 100 100 100 100 100 100 97 100 100 100 100 66 82 46 8 84 62 7 33 83 70 10 92 100 73 60 7 5
100 100 100 100 100 100 100 100 100 98 64 74 100 100 96 61 99 100 100 100 100 100 99 100 100 97 100 100 100 100 100 43 9 63 18 5 10 6 84 94 78 41 2 0 0 25 5
100 100 100 100 100 17 100 100 100 100 100 100 100 97 81 8 8 100 100 85 100 100 100 100 100 100 100 100 100 100 100 18 35 5 5 11 5 20 100 78 42 5 5 0 3 55 2
100 100 72 6 17 30 84 88 6 93 10 34 85 100 100 100 61 5 36 88 80 77 99 100 100 100 100 100 100 100 96 68 14 6 5 15 91 60 55 30 10 5 5 4 0 5 82
18 9 6 5 5 5 4 5 3 5 4 94 100 100 93 100 100 100 84 86 100 100 100 100 100 100 100 100 100 100 100 99 100 99 75 6 70 98 29 5 9 5 5 3 4 5 94
17 21 6 5 5 5 5 5 5 5 5 20 34 87 100 8 12 29 100 100 100 100 94 100 100 100 100 100 100 100 100 91 100 100 100 69 94 49 5 8 5 5 3 5 92 18 5
49 5 5 5 5 38 18 5 5 5 5 2 5 8 100 5 4 12 71 100 98 100 100 100 100 100 100 69 39 5 56 94 100 100 100 100 100 72 70 41 28 5 4 1 19 18 71
5 5 5 5 5 5 5 5 5 5 5 5 12 80 27 5 2 10 96 100 87 93 100 100 100 100 100 80 78 75 100 100 100 100 100 100 100 100 99 62 5 16 81 53 65 91 96
5 5 5 5 5 5 5 5 5 0 20 5 5 5 5 5 1 93 100 100 94 99 75 100 100 100 100 100 100 100 100 96 99 100 100 100 54 43 11 5 5 52 100 100 100 100 42
6 5 5 4 5 9 5 5 33 30 16 19 5 5 5 5 0 98 100 100 98 91 100 100 100 100 100 100 100 100 100 100 100 100 100 89 12 6 5 5 14 46 100 100 95 83 93
5 5 5 5 5 5 5 38 5 59 11 34 57 32 3 0 5 83 100 100 100 100 100 87 100 100 100 100 100 99 100 100 95 100 87 23 13 5 0 5 12 41 100 100 100 99 89
5 5 5 5 4 12 5 5 4 4 14 85 5 13 2 35 5 80 100 68 100 100 100 100 100 76 100 100 95 100 100 100 100 100 95 79 66 5 0 5 5 100 100 100 100 100 100
5 5 5 5 69 32 75 11 5 73 0 84 71 98 54 5 32 81 100 100 100 100 100 100 100 100 100 100 100 100 100 100 100 100 87 5 15 3 4 4 4 100 100 100 100 100 100
5 5 13 23 100 39 7 5 4 77 87 84 69 97 38 97 55 69 100 100 100 100 100 100 100 100 100 100 100 100 100 100 100 100 97 38 56 9 0 64 41 100 100 100 100 100 98
5 5 95 94 44 7 20 5 5 17 83 59 100 95 15 100 91 38 100 100 100 100 100 100 100 100 99 95 100 93 49 100 89 27 64 55 87 40 1 38 100 100 100 100 100 100 97
5 26 99 35 5 69 90 71 25 32 22 62 94 96 32 43 100 86 100 100 100 100 100 100 100 100 100 100 100 99 65 55 100 65 2 4 4 81 100 100 100 100 100 100 100 100 100
5 5 18 93 91 14 22 100 5 5 5 5 100 53 100 100 100 68 100 100 100 100 100 100 100 100 73 100 16 100 82 93 40 6 26 36 17 9 100 100 100 100 100 100 100 100 100
5 5 35 98 95 5 35 100 5 5 4 39 100 92 89 37 100 100 100 100 100 100 100 91 100 100 100 100 100 100 100 98 50 100 100 100 45 2 100 100 100 100 100 100 100 100 100
30 5 54 100 99 15 92 98 87 92 12 76 33 12 34 68 97 99 100 100 100 100 100 100 100 100 100 100 100 95 98 98 88 36 75 99 60 26 100 100 100 100 100 100 100 100 100
44 5 68 99 100 64 96 94 97 96 53 49 5 5 7 21 42 98 100 100 100 100 100 100 100 100 100 100 100 100 80 44 77 62 100 95 13 38 100 100 100 100 100 100 100 100 100
10 38 100 100 94 5 88 100 98 100 100 85 68 5 5 73 5 4 28 100 100 100 100 100 100 100 100 100 100 100 100 100 100 100 76 9 5 34 100 100 100 100 100 100 100 100 100
7 100 97 100 99 58 92 100 96 97 100 100 78 13 5 58 10 0 0 5 100 100 100 100 100 100 100 100 100 100 84 72 86 73 7 37 4 5 100 100 100 100 100 100 100 100 100
98 100 100 100 100 100 100 90 100 96 100 100 99 73 22 82 4 11 6 5 29 66 100 100 100 100 100 100 100 97 39 5 4 2 89 99 80 29 100 100 100 100 70 100 100 100 100
86 100 100 100 100 100 100 100 100 100 100 100 100 97 70 99 83 4 4 5 72 100 100 43 15 77 98 75 75 41 12 5 5 1 9 33 99 100 91 100 100 100 94 92 88 100 100
100 100 100 100 100 100 100 100 100 100 100 100 100 100 100 97 97 51 3 2 7 98 90 85 91 100 98 100 98 99 44 9 8 6 100 100 55 100 36 100 100 100 100 99 100 100 100

GFSGBSN_prec_cloud_093.txt.gz
Cloud_Cover
98 35 5 5 5 1 5 5 3 4 4 5 5 5 5 5 55 99 100 100 100 96 90 100 95 31 100 94 93 36 100 100 100 100 100 100 100 100 100 100 99 16 94 100 100 100 80
48 39 8 5 4 5 8 30 5 5 5 5 5 10 5 5 80 100 92 100 94 62 100 92 100 94 64 100 98 81 92 100 100 100 100 100 100 100 97 99 100 100 45 98 100 100 73
98 55 5 5 5 4 2 5 5 5 3 5 5 6 57 5 5 82 100 100 100 95 19 5 28 100 100 99 25 99 100 83 84 100 99 90 95 32 10 89 52 81 68 37 66 89 100
7 5 5 4 5 5 5 5 2 5 94 92 42 50 100 96 5 5 17 100 100 98 65 100 21 95 100 100 100 100 97 100 95 87 100 100 100 100 100 84 96 100 94 100 100 100 100
8 5 13 5 86 47 97 95 73 76 68 10 35 77 17 13 5 8 100 78 100 100 100 100 84 66 82 100 99 100 100 100 100 100 100 100 100 96 58 82 84 100 66 84 89 72 42
85 79 17 75 10 100 53 61 99 94 98 100 100 99 76 19 5 5 52 80 98 100 100 97 100 100 100 100 100 100 100 100 100 100 100 100 100 100 100 89 55 42 6 5 3 71 30
100 100 100 97 59 100 100 14 3 2 5 5 5 5 100 100 100 19 5 66 13 100 100 100 100 100 100 100 100 70 93 100 100 100 100 89 100 100 100 52 9 5 5 5 69 100 86
20 100 39 100 48 30 29 6 5 2 1 5 1 0 5 5 14 97 100 100 100 100 100 62 100 100 100 100 100 100 100 100 100 100 99 11 5 5 4 5 4 4 5 12 77 100 81
88 95 92 10 5 5 9 5 3 2 5 5 5 0 4 5 2 0 5 99 100 100 62 36 39 100 100 100 100 100 100 100 100 100 100 65 5 5 2 1 0 2 3 35 10 65 5
18 5 5 4 5 5 5 5 4 5 5 4 0 0 1 5 4 0 6 94 100 100 100 100 31 100 100 100 100 100 100 100 100 100 100 100 98 72 5 5 5 5 18 6 5 5 2
87 5 5 5 5 5 4 4 5 5 3 0 2 5 10 5 5 1 17 39 86 66 86 100 100 98 100 100 100 100 100 100 100 100 100 100 100 100 100 100 34 33 24 5 5 2 2
5 5 5 5 5 5 5 5 5 4 5 0 5 27 71 5 3 5 31 30 100 61 36 88 100 100 100 100 100 100 100 100 100 100 100 100 100 100 94 100 69 5 32 5 5 49 44
5 5 5 5 5 5 5 3 5 5 5 52 12 5 5 5 7 5 3 100 64 100 0 62 59 100 100 100 100 100 100 100 100 100 100 99 73 84 87 69 72 9 21 48 96 100 50
3 5 5 5 5 5 5 5 3 1 3 6 4 2 5 5 5 61 55 97 100 0 95 44 89 32 100 100 100 100 100 100 100 100 100 100 97 100 100 100 100 99 78 88 80 83 9
5 5 5 5 5 5 5 5 5 5 0 5 4 0 4 4 5 25 66 100 19 75 100 100 37 100 100 100 100 100 100 100 98 100 89 100 99 99 69 100 100 96 100 91 100 100 99
5 5 5 5 5 5 5 5 5 5 5 7 3 9 2 14 1 13 98 99 100 100 100 100 100 100 100 100 100 100 74 100 100 100 100 100 93 86 100 99 7 11 94 100 100 100 90
5 5 5 5 5 5 5 5 5 4 2 5 23 66 77 64 58 92 82 100 100 100 100 100 100 100 100 93 97 100 100 100 100 100 100 100 78 99 100 19 5 48 98 100 100 100 85
5 5 5 5 5 5 5 5 5 63 4 5 90 93 72 96 100 97 24 100 100 100 100 100 100 100 100 98 100 100 100 100 100 100 100 100 100 100 100 78 100 92 67 100 100 100 96
6 5 5 5 34 5 5 15 89 30 4 9 93 95 62 71 100 51 4 100 100 100 100 100 100 100 100 100 100 100 100 100 100 100 100 100 100 100 100 78 98 84 99 100 99 100 100
44 5 5 28 19 5 5 70 91 98 5 5 85 80 78 92 100 100 5 100 100 100 100 100 100 100 100 100 100 100 100 100 100 100 100 100 100 100 100 89 60 76 61 100 98 100 100
31 5 5 36 5 5 5 5 57 87 18 5 88 55 48 100 100 100 57 100 100 100 100 100 100 100 100 94 100 100 100 100 96 100 100 100 100 100 92 49 30 5 64 90 100 100 100
91 5 5 5 11 9 5 47 100 61 13 30 72 80 95 100 100 100 100 100 100 100 100 100 100 100 100 100 100 100 100 99 100 100 100 100 100 96 27 5 5 2 100 100 100 100 94
100 5 5 6 5 28 5 70 100 77 7 25 37 19 71 18 100 100 100 100 100 100 100 100 100 100 100 40 10 96 100 100 100 100 100 100 100 82 22 5 0 0 56 100 100 100 98
100 57 22 5 34 27 5 59 100 100 63 53 19 5 5 19 55 100 98 100 100 100 100 100 100 100 75 84 100 100 100 100 100 100 100 100 100 100 50 12 1 7 100 100 100 100 100
100 100 35 5 98 16 5 25 100 100 100 99 91 74 5 98 5 96 28 100 100 100 100 100 100 100 100 100 100 100 100 100 100 100 100 100 100 20 5 5 5 100 100 100 100 100 100
100 100 10 86 98 100 84 5 74 100 100 100 100 100 50 50 6 17 5 74 100 100 100 100 100 100 100 100 100 100 100 100 100 100 98 51 70 50 21 6 26 100 100 100 100 100 100
100 100 87 100 78 92 85 60 99 100 100 100 100 100 100 77 5 6 44 60 95 100 100 100 100 100 100 100 100 100 100 100 100 100 81 42 32 71 41 100 41 100 100 100 100 100 100
100 82 83 100 100 98 10 83 100 100 100 100 100 100 90 65 63 41 2 5 6 97 100 100 100 100 100 100 100 100 100 100 100 100 100 100 100 97 81 96 75 100 98 36 73 100 100
100 10 89 100 96 100 85 98 100 100 100 100 100 100 100 100 51 53 3 0 1 5 73 100 100 100 100 100 100 100 100 100 100 100 100 34 83 99 92 11 97 100 100 96 78 100 100

GFSGBSN_prec_cloud_096.txt.gz
Cloud_Cover
100 100 100 100 100 100 100 100 100 41 5 6 5 4 0 5 5 2 0 0 0 0 0 3 5 10 94 96 100 6 5 32 100 100 100 69 100 100 100 100 100 100 100 100 100 100 77
100 100 100 100 100 100 100 48 100 100 78 5 5 2 0 5 5 3 0 0 0 1 0 0 5 5 57 50 100 90 5 11 89 72 100 100 100 78 25 100 100 100 100 100 100 100 75
100 76 61 93 94 5 5 5 4 3 4 2 0 0 0 0 0 0 0 0 0 0 2 3 5 70 100 94 100 24 96 100 78 25 55 100 100 100 10 76 100 100 100 100 100 100 100
99 94 93 7 5 5 4 0 2 0 0 4 0 0 5 5 5 3 0 0 6 5 25 14 42 100 34 100 48 63 5 97 100 100 76 73 23 5 28 90 79 99 92 94 100 90 20
26 4 7 10 5 3 0 2 5 5 5 5 5 5 5 5 6 6 34 0 1 5 5 41 91 82 14 100 100 83 56 100 100 100 100 98 15 94 52 45 20 72 100 82 42 99 93
44 99 12 5 5 5 17 7 5 5 5 5 5 0 0 0 0 0 0 0 5 5 49 86 97 59 40 100 100 100 100 100 100 100 100 100 98 56 11 26 100 100 99 99 5 71 7
72 5 5 5 5 6 5 5 5 4 5 5 5 2 0 0 0 0 0 5 3 4 76 56 56 55 85 100 100 100 100 100 100 100 100 100 100 100 100 100 100 100 100 100 100 73 100
11 32 37 64 100 5 5 5 5 1 5 0 0 0 0 0 0 0 0 6 100 100 100 5 94 81 52 100 100 100 100 100 100 100 100 100 97 100 100 100 100 100 100 100 100 100 100
23 17 20 5 5 5 5 5 5 5 5 5 2 0 0 0 0 0 0 2 94 100 100 8 49 100 100 34 100 100 100 100 100 100 100 100 97 100 100 100 95 100 100 98 61 43 39
15 5 6 6 5 5 4 2 4 5 5 5 1 0 0 5 0 1 0 5 11 100 100 5 5 60 100 40 63 100 100 100 100 100 100 100 100 100 100 100 100 22 5 5 5 5 5
18 5 6 6 5 5 1 5 5 5 5 0 0 0 0 5 7 12 2 2 6 100 100 0 4 32 100 100 99 100 99 100 100 100 100 100 100 100 100 100 100 75 98 6 5 5 11
5 18 5 5 5 3 1 4 2 3 5 0 0 5 5 1 3 3 0 2 44 100 34 2 97 10 100 100 100 100 68 97 100 100 100 100 100 100 100 100 100 100 100 94 5 5 40
18 91 5 5 3 5 5 5 3 4 5 2 0 3 2 22 10 5 5 0 84 100 0 17 100 92 46 98 100 100 85 100 100 100 100 100 100 100 100 100 100 100 100 100 100 93 7
13 5 5 5 5 5 4 5 5 4 0 4 3 0 0 0 5 22 5 17 98 0 3 40 100 98 17 100 100 100 100 100 100 100 100 100 100 100 100 100 100 100 100 100 100 90 54
7 5 7 5 5 5 5 4 5 5 5 3 0 0 0 3 5 5 5 92 35 4 96 78 100 100 100 74 99 100 100 100 100 100 100 100 100 100 100 100 100 100 95 54 78 41 100
7 5 5 5 5 5 4 3 5 5 5 2 3 6 4 7 29 5 13 59 28 93 94 100 100 100 100 100 70 100 100 100 100 100 100 100 100 100 100 79 42 93 100 100 97 85 63
68 41 5 5 5 5 5 4 5 5 5 4 4 58 7 8 23 79 97 5 3 73 100 100 100 100 100 100 100 93 100 100 100 100 100 100 100 92 97 55 17 100 62 89 100 100 99
93 12 5 5 5 5 5 5 5 34 5 4 29 46 6 89 100 71 81 3 37 100 100 100 100 100 100 100 100 100 100 100 100 100 100 100 100 100 100 100 100 93 37 32 99 81 100
40 37 13 5 5 34 5 5 38 36 5 5 11 24 15 98 64 93 95 4 90 100 100 100 100 100 100 100 100 100 100 100 100 100 100 100 100 100 100 100 100 100 79 85 100 100 100
67 95 5 5 5 5 5 5 16 88 71 38 72 75 10 98 99 100 88 4 96 100 100 100 100 100 100 100 100 100 100 100 100 100 100 100 100 100 100 100 100 100 81 96 100 100 86
100 83 41 6 5 5 5 7 5 98 56 5 82 51 73 89 100 100 100 8 100 100 100 100 100 100 100 100 100 100 100 100 100 100 100 100 100 100 100 100 100 100 99 53 23 86 86
100 100 68 5 5 5 5 77 42 89 50 5 8 69 83 88 88 90 100 100 100 100 100 100 100 100 100 100 100 100 100 99 100 100 100 100 100 100 100 100 100 100 34 32 5 72 5
100 71 70 5 5 5 46 46 57 99 43 6 81 11 33 10 16 99 99 100 100 100 100 100 100 100 100 100 100 100 100 100 100 100 100 100 76 88 100 29 6 15 5 25 49 6 6
100 77 100 5 11 5 48 68 50 100 86 75 96 75 7 39 19 96 97 100 100 100 100 100 100 100 100 84 98 86 100 100 100 100 100 100 100 100 100 89 85 64 5 3 5 42 93
100 100 96 58 11 5 98 93 90 100 100 88 99 100 86 92 6 100 17 92 100 100 100 100 100 93 11 18 71 100 100 100 100 100 100 100 100 100 100 100 100 100 41 5 5 49 100
100 100 87 13 5 74 93 5 17 66 96 100 100 100 100 91 8 5 57 35 96 100 100 100 100 100 75 100 100 100 100 100 100 100 100 100 100 100 100 100 100 100 46 6 42 54 100
100 100 100 100 7 69 32 92 66 52 70 99 100 100 100 93 48 13 73 90 79 65 100 100 100 100 100 100 100 100 100 100 100 100 100 100 100 100 100 100 100 100 69 5 4 98 100
100 100 100 100 48 91 86 95 59 72 98 100 100 100 96 71 16 21 83 14 5 46 94 100 100 100 100 100 100 100 100 100 100 100 100 100 100 100 100 100 100 100 99 22 100 100 100
100 100 100 99 94 100 100 100 24 96 98 100 100 100 100 95 38 55 5 5 0 3 8 90 69 100 100 100 100 100 100 100 100 98 84 60 99 100 96 100 100 100 100 100 100 100 100

GFSGBSN_prec_cloud_099.txt.gz
Cloud_Cover
100 100 100 100 100 100 100 100 100 100 100 100 99 61 72 100 96 98 43 22 0 0 0 0 0 12 79 3 38 0 5 5 22 84 36 9 20 100 100 100 88 11 99 100 100 100 100
100 100 100 100 100 97 100 71 100 46 61 10 5 5 2 6 1 2 0 2 4 0 0 0 0 4 71 42 3 4 0 5 50 100 70 18 5 81 77 100 98 100 78 100 100 100 100
98 43 100 100 15 35 5 5 5 16 17 0 0 2 0 0 0 0 0 0 0 0 0 0 0 81 98 4 1 5 8 4 4 98 100 100 14 5 73 96 100 100 100 100 100 100 100
100 100 43 12 98 6 94 5 5 4 0 0 0 0 0 0 0 0 0 0 0 0 0 8 99 100 49 0 32 92 90 57 14 76 100 100 100 36 5 66 99 100 100 93 100 100 100
90 71 5 83 100 5 6 5 5 4 5 1 1 0 0 0 0 0 0 0 0 0 0 0 89 98 26 4 56 91 100 100 100 100 100 100 100 100 100 8 8 94 100 100 100 100 100
9 71 24 100 36 8 9 42 8 4 0 0 0 0 0 0 0 0 0 0 0 2 59 66 94 75 0 95 99 100 100 100 100 100 100 98 84 95 99 34 33 99 90 85 92 96 91
41 58 100 100 100 100 100 100 85 4 3 5 0 0 0 0 0 0 0 0 2 4 10 5 3 7 0 37 100 100 100 100 100 100 100 100 73 5 96 100 100 100 5 5 26 47 5
100 100 100 100 100 100 68 48 5 5 5 5 2 2 0 0 0 0 0 4 94 94 100 5 2 0 0 2 67 100 94 100 100 100 100 100 25 91 100 100 98 100 100 87 92 87 5
100 100 100 100 100 73 18 6 5 5 4 2 0 0 0 0 0 0 0 0 13 68 100 11 1 0 0 0 78 100 100 100 100 100 100 100 94 100 100 100 89 79 54 98 87 81 100
100 100 100 86 5 5 5 5 5 6 2 0 0 0 0 2 0 0 0 0 0 28 100 2 0 0 0 0 16 100 100 100 100 100 100 100 96 100 100 100 100 100 82 74 45 97 70
100 100 100 25 6 5 5 5 5 2 0 2 2 0 0 0 4 30 2 0 0 71 80 0 3 99 73 0 0 92 100 100 100 100 100 100 100 100 100 100 100 72 100 73 89 28 64
100 100 91 5 5 5 5 5 5 1 2 0 0 0 0 0 10 0 0 0 2 59 25 0 6 100 95 74 0 5 99 100 100 100 100 100 100 100 100 100 100 100 100 73 40 20 13
100 100 32 5 5 5 2 5 5 5 1 0 0 0 0 0 0 0 0 1 8 64 3 2 7 100 100 16 62 5 78 100 100 100 100 100 100 100 100 100 100 100 100 91 95 93 46
100 6 7 7 5 5 5 5 5 5 5 3 0 0 0 0 3 0 1 5 56 0 5 5 26 100 100 66 71 0 100 100 100 100 100 100 100 100 100 100 100 100 100 100 100 100 39
100 24 25 5 5 5 5 5 5 5 5 2 0 0 2 5 5 2 4 5 2 8 48 100 12 100 100 98 100 66 100 100 100 100 100 100 93 100 100 100 100 100 100 100 100 88 48
100 100 68 6 5 5 5 5 5 5 5 4 0 1 5 5 5 6 5 5 3 25 72 100 100 100 100 100 100 100 100 100 100 100 100 100 100 100 100 100 100 100 100 100 100 86 95
100 100 58 10 5 5 5 5 5 5 5 1 0 5 27 5 8 17 90 46 3 0 98 100 100 100 100 100 100 100 100 100 100 100 100 100 100 100 100 100 100 100 100 100 100 99 100
100 100 53 30 5 5 22 5 5 5 5 4 4 5 30 30 14 43 41 98 6 97 93 100 100 100 100 100 100 100 100 100 100 100 100 100 100 100 100 100 100 100 100 72 50 100 57
100 100 69 51 22 58 31 5 5 5 5 5 9 45 4 100 73 87 57 18 5 22 100 100 100 100 100 100 100 100 100 100 100 100 100 100 100 100 100 100 100 100 100 43 100 99 80
100 100 100 100 100 93 5 5 30 25 100 5 5 11 5 67 77 60 87 5 61 100 100 100 100 100 100 100 100 100 100 100 100 100 100 100 100 100 100 100 100 100 94 22 56 99 84
100 100 98 100 100 87 5 6 5 56 36 5 38 34 41 72 10 78 100 94 100 100 100 100 100 100 100 100 100 100 100 100 100 100 100 100 100 100 100 100 100 100 96 15 5 5 20
100 100 100 100 100 100 85 7 8 89 65 5 11 8 13 64 5 5 85 100 100 100 100 100 100 100 100 100 100 100 100 100 100 100 100 100 100 100 100 100 100 100 11 6 6 5 5
100 100 100 100 100 100 58 15 32 100 83 10 8 5 5 6 2 5 46 93 100 100 100 100 100 100 100 100 100 100 100 100 100 100 100 100 100 100 100 100 100 100 100 100 100 17 5
100 100 100 100 100 100 35 30 100 98 100 99 42 5 5 16 5 5 36 86 100 100 99 100 100 100 100 100 100 100 100 100 83 100 100 99 100 100 100 100 100 100 100 100 100 5 6
100 100 100 100 100 100 5 75 100 99 100 98 88 28 68 71 5 5 41 13 100 100 100 100 100 100 100 100 100 100 100 96 84 52 17 74 100 100 100 100 100 100 100 100 100 5 61
100 100 100 100 100 100 5 54 100 100 97 100 100 86 76 66 5 5 5 87 63 77 100 100 100 100 100 73 99 100 100 72 100 100 100 100 100 100 100 100 100 100 100 100 100 5 91
100 100 100 100 100 100 7 94 80 100 100 100 100 100 100 69 5 5 5 67 93 9 78 97 99 100 100 86 25 97 36 99 100 100 100 100 100 100 100 100 100 100 94 96 100 76 100
100 100 100 100 100 100 31 74 97 99 100 100 100 100 100 91 11 5 5 5 5 34 50 59 51 25 98 64 70 76 98 100 100 100 100 100 100 100 100 100 100 100 100 70 100 100 100
100 100 100 100 100 100 92 58 100 98 100 100 100 100 100 99 27 5 29 71 6 4 6 48 83 94 100 80 74 80 100 100 100 100 100 100 100 100 100 100 100 100 100 100 100 100 100

GFSGBSN_prec_cloud_102.txt.gz
Cloud_Cover
100 100 100 100 100 100 100 100 43 67 82 5 85 100 6 5 5 52 5 2 0 2 0 0 7 78 40 23 32 0 0 0 0 0 4 5 0 0 0 4 15 5 35 5 60 100 100
100 100 100 100 100 100 100 100 89 94 12 5 5 2 0 4 1 2 0 0 0 0 0 0 0 2 10 48 90 2 0 0 0 0 0 6 29 5 5 0 0 29 11 12 10 90 100
100 100 100 100 100 100 100 72 100 64 5 4 0 2 0 0 0 0 0 0 0 0 0 0 10 31 23 0 0 0 0 0 0 1 0 5 61 58 5 5 4 0 9 9 52 91 100
100 100 100 100 100 100 100 100 88 55 5 1 5 5 0 0 0 0 0 0 0 0 0 0 85 100 9 0 0 0 0 0 0 0 5 39 37 79 5 3 5 18 1 25 53 98 100
100 100 100 100 48 100 100 100 38 4 0 5 5 5 2 0 0 0 0 0 0 0 0 0 58 89 1 0 0 0 0 0 0 0 15 99 100 26 49 6 5 5 5 35 95 88 100
100 100 99 100 100 100 100 29 5 4 86 44 5 5 0 0 0 0 0 0 0 0 2 21 89 70 0 0 0 0 0 0 4 0 99 81 86 100 93 60 10 6 87 98 100 94 37
100 100 100 100 100 100 56 47 20 5 44 33 5 5 3 0 0 0 2 0 0 0 0 0 0 0 0 0 0 0 0 0 2 44 20 100 100 56 100 100 100 100 100 100 6 24 100
100 100 100 100 100 25 78 90 92 100 76 5 5 2 2 0 0 0 2 2 60 82 77 0 0 0 0 1 1 0 0 0 4 85 85 100 19 98 100 100 100 100 99 81 44 5 13
100 100 100 63 69 98 85 100 60 95 5 5 5 0 0 0 0 2 4 5 6 63 60 0 0 0 4 4 3 0 0 0 3 66 100 100 95 100 100 100 100 100 100 100 98 25 27
100 100 100 100 100 100 100 100 74 5 5 5 0 0 0 0 4 2 5 5 4 68 59 0 0 24 77 68 22 0 0 0 2 39 100 100 100 100 100 100 100 100 100 100 100 96 100
100 100 100 100 100 100 100 100 100 100 5 0 0 0 0 0 5 5 1 2 2 94 0 0 16 6 68 100 74 10 0 0 4 59 100 100 100 100 100 100 100 100 100 100 100 96 53
100 100 100 100 100 100 100 26 15 11 2 0 0 0 0 5 4 4 2 0 33 23 2 0 1 70 62 100 60 70 0 0 5 99 100 100 100 100 100 100 100 100 100 100 100 100 57
100 100 100 100 100 100 100 79 73 5 0 0 0 0 2 4 3 3 0 5 5 2 0 43 81 83 30 100 99 24 4 1 10 97 100 100 100 100 100 100 100 100 100 100 97 74 100
100 100 100 100 100 100 48 5 5 1 4 0 0 0 0 5 5 8 2 7 3 0 28 8 8 3 86 100 94 52 41 0 100 100 100 100 100 100 100 100 100 100 100 100 79 98 100
100 100 100 100 98 27 5 5 2 0 5 0 0 0 5 3 18 2 37 34 2 72 96 96 34 100 100 100 100 98 20 14 100 100 100 100 100 100 100 100 100 100 100 100 98 90 100
100 100 100 100 100 6 5 5 5 4 5 0 2 4 5 17 38 6 83 41 22 5 2 93 100 100 100 100 100 100 30 76 100 100 100 100 100 100 100 100 100 100 100 100 100 100 100
100 100 100 94 5 5 5 5 5 3 3 0 4 2 5 26 44 83 91 78 83 5 36 97 100 100 100 97 100 100 100 99 100 93 100 100 100 100 100 100 100 100 100 100 100 100 100
100 100 97 37 6 5 5 5 5 5 5 1 2 5 3 20 92 98 100 100 73 97 100 100 100 100 100 100 100 100 99 99 100 100 100 100 100 100 100 100 100 100 100 100 100 100 100
100 100 97 57 15 82 5 5 5 5 5 5 5 5 3 51 88 96 91 100 100 100 100 100 100 100 100 100 100 100 100 100 100 100 100 100 100 100 100 96 98 100 100 100 100 100 100
100 100 77 86 76 93 91 7 5 5 5 5 7 5 5 46 43 84 85 100 100 100 100 100 100 100 100 100 100 100 100 100 100 100 100 100 100 100 100 100 100 100 100 100 100 100 100
100 100 100 100 89 5 8 54 6 5 5 5 11 5 5 5 19 6 32 98 100 100 100 100 100 100 100 100 100 100 100 100 100 100 100 100 100 100 100 100 100 100 100 100 100 100 98
100 100 100 98 100 100 72 7 7 30 5 11 75 33 5 5 5 5 5 54 99 100 100 100 100 100 100 100 100 100 100 100 100 100 100 100 100 100 100 100 100 100 100 100 100 100 84
100 100 100 100 100 100 100 94 99 50 21 41 5 4 15 1 0 1 13 5 98 39 74 100 100 100 100 100 100 100 100 100 100 100 100 100 100 100 100 100 100 100 94 100 100 54 93
100 100 100 100 100 100 100 100 64 60 57 75 18 20 81 46 5 4 2 5 8 98 82 100 100 100 100 100 100 100 100 100 100 100 100 100 78 100 100 100 99 89 68 99 32 41 75
100 100 100 100 100 100 100 100 91 82 96 57 7 35 78 88 5 5 4 5 6 95 78 50 100 100 100 100 100 100 100 100 100 100 100 100 100 100 100 100 100 100 100 100 100 98 98
100 100 100 100 100 100 100 100 74 90 99 100 100 82 62 87 35 4 5 5 5 59 28 100 100 100 100 100 100 100 100 100 100 100 100 100 100 100 100 100 100 100 100 100 100 100 100
100 100 100 100 100 100 100 100 90 57 86 95 100 100 93 88 39 5 78 18 16 69 19 50 66 97 100 100 100 100 100 100 100 100 100 100 100 100 100 100 100 100 100 100 100 84 100
100 100 100 100 100 100 99 91 98 17 84 98 100 100 100 66 66 8 5 38 83 74 8 6 72 70 99 100 100 100 100 98 96 75 100 100 100 98 100 100 100 100 92 100 100 100 100
100 100 100 100 97 100 100 99 6 20 100 100 100 100 100 100 96 10 5 5 5 6 18 37 49 86 97 100 100 100 100 94 96 100 98 100 99 98 94 100 100 100 100 100 100 100 100

GFSGBSN_prec_cloud_105.txt.gz
Cloud_Cover
100 100 100 100 100 100 100 100 100 100 100 100 100 100 100 100 99 6 24 35 5 3 0 0 0 0 0 0 4 0 0 2 73 84 49 70 5 1 0 1 5 0 0 0 0 0 0
100 100 100 100 100 100 100 100 100 100 100 100 100 100 90 42 43 21 8 4 0 0 0 0 0 16 0 1 0 0 0 0 0 1 58 6 45 23 5 2 4 1 2 0 0 0 1
100 100 100 100 100 100 100 100 100 100 100 100 100 100 42 71 97 70 4 0 0 0 0 0 28 7 2 0 0 0 0 0 0 0 2 10 15 13 5 5 1 2 1 4 0 0 0
100 100 100 100 100 100 100 100 100 100 100 100 100 94 5 67 8 5 0 0 0 0 0 0 2 12 0 0 0 0 0 0 0 0 0 0 18 5 5 5 4 2 3 0 5 0 2
100 100 100 100 100 100 100 100 100 100 100 100 21 100 100 29 0 0 0 2 0 0 0 0 43 54 1 0 0 0 0 0 0 0 0 0 0 3 5 5 3 4 0 1 0 4 4
100 100 100 100 100 100 100 100 100 98 100 100 99 97 61 4 0 4 1 0 0 0 4 6 8 28 0 0 0 0 0 2 1 0 0 0 0 0 0 8 3 5 20 5 5 37 5
100 100 100 100 100 100 100 65 100 99 12 8 51 1 0 0 5 5 10 0 0 0 4 0 0 0 0 0 0 0 0 2 2 0 0 0 0 0 0 0 6 100 100 100 100 88 46
100 100 100 100 100 100 100 52 100 96 55 74 18 81 5 5 5 4 1 2 5 9 28 0 0 0 0 0 0 0 0 0 5 5 1 0 0 0 1 100 100 100 100 90 85 100 4
100 100 100 100 100 100 100 100 100 98 100 100 100 75 76 4 0 2 4 5 5 27 27 0 0 0 0 4 4 2 0 0 3 37 5 0 0 0 1 100 100 100 83 72 100 100 7
100 100 100 100 100 100 100 100 100 100 100 100 100 15 0 0 1 0 5 5 5 80 42 0 2 39 75 28 8 74 4 0 1 5 96 3 0 38 51 69 100 100 79 100 100 100 76
100 100 100 100 100 100 100 100 100 100 100 54 49 5 4 0 5 5 0 3 6 74 24 0 56 52 5 26 8 62 81 0 0 10 100 52 4 96 79 98 100 79 100 100 100 100 100
100 100 100 100 100 100 100 100 100 100 100 97 5 5 6 0 8 5 4 5 48 92 43 100 100 100 100 99 100 75 46 41 0 96 100 100 44 97 100 100 100 100 100 100 100 100 100
100 100 100 100 100 100 100 100 100 100 68 5 5 5 2 3 3 4 5 30 96 100 97 100 97 100 74 93 97 96 86 38 0 92 100 25 87 92 100 100 100 100 100 100 100 100 100
100 100 100 100 100 100 100 100 100 100 82 6 5 5 4 5 4 7 40 100 100 99 100 69 20 4 98 100 100 100 100 14 0 95 100 95 99 100 100 100 100 100 100 100 100 100 100
100 100 100 100 100 100 100 100 100 44 15 4 4 5 5 4 5 26 72 99 82 99 68 9 30 98 100 100 100 100 34 35 2 30 100 100 100 100 100 100 100 100 100 100 100 100 100
100 100 100 100 100 100 100 100 36 27 23 5 5 4 5 4 5 24 96 48 69 97 76 82 100 100 100 100 100 100 85 94 5 93 100 100 99 100 100 100 100 100 100 100 100 100 100
100 100 100 100 100 100 100 91 42 27 5 0 5 23 3 4 14 85 91 44 13 47 100 100 100 100 100 100 100 100 99 19 44 100 100 96 100 100 100 100 100 100 100 100 100 100 100
100 100 100 100 100 100 60 59 57 5 5 4 4 49 1 5 97 96 90 98 36 100 100 100 100 100 100 100 96 100 100 94 99 100 100 100 100 100 100 100 100 100 100 100 100 100 100
100 100 100 100 100 100 100 80 5 5 5 6 5 2 1 26 75 94 27 100 100 76 100 99 100 100 100 100 100 100 100 21 100 100 100 100 100 100 100 100 100 100 100 100 100 100 100
100 100 100 100 100 100 100 88 24 5 5 4 11 58 22 30 18 86 36 90 96 96 98 100 100 100 100 100 100 100 100 62 100 100 100 100 100 100 100 100 100 100 100 100 100 100 100
100 100 100 100 100 93 100 82 13 5 5 16 18 13 2 80 87 6 29 85 97 16 78 91 100 100 100 100 100 100 100 96 100 100 100 100 100 100 100 100 100 100 100 100 100 100 100
100 100 100 100 100 100 100 100 92 11 5 31 83 72 4 5 5 25 13 5 5 5 70 100 100 100 100 100 100 100 100 100 100 100 100 100 100 100 100 100 100 100 100 100 100 100 100
100 100 100 100 100 100 100 100 98 18 20 99 5 6 5 8 5 23 34 0 3 5 5 100 100 100 100 100 100 100 100 100 100 100 100 100 100 100 100 100 100 100 100 100 100 100 100
100 100 100 100 100 100 100 100 100 7 32 100 91 89 87 81 5 8 0 0 0 4 62 100 100 94 100 100 100 100 100 100 100 100 100 100 100 100 100 100 100 100 100 100 100 100 100
100 100 100 100 100 100 100 100 99 52 8 98 89 99 94 90 29 5 5 0 2 3 21 74 100 100 96 100 100 100 100 100 100 100 100 100 100 100 100 100 100 100 100 99 100 100 100
100 100 100 100 100 100 100 100 99 96 53 62 99 80 100 86 94 4 5 2 5 5 5 62 97 100 100 100 100 100 100 100 100 100 100 100 100 99 100 100 100 100 100 96 92 100 100
100 100 100 100 100 100 100 100 100 100 97 98 87 48 52 87 95 12 99 77 42 15 5 13 85 100 100 98 100 100 100 100 100 100 100 100 100 100 77 100 100 100 100 100 99 100 100
100 100 100 100 100 100 100 100 100 100 100 100 98 47 84 60 78 87 90 100 98 98 96 40 86 93 100 88 100 100 100 100 100 100 100 100 100 100 93 89 98 100 100 100 100 100 100
100 100 100 100 100 100 100 100 100 100 100 71 93 85 97 100 35 24 13 7 8 23 91 95 94 97 99 96 95 100 100 100 100 100 100 97 100 100 100 100 100 100 100 100 100 100 100

GFSGBSN_prec_cloud_108.txt.gz
Cloud_Cover
100 100 100 100 100 100 100 100 100 100 100 100 100 100 100 100 100 100 100 100 100 100 100 99 1 4 5 16 4 0 0 0 0 0 0 0 0 1 5 100 70 0 14 5 0 5 5
100 100 100 100 100 100 100 100 100 100 100 100 100 100 100 100 100 100 100 100 100 100 100 5 0 6 63 11 0 0 0 0 0 0 0 0 0 0 0 2 61 92 8 5 5 3 1
100 100 100 100 100 100 100 100 100 100 100 100 100 100 100 100 100 100 100 100 98 17 58 0 0 72 4 0 0 0 0 0 0 0 0 0 0 0 0 0 2 52 94 5 4 5 0
100 100 100 100 100 100 100 100 100 100 100 100 100 100 100 100 100 100 89 92 73 42 1 1 0 5 5 0 0 0 0 0 0 0 0 0 0 0 0 0 3 5 41 5 3 5 4
100 100 100 100 100 100 100 100 78 95 100 100 100 100 100 100 100 100 17 25 1 3 1 0 14 54 2 0 0 0 0 0 0 0 0 0 0 0 0 4 3 70 16 1 36 5 27
100 100 100 100 100 100 100 100 99 67 98 54 80 94 10 87 76 5 4 24 42 0 0 0 11 93 0 0 0 0 0 0 0 0 3 0 0 0 0 4 10 0 4 51 5 44 57
100 100 100 100 100 100 100 100 100 100 80 100 89 96 5 5 71 5 5 0 1 0 5 0 0 0 0 0 0 0 0 0 0 0 3 5 0 0 0 0 0 6 100 100 12 70 100
100 100 100 100 100 100 100 100 100 100 100 100 100 100 97 17 66 8 5 5 3 2 1 0 0 0 0 0 0 0 0 0 0 0 5 18 49 0 0 0 0 5 100 98 93 86 100
100 100 100 100 100 100 100 100 100 100 100 100 100 100 100 100 96 100 25 5 1 5 0 0 0 0 0 0 3 0 57 90 2 0 5 74 0 0 0 0 0 6 45 100 26 100 100
100 100 100 100 100 100 100 100 100 100 100 100 100 100 100 100 90 35 6 1 2 2 5 0 66 63 85 99 4 88 8 100 76 0 5 38 22 88 0 0 2 95 99 100 100 100 100
100 100 100 100 100 100 100 100 100 100 100 100 100 100 100 100 35 5 4 1 5 6 37 2 30 22 85 74 59 100 99 49 98 32 29 2 16 100 96 9 1 7 100 100 100 100 43
100 100 100 100 100 100 100 100 100 100 100 100 100 100 100 100 42 5 5 5 15 88 88 1 30 50 3 8 36 46 2 99 100 5 42 1 88 97 1 100 81 100 100 100 90 100 99
100 100 100 100 100 100 100 100 100 100 100 100 100 100 100 45 5 4 2 48 94 91 0 0 1 3 1 42 76 67 94 5 100 64 1 1 98 44 66 98 100 100 100 84 100 100 17
100 100 100 100 100 100 100 100 100 100 100 100 100 100 60 5 11 0 12 89 57 0 5 87 6 45 84 97 96 64 74 70 50 20 2 39 98 62 16 25 15 5 80 100 56 34 36
100 100 100 100 100 100 100 100 100 100 100 100 100 91 5 5 2 0 52 7 4 2 4 1 85 19 87 100 94 100 66 71 60 0 99 100 100 100 100 20 37 84 100 100 100 100 100
100 100 100 100 100 100 100 100 100 100 100 100 97 6 26 5 4 2 65 56 10 3 4 32 67 60 86 91 100 100 65 3 36 0 25 100 100 100 100 100 88 100 100 100 100 100 100
100 100 100 100 100 100 100 100 100 100 100 100 100 98 9 4 2 13 42 24 49 5 31 87 44 100 99 100 100 100 100 96 2 87 100 100 100 100 100 100 100 100 100 100 100 100 100
100 100 100 100 100 100 100 100 100 100 100 100 100 93 5 4 91 17 65 92 42 41 5 48 6 82 100 100 100 100 94 54 100 100 100 100 100 100 100 100 100 100 100 100 100 100 100
100 100 100 100 100 100 100 100 100 100 100 90 92 21 5 2 83 68 30 100 93 60 15 63 68 79 100 100 100 100 100 100 37 52 97 100 100 100 100 100 100 100 100 100 100 100 100
100 100 100 100 100 100 100 100 100 100 100 25 12 31 40 37 11 36 69 98 100 54 16 24 48 41 85 100 100 100 100 97 47 9 26 100 100 100 100 100 100 100 100 100 100 100 100
100 100 100 100 100 100 100 100 100 98 42 14 10 7 10 60 100 8 68 100 100 5 5 5 14 89 93 100 100 100 98 65 52 100 99 100 100 100 100 100 100 100 100 100 100 100 100
100 100 100 100 100 100 100 100 100 100 100 100 91 75 9 7 0 20 88 19 66 5 40 5 76 9 95 100 100 100 100 92 88 100 100 100 100 100 100 100 100 100 100 100 100 100 100
100 100 100 100 100 100 100 100 100 100 100 99 70 33 5 79 5 26 67 2 4 7 2 18 62 100 100 100 100 100 100 100 100 100 100 100 100 100 100 100 100 100 100 100 100 100 100
100 100 100 100 100 100 100 100 100 100 99 94 34 66 88 31 33 63 6 5 13 5 0 14 32 100 89 100 100 100 96 93 100 100 100 100 100 100 100 100 100 100 100 100 100 100 100
100 100 100 100 100 100 100 100 100 100 100 85 5 23 92 36 85 54 5 5 3 64 19 28 13 100 100 100 100 100 100 100 100 100 100 100 100 100 100 100 100 100 100 100 100 100 100
100 100 100 100 100 100 100 100 100 100 99 59 43 40 33 84 98 24 8 89 81 35 74 87 5 100 100 100 100 100 100 100 100 100 100 100 100 100 100 100 100 100 100 100 100 100 100
100 100 100 100 100 100 100 100 100 100 100 78 71 28 88 99 99 37 81 81 61 77 96 86 5 70 100 100 100 100 100 100 100 100 100 100 100 100 100 100 100 100 100 100 100 100 100
100 100 100 100 100 100 100 100 100 100 91 67 50 62 87 97 58 86 63 75 57 82 95 49 17 12 100 100 100 100 100 100 100 100 100 100 100 100 100 100 100 100 100 100 100 100 100
100 100 100 100 100 100 100 100 100 100 100 100 100 100 100 100 93 5 3 5 7 10 87 39 98 89 100 100 100 100 100 100 100 100 100 100 100 100 100 100 100 100 100 100 100 100 100

GFSGBSN_prec_cloud_111.txt.gz
Cloud_Cover
100 100 100 100 100 100 100 100 100 100 100 100 100 100 100 100 100 69 95 100 100 100 73 5 5 55 100 100 100 100 79 55 67 87 20 5 5 10 0 0 0 0 0 0 2 0 0
100 100 100 100 100 100 100 100 100 100 100 100 100 100 100 100 100 100 100 100 100 100 97 100 100 98 100 100 97 76 6 4 63 1 0 2 18 14 0 0 0 0 0 0 0 0 0
100 100 100 100 100 100 100 100 100 100 100 100 100 100 100 100 100 100 100 100 100 100 100 100 94 17 100 100 97 26 6 30 2 0 0 0 0 0 0 0 0 0 0 0 0 0 0
100 100 100 100 100 100 100 100 100 100 100 100 100 100 100 100 100 100 100 100 100 100 100 100 29 8 24 6 1 2 0 0 0 0 0 0 0 0 0 0 0 0 0 0 0 0 0
100 100 100 100 100 100 100 100 100 100 100 100 100 100 100 100 100 100 100 100 100 100 100 99 1 30 20 0 0 0 0 0 0 0 0 0 0 0 0 0 0 0 0 0 0 0 0
97 100 100 100 100 100 100 100 100 100 100 100 100 100 100 100 100 96 100 76 23 4 5 3 0 0 0 0 0 0 0 0 57 1 0 5 32 0 0 0 0 0 0 0 0 0 0
100 100 100 100 100 100 100 100 100 100 100 100 100 100 100 100 100 100 100 72 20 22 8 0 1 2 5 2 0 0 0 0 0 0 0 0 90 3 0 0 0 0 30 4 0 0 2
100 100 100 100 100 100 100 100 100 100 100 100 100 100 100 100 100 100 95 100 99 81 18 100 61 5 4 0 0 0 4 1 0 0 0 0 3 12 2 0 0 0 0 0 0 21 100
100 100 100 100 100 100 100 100 100 100 100 100 100 100 100 100 100 97 100 100 74 73 99 61 4 0 13 22 4 1 47 99 84 93 3 0 0 7 35 1 0 0 0 0 3 32 100
100 100 100 100 100 100 100 100 100 100 100 100 100 100 100 100 100 100 100 100 100 100 59 3 0 0 0 1 0 5 50 17 100 100 42 79 0 5 96 93 3 0 0 0 3 96 97
100 100 100 100 100 100 100 100 100 100 100 100 100 100 100 100 100 100 100 100 100 72 29 0 0 0 0 0 0 0 17 100 31 96 74 79 0 6 69 99 83 0 0 31 95 100 39
100 100 100 100 100 100 99 100 100 100 100 100 100 100 100 100 86 100 100 73 70 9 5 0 0 5 0 3 0 0 0 59 3 1 69 4 0 88 69 90 15 14 91 72 60 63 99
100 100 100 100 100 100 100 100 100 100 100 100 100 100 100 100 100 100 100 100 7 4 0 0 0 4 5 5 0 0 0 35 23 55 72 6 0 32 93 65 68 73 100 72 96 100 4
100 100 100 100 100 100 100 100 100 100 100 100 100 100 100 100 100 100 8 7 5 0 0 0 0 3 4 48 7 5 5 83 50 76 5 5 2 95 100 84 97 100 2 6 14 18 2
100 100 100 100 100 100 100 100 100 100 100 100 100 100 100 100 100 100 50 16 5 0 1 3 3 6 1 3 67 80 95 5 17 64 23 97 75 100 100 100 81 81 4 0 6 5 5
100 100 100 100 100 100 100 100 100 100 100 100 100 100 100 100 100 100 73 5 5 15 7 6 100 88 100 34 61 39 26 72 98 96 100 100 100 100 100 80 34 15 29 1 54 59 57
100 100 100 100 100 100 100 100 100 100 100 100 100 100 100 100 99 31 5 5 5 68 5 84 84 75 82 99 49 23 28 50 99 100 100 100 100 100 100 100 83 6 24 61 92 100 100
100 100 100 100 100 100 100 100 100 100 100 100 100 100 100 100 91 5 5 4 24 4 84 8 92 94 77 96 96 27 72 100 100 98 100 100 100 100 100 100 100 100 100 100 100 100 100
100 100 100 100 100 100 100 100 100 100 100 100 100 100 100 68 7 60 4 5 94 6 5 22 100 98 55 100 80 92 74 100 100 98 100 100 100 99 100 100 100 100 100 100 100 100 100
100 100 100 100 100 100 100 100 100 100 100 100 100 100 96 6 5 3 5 5 32 63 0 7 86 40 6 88 98 95 95 100 57 100 100 100 100 100 100 100 100 100 100 100 100 100 100
100 100 100 100 100 100 100 100 100 100 100 100 100 76 5 6 46 1 2 5 4 5 0 6 7 5 96 99 98 100 100 100 23 98 98 99 100 100 100 100 100 100 100 100 100 100 100
100 100 100 100 100 100 100 100 100 100 100 100 100 11 5 5 0 0 5 6 0 0 2 5 5 0 5 79 95 100 92 95 90 100 100 100 100 100 100 100 100 100 100 100 100 100 100
100 100 100 100 100 100 100 100 100 100 100 95 99 92 5 5 5 8 8 1 0 5 0 28 18 0 4 86 85 100 96 100 95 100 100 100 100 100 100 100 100 100 100 100 100 100 100
100 100 100 100 100 100 100 100 100 100 100 97 49 5 5 12 8 70 32 1 0 4 36 61 5 0 4 27 66 100 74 100 100 100 100 100 100 100 100 100 100 100 100 100 100 100 100
100 100 100 100 100 100 100 100 100 100 100 94 100 51 5 12 88 74 5 0 2 47 24 75 5 0 5 58 73 100 98 99 100 100 100 100 100 100 100 100 100 100 100 100 100 100 100
100 100 100 100 100 100 100 100 100 100 100 100 100 8 45 5 5 22 5 5 5 0 0 5 0 0 28 9 100 100 100 86 100 100 100 100 100 100 100 100 100 100 100 100 100 100 100
100 100 100 100 100 100 100 100 100 100 100 100 82 90 40 9 6 5 5 5 5 7 5 1 0 1 4 90 82 100 100 100 100 100 100 100 100 100 100 100 99 99 100 100 100 100 100
100 100 100 100 100 100 100 100 100 100 100 92 36 28 26 36 18 5 5 5 5 5 6 0 3 6 2 20 50 99 100 100 99 100 100 100 100 100 100 100 100 100 100 100 100 100 100
100 100 100 100 100 100 100 100 100 100 100 100 100 75 54 74 26 11 17 5 6 1 5 5 64 46 5 11 99 88 99 100 100 100 100 100 100 100 100 100 100 100 100 100 100 100 100

GFSGBSN_prec_cloud_114.txt.gz
Cloud_Cover
100 100 100 100 100 100 100 100 95 100 100 100 100 100 100 100 99 96 75 94 100 100 100 100 69 27 38 100 56 59 48 60 64 100 100 100 100 100 100 86 88 59 5 4 0 0 0
100 100 100 85 100 100 100 100 100 95 98 83 37 100 100 100 98 97 93 95 100 100 76 88 74 100 100 100 100 39 66 100 100 100 100 100 100 100 19 47 15 0 0 0 0 0 0
100 100 100 98 100 97 100 92 97 94 92 100 89 23 95 100 100 100 100 100 100 100 100 100 100 100 100 100 100 100 100 100 100 82 42 2 5 0 2 0 0 0 0 0 0 0 0
100 100 100 100 100 100 100 100 100 100 86 100 100 100 100 97 100 100 100 100 100 100 100 100 100 100 100 100 100 100 100 100 72 27 5 0 0 0 0 0 0 0 0 0 0 0 0
100 100 100 100 100 100 100 100 100 100 95 100 100 95 100 100 100 100 100 100 100 100 100 100 100 100 100 99 82 41 8 16 0 0 0 0 0 0 0 0 0 0 0 0 0 0 0
100 100 95 100 100 100 100 100 100 100 100 100 100 100 100 100 94 100 99 100 96 100 100 100 56 94 15 14 4 0 0 0 0 0 0 0 0 2 44 18 0 0 0 0 0 0 0
100 100 100 100 100 100 100 100 100 100 100 100 81 100 100 100 8 98 100 99 98 100 98 19 5 37 46 5 0 5 4 5 0 0 0 0 0 0 1 5 4 0 0 0 0 0 0
100 100 100 93 100 100 100 100 100 100 100 100 100 100 100 100 100 100 100 100 100 98 94 72 25 12 1 4 6 98 31 2 0 0 1 1 3 0 0 0 88 5 4 0 0 0 0
100 100 100 100 100 100 100 100 100 100 90 100 91 98 92 94 100 100 100 100 100 100 99 99 100 86 5 38 89 4 1 0 0 0 0 37 3 15 11 0 1 5 5 0 0 0 0
100 100 100 100 100 100 100 100 100 100 86 100 100 100 100 95 73 100 100 100 100 100 100 78 38 7 24 5 5 0 0 0 0 0 14 5 10 7 73 1 95 88 0 1 0 0 0
100 100 100 98 100 100 100 100 100 100 100 100 100 100 100 67 100 100 100 100 100 100 86 71 27 5 2 0 0 0 0 0 0 0 42 37 0 25 97 0 88 38 91 5 2 1 10
100 100 100 100 100 100 100 100 100 100 100 100 100 100 100 100 100 100 100 100 100 100 100 46 5 5 5 2 0 0 0 2 3 0 1 3 2 1 5 0 92 82 11 5 56 15 5
100 100 100 100 100 100 100 100 100 100 100 100 100 100 100 100 100 100 100 100 100 100 100 44 23 5 4 0 0 5 16 9 60 4 6 0 3 0 0 0 32 9 69 26 100 99 6
100 100 100 100 100 100 100 100 100 100 100 100 100 100 100 100 100 100 100 100 100 99 100 97 42 4 0 0 1 5 60 5 91 61 96 5 2 1 87 94 100 99 64 44 46 55 100
100 100 100 100 100 100 100 100 100 100 100 100 99 100 100 100 100 100 100 100 100 100 52 7 5 4 2 28 98 100 93 67 100 100 20 70 100 99 98 94 88 97 20 58 73 89 5
100 100 100 100 100 100 100 100 100 100 100 100 100 100 100 100 100 100 100 100 100 100 15 5 10 5 71 53 89 75 48 44 78 73 100 94 96 100 100 100 100 98 44 4 64 100 89
100 100 100 100 100 100 100 100 100 100 100 100 100 100 100 100 100 100 100 100 100 68 6 5 5 31 35 100 70 87 88 63 92 100 95 100 100 100 100 100 100 65 3 18 30 49 62
100 100 100 100 100 100 100 100 100 100 100 100 100 100 100 100 100 100 100 100 100 34 5 0 3 26 95 96 100 98 99 100 78 100 100 100 100 100 100 100 100 95 5 2 24 100 100
100 100 100 100 100 100 100 100 100 100 100 100 100 100 100 100 100 100 100 100 16 5 0 5 5 53 11 84 54 69 76 30 100 100 100 100 100 100 100 100 98 100 100 100 100 100 100
100 100 100 100 100 100 100 100 100 100 100 100 100 100 100 100 100 100 100 92 7 4 5 2 4 4 5 32 100 94 47 33 100 100 54 52 100 100 100 100 100 100 100 100 100 100 100
100 100 100 100 100 100 100 100 100 100 100 100 100 100 100 100 100 100 66 10 5 5 2 2 0 0 5 15 95 88 15 8 100 31 6 100 92 100 100 100 100 100 100 100 100 100 100
100 100 100 100 100 100 100 100 100 100 100 100 100 100 100 100 100 96 13 5 5 0 0 3 2 0 0 17 5 5 5 85 100 100 91 100 100 100 100 100 100 100 100 100 100 100 100
100 100 100 100 100 100 100 100 100 100 100 100 100 100 100 100 100 87 21 5 5 0 0 5 5 0 0 4 82 5 90 91 100 98 100 100 100 100 100 100 100 100 100 100 100 100 100
100 100 100 100 100 100 100 100 100 100 100 100 100 100 100 100 100 99 14 5 2 5 6 5 2 0 0 0 2 5 40 81 100 100 100 100 100 100 100 100 100 100 100 100 100 100 100
100 100 100 100 100 100 100 100 100 100 100 100 100 100 100 100 100 6 5 5 3 0 12 2 0 0 0 0 3 13 100 34 90 100 100 100 100 100 100 100 100 100 100 100 100 100 100
100 100 100 100 100 100 100 100 100 100 100 100 100 100 100 100 95 26 28 3 1 5 3 0 0 0 0 0 6 57 99 73 76 92 100 100 100 100 100 100 100 100 100 100 100 100 100
100 100 100 100 100 100 100 100 100 100 100 100 100 100 100 100 99 8 18 2 4 5 5 1 0 0 0 6 68 57 99 100 84 100 100 100 100 100 100 100 91 100 99 100 100 100 100
100 100 100 100 100 100 100 100 100 100 100 100 100 100 100 87 90 34 5 4 6 4 5 1 3 4 4 11 17 26 92 99 99 100 100 100 100 100 100 100 92 52 79 99 100 100 100
100 100 100 100 100 100 100 100 100 100 100 100 100 100 100 100 99 9 5 8 5 5 3 46 82 49 6 37 78 41 99 98 95 100 100 100 100 100 100 100 100 96 100 100 100 100 100

GFSGBSN_prec_cloud_117.txt.gz
Cloud_Cover
100 100 100 78 100 100 100 100 100 100 100 100 100 100 52 100 100 100 100 100 100 100 100 33 100 100 98 84 34 16 81 96 100 87 62 35 27 52 9 20 46 100 100 100 100 96 100
100 100 100 100 100 100 100 100 100 98 99 100 100 100 59 79 19 86 99 77 59 100 100 37 99 100 100 86 72 7 77 90 94 100 100 100 100 100 100 100 100 100 100 54 3 2 0
100 100 100 100 100 100 100 100 100 100 100 90 22 82 17 100 17 41 100 93 82 98 31 100 100 100 100 100 100 100 100 99 100 100 100 100 100 100 100 66 99 100 32 16 36 39 0
100 100 91 100 100 97 100 100 100 100 100 40 100 96 83 47 57 23 16 18 100 94 87 54 56 100 100 87 97 100 100 100 100 100 100 100 100 100 100 44 6 9 1 0 0 11 3
100 100 100 100 100 94 100 100 100 100 100 100 45 100 100 95 88 22 93 100 100 93 84 71 44 96 26 54 97 97 100 100 100 68 66 62 41 6 0 0 0 0 0 0 0 0 0
100 100 100 100 100 100 75 93 100 100 100 100 100 100 100 91 100 100 66 99 100 91 43 62 94 100 75 86 44 44 40 54 9 9 7 5 5 4 0 12 2 0 0 0 0 0 0
100 100 100 100 100 100 97 100 100 100 100 100 100 100 100 69 100 100 96 24 92 100 53 8 17 36 30 5 0 0 0 0 0 0 0 0 0 0 0 0 0 0 5 5 2 0 0
100 100 100 100 100 100 100 100 67 100 100 100 100 100 100 100 93 88 88 18 9 63 100 36 69 31 9 5 12 3 4 5 3 0 0 0 0 0 0 0 0 0 0 0 0 0 0
100 100 100 100 100 100 100 100 100 100 100 100 100 94 100 99 100 12 100 35 5 17 7 100 100 100 35 5 7 5 4 4 1 0 0 1 0 0 0 0 2 2 0 0 3 4 5
100 100 100 100 100 100 100 82 100 100 100 100 100 100 87 100 70 73 100 24 5 76 19 54 98 100 100 98 98 63 15 5 1 0 0 0 0 0 0 2 15 5 0 3 30 100 46
100 100 100 100 100 100 100 100 97 100 100 100 100 100 100 53 100 100 69 100 56 100 86 100 100 100 61 84 11 83 19 2 0 0 3 0 0 0 0 0 4 0 0 28 100 88 5
100 100 100 100 100 100 94 100 100 100 100 100 100 100 99 99 100 100 100 100 100 97 100 99 99 99 100 7 4 1 1 0 0 0 0 0 0 1 0 4 5 3 0 97 100 77 70
100 100 100 100 100 100 100 100 100 100 100 100 100 100 99 100 100 100 100 100 100 83 99 100 98 100 30 49 19 7 0 5 20 53 3 1 0 0 0 5 4 1 7 55 32 5 23
100 100 100 100 100 100 100 100 100 100 100 100 100 100 99 100 100 100 90 100 96 100 100 100 100 100 71 24 2 3 5 5 5 93 92 37 8 5 5 4 1 0 54 99 97 100 94
100 100 100 100 100 100 100 100 100 100 100 100 100 100 100 100 100 100 97 100 100 100 98 100 100 100 74 5 5 5 5 5 100 100 100 94 88 98 71 100 87 96 100 100 100 100 100
100 100 100 100 100 100 100 100 100 100 100 100 100 100 100 100 100 100 100 100 100 100 100 100 100 100 99 5 5 24 5 21 99 100 100 93 100 100 100 99 100 100 68 99 100 100 100
100 100 100 100 100 100 100 100 100 100 100 100 100 100 100 100 100 100 100 100 100 100 100 100 100 100 34 23 57 100 21 42 100 62 92 100 99 100 99 46 43 100 93 86 100 100 100
100 100 100 100 100 100 100 100 100 100 100 100 100 100 100 100 100 100 100 100 93 100 100 100 99 30 5 7 63 29 41 97 100 99 99 88 100 100 79 100 100 100 6 86 100 100 100
100 100 100 100 100 100 100 100 100 100 100 100 100 100 100 100 100 100 100 100 100 100 100 100 60 3 5 41 27 5 96 66 99 100 74 62 100 89 100 100 100 100 69 100 100 100 100
100 100 100 100 100 100 100 100 100 100 100 100 100 100 100 100 100 100 100 100 100 100 100 81 5 2 4 9 28 50 87 29 81 100 25 87 100 100 100 100 100 100 100 100 100 100 100
100 100 100 100 100 100 100 100 100 100 100 100 100 100 100 100 100 100 100 100 100 100 57 5 5 3 0 4 53 53 81 100 96 100 51 100 100 100 100 100 100 100 100 100 100 100 100
100 100 100 100 100 100 100 100 100 100 100 100 100 100 100 100 100 86 100 100 100 38 5 5 4 2 0 0 5 5 37 97 6 100 79 100 100 100 100 100 100 100 100 100 100 100 100
100 100 100 100 100 100 100 100 100 100 100 100 100 100 100 100 100 100 100 100 100 29 5 5 4 1 5 5 5 4 5 23 97 76 100 100 100 100 100 100 100 100 100 100 100 100 100
100 100 100 100 100 100 100 100 100 100 100 100 100 100 100 100 100 100 100 100 100 16 5 5 4 5 5 5 2 5 5 66 98 98 100 100 100 100 100 100 100 100 100 100 100 100 100
100 100 100 100 100 100 100 100 100 100 100 100 100 100 100 100 100 100 100 100 67 31 10 5 5 4 2 5 1 4 5 63 81 100 100 100 100 100 100 100 100 100 100 100 100 100 100
100 100 100 100 100 100 100 100 100 100 100 100 100 100 100 100 100 100 100 100 100 17 5 5 5 4 5 5 4 6 54 98 45 100 97 100 100 100 100 100 100 100 100 100 100 100 100
100 100 100 100 100 100 100 100 100 100 100 100 100 100 100 100 100 100 100 100 5 18 5 5 5 5 2 7 5 10 31 79 92 28 79 100 100 100 100 100 100 100 100 100 100 100 100
100 100 100 100 100 100 100 100 100 100 100 100 100 100 100 100 100 100 100 38 78 33 12 5 5 6 9 18 5 9 69 93 91 72 96 100 100 100 100 100 100 100 100 100 100 98 100
100 100 100 100 100 100 100 100 100 100 100 100 100 100 100 100 100 100 100 100 6 5 5 18 32 5 6 11 62 6 99 100 60 100 81 92 100 100 100 100 99 100 100 94 94 100 100

GFSGBSN_prec_cloud_120.txt.gz
Cloud_Cover
100 100 99 100 100 60 100 100 98 73 100 100 97 100 100 100 100 100 85 59 99 100 100 100 100 100 100 100 100 95 48 35 46 43 5 19 6 5 38 70 62 13 66 36 37 4 8
100 73 97 100 100 100 100 100 94 100 100 94 73 99 100 100 100 100 100 99 74 100 100 97 32 28 7 18 94 100 94 6 5 5 5 10 6 29 16 6 4 4 0 3 19 71 87
100 100 97 100 100 100 100 100 100 100 79 70 100 100 79 100 100 100 61 94 27 6 98 5 30 70 95 65 30 6 9 5 5 5 5 7 36 88 13 61 24 51 94 99 97 99 100
88 100 66 100 100 100 100 100 100 100 100 85 100 100 100 100 100 100 100 53 73 96 81 97 84 54 26 97 99 84 20 5 5 4 3 4 20 99 100 100 100 100 100 82 94 44 8
30 100 100 100 99 95 100 100 98 100 100 97 80 100 98 100 100 100 100 100 93 88 35 87 78 50 5 100 97 7 10 90 8 31 85 100 100 100 100 100 100 100 46 28 88 61 17
46 40 65 100 100 100 100 100 100 100 100 82 100 99 70 46 81 92 100 95 100 100 100 16 5 15 8 5 19 5 5 5 15 87 98 77 72 94 16 8 1 0 0 0 0 0 0
100 100 70 100 100 100 100 100 100 100 100 100 100 100 100 23 86 18 50 27 58 100 70 92 5 5 5 5 11 5 5 0 0 0 0 0 0 0 0 0 0 0 0 0 0 0 0
71 61 87 72 100 100 100 100 100 100 100 100 100 100 100 100 91 89 18 20 5 6 63 95 72 25 7 5 4 1 35 67 34 18 6 5 7 4 0 2 0 0 0 0 0 0 0
73 58 94 92 100 100 100 100 100 100 100 100 100 94 100 100 44 75 10 5 23 13 12 65 42 5 30 5 5 1 1 4 4 6 11 5 2 0 0 0 0 0 0 0 0 0 0
4 68 32 14 100 100 100 100 100 100 100 100 100 100 100 100 100 45 40 20 5 14 13 5 5 5 5 5 3 0 5 5 5 5 5 0 0 0 0 0 0 4 0 0 0 0 3
98 100 100 99 100 100 100 100 100 100 100 100 100 100 100 99 96 100 12 32 92 68 34 15 24 5 5 5 2 16 23 51 5 5 4 0 0 0 0 0 0 0 0 0 0 0 83
100 100 100 100 100 100 100 100 100 100 76 100 100 100 100 100 98 100 85 98 88 65 10 18 70 9 5 5 5 98 99 19 5 3 0 0 0 1 0 0 0 0 5 0 0 4 49
100 100 100 100 100 100 100 100 100 100 93 100 100 100 98 100 100 100 98 100 64 49 32 17 22 12 45 56 29 64 34 5 5 53 4 3 0 0 0 0 0 1 5 53 13 77 100
100 100 100 100 100 100 100 100 100 100 100 100 100 100 100 100 100 100 100 100 5 49 100 100 32 40 77 100 83 7 72 97 36 99 64 79 8 0 66 39 76 5 20 86 100 100 100
100 100 100 100 100 100 100 100 100 100 100 100 100 100 100 100 100 100 100 100 99 97 100 100 99 100 80 100 98 100 93 14 86 99 100 97 8 0 3 78 73 44 39 58 20 64 100
100 100 100 100 100 100 100 100 100 100 100 100 100 100 100 100 100 100 100 99 100 100 100 100 100 100 88 92 51 91 53 6 91 100 100 100 97 5 52 74 8 74 68 100 99 100 100
100 100 100 100 100 100 100 100 100 100 100 100 100 100 100 100 100 99 100 100 100 100 100 100 100 100 100 97 98 100 7 43 43 33 80 90 100 12 41 100 29 28 44 61 90 100 100
100 100 100 100 100 100 100 100 100 100 100 100 100 100 100 100 100 100 100 100 100 100 100 100 100 100 100 100 100 28 10 65 97 83 40 92 100 100 73 100 100 76 33 91 88 34 100
100 100 100 100 100 100 100 100 100 100 100 100 100 100 100 100 100 100 100 100 100 100 100 100 100 100 100 100 61 5 5 99 100 42 60 100 100 95 100 100 97 9 50 100 100 100 100
100 100 100 100 100 100 100 100 100 100 100 100 100 100 100 100 100 100 100 100 100 100 100 100 100 100 100 100 56 17 11 60 63 10 100 100 100 99 100 100 100 97 100 100 100 100 100
100 100 100 100 100 100 100 100 100 100 100 100 100 100 100 100 100 100 100 100 100 100 100 100 100 100 100 100 20 93 5 35 36 60 100 100 100 100 100 100 100 100 100 100 100 100 100
100 100 100 100 100 100 100 100 100 100 100 100 100 100 100 100 100 100 100 100 100 100 100 100 100 100 100 79 5 3 5 5 27 98 100 100 100 100 100 100 100 100 100 100 100 100 100
100 100 100 100 100 100 100 100 100 100 100 100 100 100 100 100 100 100 100 100 100 100 100 100 100 100 100 86 7 0 5 5 34 86 97 100 100 100 100 100 100 100 100 100 100 100 100
100 100 100 100 100 100 100 100 100 100 100 100 100 100 100 100 100 100 100 100 100 100 100 98 87 100 100 5 3 0 5 5 16 7 70 100 100 100 100 100 100 100 100 100 100 100 100
100 100 100 100 100 100 100 100 100 100 100 100 100 100 100 100 100 100 100 100 100 100 100 100 100 100 15 5 2 0 2 5 52 25 17 100 100 100 100 100 100 100 100 100 100 100 100
100 100 100 100 100 100 100 100 100 100 100 100 100 100 100 100 100 100 100 100 100 100 70 100 100 49 5 5 5 5 20 5 9 5 5 80 100 100 100 100 100 100 100 100 100 100 100
100 100 100 100 100 100 100 100 100 100 100 100 100 100 100 100 100 100 100 100 100 99 98 100 93 11 5 11 5 8 16 12 72 17 23 100 100 100 100 100 100 100 100 100 100 100 100
100 100 100 100 100 100 100 100 100 100 100 100 100 100 100 100 100 100 100 100 100 100 100 100 86 27 8 17 5 5 24 36 42 22 56 100 100 100 100 100 100 100 100 100 100 100 100
100 100 100 100 100 100 100 100 100 100 100 100 100 100 100 100 100 100 100 100 100 100 100 100 52 39 6 5 5 5 63 35 42 94 55 100 100 100 100 100 100 100 100 100 100 100 100

GFSGBSN_prec_cloud_123.txt.gz
Cloud_Cover
100 100 100 100 100 100 96 96 91 5 100 51 5 50 100 12 13 12 100 38 100 100 100 100 89 80 100 100 100 100 73 99 81 98 72 100 100 95 71 87 38 54 27 21 18 43 7
100 100 100 100 100 100 100 100 100 98 93 24 70 7 99 87 100 100 100 100 100 100 100 100 99 11 98 96 66 46 51 51 82 82 90 100 100 68 22 16 9 5 51 9 5 5 10
74 47 100 100 85 100 26 67 100 100 45 100 75 100 100 100 81 62 100 100 100 100 100 100 100 29 66 96 51 98 96 99 39 8 82 100 100 63 12 5 5 5 5 5 3 6 3
47 24 68 89 95 100 98 84 100 100 100 100 100 100 100 100 100 96 58 100 100 100 100 100 100 100 100 100 55 55 64 72 44 5 62 47 72 13 78 11 4 5 2 3 5 60 99
40 64 71 5 95 100 100 100 100 100 90 100 96 100 100 100 100 75 83 94 100 100 100 100 100 100 100 89 7 23 15 45 49 4 5 5 5 4 4 0 0 2 4 4 5 61 70
86 25 33 6 92 72 100 100 100 100 100 100 100 100 100 100 100 84 75 63 88 90 97 26 14 46 65 100 78 55 44 5 0 0 0 0 0 1 0 0 0 0 0 0 0 1 2
66 100 100 100 100 100 100 100 100 100 100 100 100 100 100 100 100 100 100 61 100 100 92 58 99 42 5 5 5 5 10 37 5 5 0 0 0 0 0 0 0 5 5 5 5 5 0
45 98 100 100 100 100 100 100 100 100 100 100 100 100 100 100 89 100 100 94 93 58 23 22 8 47 23 5 0 0 0 5 5 2 0 0 0 0 0 0 0 0 0 0 0 0 0
97 67 34 11 28 94 100 100 100 100 100 100 100 100 100 100 100 100 100 100 100 100 72 35 5 12 39 5 5 5 4 5 1 0 0 0 0 0 0 0 0 0 0 0 0 0 0
100 43 11 33 63 42 79 98 100 100 100 100 100 100 100 100 100 100 100 100 100 100 36 5 6 35 5 7 5 5 5 5 0 0 0 0 0 0 0 0 0 0 0 0 0 3 3
0 51 6 0 32 100 57 95 100 100 100 99 100 100 100 100 100 100 100 100 100 100 98 38 5 45 5 5 5 5 5 5 3 4 2 3 0 0 0 0 0 3 0 0 1 5 5
3 0 3 38 100 100 100 90 100 100 100 28 100 100 100 100 100 100 100 100 100 90 66 16 5 5 4 5 5 5 5 5 5 5 24 5 0 0 0 0 0 0 1 0 0 5 61
0 8 100 100 100 100 100 100 100 100 81 72 56 100 99 100 100 100 100 100 100 98 91 25 5 5 5 5 6 37 5 5 4 5 74 3 0 0 0 0 0 4 5 0 2 92 96
0 42 100 100 100 100 100 100 100 100 18 100 71 100 100 100 100 100 100 100 91 92 100 86 68 5 5 7 5 5 66 50 7 77 96 5 2 0 5 1 8 2 0 8 4 5 56
7 96 100 100 100 100 100 100 100 100 99 100 100 100 100 100 100 100 100 100 100 100 100 100 100 42 74 100 77 74 100 100 66 100 100 99 41 0 5 5 95 97 0 62 100 77 100
100 100 100 100 100 100 100 100 100 100 100 100 100 100 100 100 100 100 100 100 100 100 100 100 86 100 100 100 100 100 100 100 83 14 36 67 89 1 5 8 77 25 4 62 92 91 89
100 100 100 100 100 100 100 100 100 100 100 100 100 100 100 100 100 100 98 100 100 100 100 100 100 100 100 100 100 100 100 100 64 5 5 27 100 10 9 59 85 100 40 45 91 24 91
100 100 100 100 100 100 100 100 100 100 100 100 100 100 100 100 98 100 100 100 100 100 100 100 100 100 100 100 100 100 100 100 86 5 5 42 100 99 27 8 49 9 22 38 100 100 100
100 100 100 100 100 100 100 100 100 100 100 100 100 100 100 100 100 100 100 100 100 100 100 100 100 100 100 100 100 100 100 100 89 9 69 98 67 64 8 47 20 78 79 100 100 100 100
100 100 100 100 100 100 100 100 100 100 100 100 100 100 100 100 100 100 100 100 100 100 100 100 100 100 100 100 100 100 100 100 9 19 83 98 45 94 100 100 100 100 100 100 100 100 100
100 100 100 100 100 100 100 100 100 100 100 100 100 100 100 100 100 100 100 100 100 100 100 100 100 100 100 100 100 100 100 14 5 28 5 92 96 100 96 100 100 100 100 100 96 100 100
100 100 100 100 100 100 100 100 100 100 100 100 100 100 100 100 100 100 87 100 100 100 100 100 100 100 100 100 100 100 100 5 8 63 6 66 66 100 100 100 100 100 100 100 100 100 100
100 100 100 100 100 100 100 100 100 100 100 100 100 100 100 100 96 100 100 100 100 100 100 100 100 100 100 100 100 100 56 5 5 5 5 51 98 96 100 100 100 100 100 100 100 100 100
100 100 100 100 100 100 100 100 100 100 100 100 100 100 99 90 96 100 100 100 100 100 100 100 100 100 100 100 100 100 9 2 5 5 5 9 90 97 100 100 100 100 100 100 100 100 100
100 100 100 100 100 100 100 100 100 100 100 100 98 100 100 100 100 100 100 100 100 100 100 100 100 100 100 100 100 73 5 5 43 20 5 24 72 100 100 100 100 100 100 100 100 100 100
100 100 100 100 100 100 100 100 100 100 100 100 100 100 100 94 100 100 100 100 100 100 100 100 100 100 100 100 100 92 5 5 5 5 5 5 37 100 100 100 100 100 100 100 100 100 100
100 100 100 100 100 100 100 100 100 100 100 100 100 100 99 100 100 100 100 100 100 100 100 100 100 100 100 100 100 6 24 8 9 5 19 14 65 95 100 100 100 100 100 100 100 100 100
100 100 100 100 100 100 100 100 100 100 100 100 100 100 98 100 100 100 100 100 100 100 100 100 100 100 100 100 35 5 20 54 56 32 67 5 82 99 100 100 100 100 100 100 100 100 100
100 100 100 100 100 100 100 100 100 100 100 100 100 96 99 100 100 100 100 100 100 100 100 100 100 100 100 99 13 5 40 56 40 88 17 15 67 100 100 100 100 100 100 100 100 100 100